<?xml version="1.0" encoding="UTF-8" standalone="no" ?>
<gpx xmlns="http://www.topografix.com/GPX/1/1" xmlns:xsi="http://www.w3.org/2001/XMLSchema-instance" xsi:schemaLocation="http://www.topografix.com/GPX/1/1 http://www.topografix.com/GPX/1/1/gpx.xsd" version="1.1" creator="VisuGPX - https://www.visugpx.com">
  <metadata>
    <name>Marche de la Gym de Marsannay du jeudi 16 Janvier 2020 </name>
    <desc><![CDATA[de Brochon à Fixey-Couchey
]]></desc>
  </metadata>
  <trk>
    <name><![CDATA[Track]]></name>
    <trkseg>
      <trkpt lat="47.24067" lon="4.96561">
        <ele>318.7</ele>
      </trkpt>
      <trkpt lat="47.24067" lon="4.96578">
        <ele>318.2</ele>
      </trkpt>
      <trkpt lat="47.24069" lon="4.96591">
        <ele>316.1</ele>
      </trkpt>
      <trkpt lat="47.24071" lon="4.96595">
        <ele>316</ele>
      </trkpt>
      <trkpt lat="47.24075" lon="4.96597">
        <ele>322.52142333984</ele>
        <time>2020-01-16T09:03:05 0100</time>
      </trkpt>
      <trkpt lat="47.24078" lon="4.96601">
        <ele>322.60012817383</ele>
        <time>2020-01-16T09:03:09 0100</time>
      </trkpt>
      <trkpt lat="47.24081" lon="4.96604">
        <ele>322.71759033203</ele>
        <time>2020-01-16T09:03:13 0100</time>
      </trkpt>
      <trkpt lat="47.24084" lon="4.96609">
        <ele>322.86459350586</ele>
        <time>2020-01-16T09:03:17 0100</time>
      </trkpt>
      <trkpt lat="47.24088" lon="4.96613">
        <ele>323.02899169922</ele>
        <time>2020-01-16T09:03:21 0100</time>
      </trkpt>
      <trkpt lat="47.24091" lon="4.96616">
        <ele>323.2214050293</ele>
        <time>2020-01-16T09:03:25 0100</time>
      </trkpt>
      <trkpt lat="47.24094" lon="4.96617">
        <ele>323.40802001953</ele>
        <time>2020-01-16T09:03:29 0100</time>
      </trkpt>
      <trkpt lat="47.24098" lon="4.96619">
        <ele>323.56704711914</ele>
        <time>2020-01-16T09:03:33 0100</time>
      </trkpt>
      <trkpt lat="47.24101" lon="4.96622">
        <ele>323.74578857422</ele>
        <time>2020-01-16T09:03:37 0100</time>
      </trkpt>
      <trkpt lat="47.24105" lon="4.96625">
        <ele>323.92434692383</ele>
        <time>2020-01-16T09:03:41 0100</time>
      </trkpt>
      <trkpt lat="47.2411" lon="4.96626">
        <ele>323.94918823242</ele>
        <time>2020-01-16T09:03:45 0100</time>
      </trkpt>
      <trkpt lat="47.24114" lon="4.96625">
        <ele>323.85641479492</ele>
        <time>2020-01-16T09:03:49 0100</time>
      </trkpt>
      <trkpt lat="47.24118" lon="4.96626">
        <ele>323.73733520508</ele>
        <time>2020-01-16T09:03:53 0100</time>
      </trkpt>
      <trkpt lat="47.24122" lon="4.96627">
        <ele>323.5537109375</ele>
        <time>2020-01-16T09:03:57 0100</time>
      </trkpt>
      <trkpt lat="47.24126" lon="4.96627">
        <ele>323.32641601562</ele>
        <time>2020-01-16T09:04:01 0100</time>
      </trkpt>
      <trkpt lat="47.24131" lon="4.96629">
        <ele>323.06237792969</ele>
        <time>2020-01-16T09:04:05 0100</time>
      </trkpt>
      <trkpt lat="47.24135" lon="4.96631">
        <ele>322.86889648438</ele>
        <time>2020-01-16T09:04:09 0100</time>
      </trkpt>
      <trkpt lat="47.24139" lon="4.96631">
        <ele>322.73861694336</ele>
        <time>2020-01-16T09:04:13 0100</time>
      </trkpt>
      <trkpt lat="47.24143" lon="4.96631">
        <ele>322.65505981445</ele>
        <time>2020-01-16T09:04:17 0100</time>
      </trkpt>
      <trkpt lat="47.24146" lon="4.96631">
        <ele>322.60559082031</ele>
        <time>2020-01-16T09:04:21 0100</time>
      </trkpt>
      <trkpt lat="47.2415" lon="4.96629">
        <ele>322.63226318359</ele>
        <time>2020-01-16T09:04:25 0100</time>
      </trkpt>
      <trkpt lat="47.24153" lon="4.96629">
        <ele>322.62506103516</ele>
        <time>2020-01-16T09:04:29 0100</time>
      </trkpt>
      <trkpt lat="47.24155" lon="4.96627">
        <ele>322.68222045898</ele>
        <time>2020-01-16T09:04:33 0100</time>
      </trkpt>
      <trkpt lat="47.24158" lon="4.96624">
        <ele>322.88079833984</ele>
        <time>2020-01-16T09:04:37 0100</time>
      </trkpt>
      <trkpt lat="47.24161" lon="4.96621">
        <ele>323.18850708008</ele>
        <time>2020-01-16T09:04:41 0100</time>
      </trkpt>
      <trkpt lat="47.24164" lon="4.96617">
        <ele>323.46539306641</ele>
        <time>2020-01-16T09:04:45 0100</time>
      </trkpt>
      <trkpt lat="47.24167" lon="4.96614">
        <ele>323.77838134766</ele>
        <time>2020-01-16T09:04:49 0100</time>
      </trkpt>
      <trkpt lat="47.2417" lon="4.96611">
        <ele>324.11947631836</ele>
        <time>2020-01-16T09:04:53 0100</time>
      </trkpt>
      <trkpt lat="47.24172" lon="4.96606">
        <ele>324.48767089844</ele>
        <time>2020-01-16T09:04:57 0100</time>
      </trkpt>
      <trkpt lat="47.24174" lon="4.96602">
        <ele>324.89703369141</ele>
        <time>2020-01-16T09:05:01 0100</time>
      </trkpt>
      <trkpt lat="47.24176" lon="4.96598">
        <ele>325.34426879883</ele>
        <time>2020-01-16T09:05:05 0100</time>
      </trkpt>
      <trkpt lat="47.24178" lon="4.96593">
        <ele>325.84255981445</ele>
        <time>2020-01-16T09:05:09 0100</time>
      </trkpt>
      <trkpt lat="47.2418" lon="4.96589">
        <ele>326.36083984375</ele>
        <time>2020-01-16T09:05:13 0100</time>
      </trkpt>
      <trkpt lat="47.24181" lon="4.96584">
        <ele>326.87841796875</ele>
        <time>2020-01-16T09:05:17 0100</time>
      </trkpt>
      <trkpt lat="47.24183" lon="4.96579">
        <ele>327.36422729492</ele>
        <time>2020-01-16T09:05:21 0100</time>
      </trkpt>
      <trkpt lat="47.24185" lon="4.96573">
        <ele>327.76681518555</ele>
        <time>2020-01-16T09:05:25 0100</time>
      </trkpt>
      <trkpt lat="47.24186" lon="4.96567">
        <ele>328.13140869141</ele>
        <time>2020-01-16T09:05:29 0100</time>
      </trkpt>
      <trkpt lat="47.24187" lon="4.96563">
        <ele>328.52365112305</ele>
        <time>2020-01-16T09:05:33 0100</time>
      </trkpt>
      <trkpt lat="47.24187" lon="4.96557">
        <ele>328.92395019531</ele>
        <time>2020-01-16T09:05:37 0100</time>
      </trkpt>
      <trkpt lat="47.24187" lon="4.96552">
        <ele>329.3313293457</ele>
        <time>2020-01-16T09:05:41 0100</time>
      </trkpt>
      <trkpt lat="47.24188" lon="4.96548">
        <ele>329.73468017578</ele>
        <time>2020-01-16T09:05:45 0100</time>
      </trkpt>
      <trkpt lat="47.24188" lon="4.96544">
        <ele>330.15951538086</ele>
        <time>2020-01-16T09:05:49 0100</time>
      </trkpt>
      <trkpt lat="47.2419" lon="4.96539">
        <ele>330.58801269531</ele>
        <time>2020-01-16T09:05:53 0100</time>
      </trkpt>
      <trkpt lat="47.2419" lon="4.96534">
        <ele>331.03866577148</ele>
        <time>2020-01-16T09:05:57 0100</time>
      </trkpt>
      <trkpt lat="47.24191" lon="4.9653">
        <ele>331.57955932617</ele>
        <time>2020-01-16T09:06:01 0100</time>
      </trkpt>
      <trkpt lat="47.24193" lon="4.96525">
        <ele>332.1650390625</ele>
        <time>2020-01-16T09:06:05 0100</time>
      </trkpt>
      <trkpt lat="47.24194" lon="4.96519">
        <ele>332.69873046875</ele>
        <time>2020-01-16T09:06:09 0100</time>
      </trkpt>
      <trkpt lat="47.24195" lon="4.96517">
        <ele>333.19046020508</ele>
        <time>2020-01-16T09:06:13 0100</time>
      </trkpt>
      <trkpt lat="47.24196" lon="4.96513">
        <ele>333.64096069336</ele>
        <time>2020-01-16T09:06:17 0100</time>
      </trkpt>
      <trkpt lat="47.24198" lon="4.96506">
        <ele>334.03350830078</ele>
        <time>2020-01-16T09:06:21 0100</time>
      </trkpt>
      <trkpt lat="47.242" lon="4.96502">
        <ele>334.36172485352</ele>
        <time>2020-01-16T09:06:25 0100</time>
      </trkpt>
      <trkpt lat="47.24202" lon="4.96499">
        <ele>334.75625610352</ele>
        <time>2020-01-16T09:06:29 0100</time>
      </trkpt>
      <trkpt lat="47.24203" lon="4.96496">
        <ele>335.24942016602</ele>
        <time>2020-01-16T09:06:33 0100</time>
      </trkpt>
      <trkpt lat="47.24204" lon="4.96494">
        <ele>335.78088378906</ele>
        <time>2020-01-16T09:06:37 0100</time>
      </trkpt>
      <trkpt lat="47.24204" lon="4.96493">
        <ele>336.08810424805</ele>
        <time>2020-01-16T09:06:41 0100</time>
      </trkpt>
      <trkpt lat="47.24204" lon="4.96493">
        <ele>336.1496887207</ele>
        <time>2020-01-16T09:06:45 0100</time>
      </trkpt>
      <trkpt lat="47.24204" lon="4.96493">
        <ele>336.21182250977</ele>
        <time>2020-01-16T09:06:49 0100</time>
      </trkpt>
      <trkpt lat="47.24205" lon="4.96492">
        <ele>336.7138671875</ele>
        <time>2020-01-16T09:06:53 0100</time>
      </trkpt>
      <trkpt lat="47.24206" lon="4.9649">
        <ele>337.31469726562</ele>
        <time>2020-01-16T09:06:57 0100</time>
      </trkpt>
      <trkpt lat="47.24208" lon="4.96488">
        <ele>337.87673950195</ele>
        <time>2020-01-16T09:07:01 0100</time>
      </trkpt>
      <trkpt lat="47.24211" lon="4.96484">
        <ele>338.3127746582</ele>
        <time>2020-01-16T09:07:05 0100</time>
      </trkpt>
      <trkpt lat="47.24213" lon="4.9648">
        <ele>338.59790039062</ele>
        <time>2020-01-16T09:07:09 0100</time>
      </trkpt>
      <trkpt lat="47.24214" lon="4.96481">
        <ele>338.96249389648</ele>
        <time>2020-01-16T09:07:13 0100</time>
      </trkpt>
      <trkpt lat="47.24216" lon="4.9648">
        <ele>339.58624267578</ele>
        <time>2020-01-16T09:07:17 0100</time>
      </trkpt>
      <trkpt lat="47.24218" lon="4.96479">
        <ele>340.04696655273</ele>
        <time>2020-01-16T09:07:21 0100</time>
      </trkpt>
      <trkpt lat="47.2422" lon="4.96478">
        <ele>340.69897460938</ele>
        <time>2020-01-16T09:07:25 0100</time>
      </trkpt>
      <trkpt lat="47.24223" lon="4.96474">
        <ele>341.38952636719</ele>
        <time>2020-01-16T09:07:29 0100</time>
      </trkpt>
      <trkpt lat="47.24225" lon="4.96472">
        <ele>342.02624511719</ele>
        <time>2020-01-16T09:07:33 0100</time>
      </trkpt>
      <trkpt lat="47.24227" lon="4.96471">
        <ele>342.50372314453</ele>
        <time>2020-01-16T09:07:37 0100</time>
      </trkpt>
      <trkpt lat="47.24227" lon="4.96471">
        <ele>342.71743774414</ele>
        <time>2020-01-16T09:07:41 0100</time>
      </trkpt>
      <trkpt lat="47.24227" lon="4.9647">
        <ele>342.93161010742</ele>
        <time>2020-01-16T09:07:45 0100</time>
      </trkpt>
      <trkpt lat="47.24227" lon="4.9647">
        <ele>343.15286254883</ele>
        <time>2020-01-16T09:07:49 0100</time>
      </trkpt>
      <trkpt lat="47.2423" lon="4.96467">
        <ele>343.84375</ele>
        <time>2020-01-16T09:07:53 0100</time>
      </trkpt>
      <trkpt lat="47.24232" lon="4.96466">
        <ele>344.47033691406</ele>
        <time>2020-01-16T09:07:57 0100</time>
      </trkpt>
      <trkpt lat="47.24234" lon="4.96465">
        <ele>345.07244873047</ele>
        <time>2020-01-16T09:08:01 0100</time>
      </trkpt>
      <trkpt lat="47.24236" lon="4.96462">
        <ele>345.66845703125</ele>
        <time>2020-01-16T09:08:05 0100</time>
      </trkpt>
      <trkpt lat="47.2424" lon="4.96459">
        <ele>346.27578735352</ele>
        <time>2020-01-16T09:08:09 0100</time>
      </trkpt>
      <trkpt lat="47.24242" lon="4.96458">
        <ele>346.82257080078</ele>
        <time>2020-01-16T09:08:13 0100</time>
      </trkpt>
      <trkpt lat="47.24246" lon="4.96454">
        <ele>347.29138183594</ele>
        <time>2020-01-16T09:08:17 0100</time>
      </trkpt>
      <trkpt lat="47.24248" lon="4.96452">
        <ele>347.68032836914</ele>
        <time>2020-01-16T09:08:21 0100</time>
      </trkpt>
      <trkpt lat="47.2425" lon="4.96447">
        <ele>348.14685058594</ele>
        <time>2020-01-16T09:08:25 0100</time>
      </trkpt>
      <trkpt lat="47.24252" lon="4.96447">
        <ele>348.64334106445</ele>
        <time>2020-01-16T09:08:29 0100</time>
      </trkpt>
      <trkpt lat="47.24256" lon="4.96445">
        <ele>349.06753540039</ele>
        <time>2020-01-16T09:08:33 0100</time>
      </trkpt>
      <trkpt lat="47.24258" lon="4.96444">
        <ele>349.42395019531</ele>
        <time>2020-01-16T09:08:37 0100</time>
      </trkpt>
      <trkpt lat="47.2426" lon="4.96442">
        <ele>349.88110351562</ele>
        <time>2020-01-16T09:08:41 0100</time>
      </trkpt>
      <trkpt lat="47.24262" lon="4.9644">
        <ele>350.43997192383</ele>
        <time>2020-01-16T09:08:45 0100</time>
      </trkpt>
      <trkpt lat="47.24264" lon="4.96438">
        <ele>350.91931152344</ele>
        <time>2020-01-16T09:08:49 0100</time>
      </trkpt>
      <trkpt lat="47.24266" lon="4.96437">
        <ele>351.47647094727</ele>
        <time>2020-01-16T09:08:52 0100</time>
      </trkpt>
      <trkpt lat="47.2427" lon="4.96436">
        <ele>352.03067016602</ele>
        <time>2020-01-16T09:08:56 0100</time>
      </trkpt>
      <trkpt lat="47.24271" lon="4.96434">
        <ele>352.55963134766</ele>
        <time>2020-01-16T09:09:00 0100</time>
      </trkpt>
      <trkpt lat="47.24274" lon="4.96431">
        <ele>353.064453125</ele>
        <time>2020-01-16T09:09:04 0100</time>
      </trkpt>
      <trkpt lat="47.24276" lon="4.96428">
        <ele>353.47265625</ele>
        <time>2020-01-16T09:09:08 0100</time>
      </trkpt>
      <trkpt lat="47.24278" lon="4.96425">
        <ele>353.85592651367</ele>
        <time>2020-01-16T09:09:12 0100</time>
      </trkpt>
      <trkpt lat="47.24279" lon="4.96423">
        <ele>354.27423095703</ele>
        <time>2020-01-16T09:09:16 0100</time>
      </trkpt>
      <trkpt lat="47.24282" lon="4.96422">
        <ele>354.8053894043</ele>
        <time>2020-01-16T09:09:20 0100</time>
      </trkpt>
      <trkpt lat="47.24285" lon="4.96418">
        <ele>355.29229736328</ele>
        <time>2020-01-16T09:09:24 0100</time>
      </trkpt>
      <trkpt lat="47.24287" lon="4.96416">
        <ele>355.74591064453</ele>
        <time>2020-01-16T09:09:28 0100</time>
      </trkpt>
      <trkpt lat="47.2429" lon="4.96413">
        <ele>356.13806152344</ele>
        <time>2020-01-16T09:09:32 0100</time>
      </trkpt>
      <trkpt lat="47.24292" lon="4.9641">
        <ele>356.46453857422</ele>
        <time>2020-01-16T09:09:36 0100</time>
      </trkpt>
      <trkpt lat="47.24294" lon="4.96408">
        <ele>356.76605224609</ele>
        <time>2020-01-16T09:09:40 0100</time>
      </trkpt>
      <trkpt lat="47.24296" lon="4.96407">
        <ele>357.18615722656</ele>
        <time>2020-01-16T09:09:44 0100</time>
      </trkpt>
      <trkpt lat="47.24298" lon="4.96405">
        <ele>357.70797729492</ele>
        <time>2020-01-16T09:09:48 0100</time>
      </trkpt>
      <trkpt lat="47.243" lon="4.96403">
        <ele>358.24423217773</ele>
        <time>2020-01-16T09:09:52 0100</time>
      </trkpt>
      <trkpt lat="47.24301" lon="4.96401">
        <ele>358.77456665039</ele>
        <time>2020-01-16T09:09:56 0100</time>
      </trkpt>
      <trkpt lat="47.24303" lon="4.96397">
        <ele>359.28698730469</ele>
        <time>2020-01-16T09:10:00 0100</time>
      </trkpt>
      <trkpt lat="47.24304" lon="4.96393">
        <ele>359.74688720703</ele>
        <time>2020-01-16T09:10:04 0100</time>
      </trkpt>
      <trkpt lat="47.24305" lon="4.9639">
        <ele>360.19219970703</ele>
        <time>2020-01-16T09:10:08 0100</time>
      </trkpt>
      <trkpt lat="47.24307" lon="4.96388">
        <ele>360.67764282227</ele>
        <time>2020-01-16T09:10:12 0100</time>
      </trkpt>
      <trkpt lat="47.24306" lon="4.96387">
        <ele>361.30599975586</ele>
        <time>2020-01-16T09:10:16 0100</time>
      </trkpt>
      <trkpt lat="47.24306" lon="4.96383">
        <ele>361.94769287109</ele>
        <time>2020-01-16T09:10:20 0100</time>
      </trkpt>
      <trkpt lat="47.24306" lon="4.96382">
        <ele>362.60186767578</ele>
        <time>2020-01-16T09:10:24 0100</time>
      </trkpt>
      <trkpt lat="47.24307" lon="4.96377">
        <ele>363.23593139648</ele>
        <time>2020-01-16T09:10:28 0100</time>
      </trkpt>
      <trkpt lat="47.24307" lon="4.96368">
        <ele>363.40393066406</ele>
        <time>2020-01-16T09:10:32 0100</time>
      </trkpt>
      <trkpt lat="47.24307" lon="4.96367">
        <ele>363.46920776367</ele>
        <time>2020-01-16T09:10:36 0100</time>
      </trkpt>
      <trkpt lat="47.24307" lon="4.96367">
        <ele>363.51361083984</ele>
        <time>2020-01-16T09:10:40 0100</time>
      </trkpt>
      <trkpt lat="47.24307" lon="4.96366">
        <ele>363.55102539062</ele>
        <time>2020-01-16T09:10:44 0100</time>
      </trkpt>
      <trkpt lat="47.24307" lon="4.96366">
        <ele>363.63415527344</ele>
        <time>2020-01-16T09:10:48 0100</time>
      </trkpt>
      <trkpt lat="47.24307" lon="4.96365">
        <ele>363.74133300781</ele>
        <time>2020-01-16T09:10:52 0100</time>
      </trkpt>
      <trkpt lat="47.24307" lon="4.96364">
        <ele>363.87100219727</ele>
        <time>2020-01-16T09:10:56 0100</time>
      </trkpt>
      <trkpt lat="47.24307" lon="4.96363">
        <ele>364.01516723633</ele>
        <time>2020-01-16T09:11:00 0100</time>
      </trkpt>
      <trkpt lat="47.24307" lon="4.96362">
        <ele>364.16638183594</ele>
        <time>2020-01-16T09:11:04 0100</time>
      </trkpt>
      <trkpt lat="47.24307" lon="4.96361">
        <ele>364.31539916992</ele>
        <time>2020-01-16T09:11:08 0100</time>
      </trkpt>
      <trkpt lat="47.24307" lon="4.9636">
        <ele>364.45843505859</ele>
        <time>2020-01-16T09:11:12 0100</time>
      </trkpt>
      <trkpt lat="47.24307" lon="4.96358">
        <ele>364.62509155273</ele>
        <time>2020-01-16T09:11:16 0100</time>
      </trkpt>
      <trkpt lat="47.24307" lon="4.96358">
        <ele>364.83645629883</ele>
        <time>2020-01-16T09:11:20 0100</time>
      </trkpt>
      <trkpt lat="47.24307" lon="4.96357">
        <ele>365.07025146484</ele>
        <time>2020-01-16T09:11:24 0100</time>
      </trkpt>
      <trkpt lat="47.24307" lon="4.96357">
        <ele>365.30520629883</ele>
        <time>2020-01-16T09:11:28 0100</time>
      </trkpt>
      <trkpt lat="47.24307" lon="4.96356">
        <ele>365.53579711914</ele>
        <time>2020-01-16T09:11:32 0100</time>
      </trkpt>
      <trkpt lat="47.24307" lon="4.96356">
        <ele>365.75329589844</ele>
        <time>2020-01-16T09:11:36 0100</time>
      </trkpt>
      <trkpt lat="47.24307" lon="4.96355">
        <ele>365.95758056641</ele>
        <time>2020-01-16T09:11:40 0100</time>
      </trkpt>
      <trkpt lat="47.24307" lon="4.96355">
        <ele>366.15237426758</ele>
        <time>2020-01-16T09:11:44 0100</time>
      </trkpt>
      <trkpt lat="47.24307" lon="4.96355">
        <ele>366.35681152344</ele>
        <time>2020-01-16T09:11:48 0100</time>
      </trkpt>
      <trkpt lat="47.24307" lon="4.96354">
        <ele>366.58508300781</ele>
        <time>2020-01-16T09:11:52 0100</time>
      </trkpt>
      <trkpt lat="47.24307" lon="4.96354">
        <ele>366.82278442383</ele>
        <time>2020-01-16T09:11:56 0100</time>
      </trkpt>
      <trkpt lat="47.24307" lon="4.96354">
        <ele>366.9951171875</ele>
        <time>2020-01-16T09:12:00 0100</time>
      </trkpt>
      <trkpt lat="47.24308" lon="4.96354">
        <ele>367.14736938477</ele>
        <time>2020-01-16T09:12:04 0100</time>
      </trkpt>
      <trkpt lat="47.24308" lon="4.96354">
        <ele>367.32397460938</ele>
        <time>2020-01-16T09:12:08 0100</time>
      </trkpt>
      <trkpt lat="47.24308" lon="4.96354">
        <ele>367.51824951172</ele>
        <time>2020-01-16T09:12:12 0100</time>
      </trkpt>
      <trkpt lat="47.24308" lon="4.96354">
        <ele>367.73257446289</ele>
        <time>2020-01-16T09:12:16 0100</time>
      </trkpt>
      <trkpt lat="47.24308" lon="4.96354">
        <ele>367.95721435547</ele>
        <time>2020-01-16T09:12:20 0100</time>
      </trkpt>
      <trkpt lat="47.24308" lon="4.96355">
        <ele>368.0954284668</ele>
        <time>2020-01-16T09:12:24 0100</time>
      </trkpt>
      <trkpt lat="47.24308" lon="4.96355">
        <ele>368.14166259766</ele>
        <time>2020-01-16T09:12:28 0100</time>
      </trkpt>
      <trkpt lat="47.24308" lon="4.96355">
        <ele>368.13201904297</ele>
        <time>2020-01-16T09:12:32 0100</time>
      </trkpt>
      <trkpt lat="47.24307" lon="4.96355">
        <ele>368.08654785156</ele>
        <time>2020-01-16T09:12:36 0100</time>
      </trkpt>
      <trkpt lat="47.24307" lon="4.96355">
        <ele>368.02551269531</ele>
        <time>2020-01-16T09:12:40 0100</time>
      </trkpt>
      <trkpt lat="47.24307" lon="4.96356">
        <ele>368.00961303711</ele>
        <time>2020-01-16T09:12:44 0100</time>
      </trkpt>
      <trkpt lat="47.24308" lon="4.96356">
        <ele>367.96664428711</ele>
        <time>2020-01-16T09:12:48 0100</time>
      </trkpt>
      <trkpt lat="47.24307" lon="4.96356">
        <ele>367.92037963867</ele>
        <time>2020-01-16T09:12:52 0100</time>
      </trkpt>
      <trkpt lat="47.24307" lon="4.96356">
        <ele>367.89349365234</ele>
        <time>2020-01-16T09:12:56 0100</time>
      </trkpt>
      <trkpt lat="47.24307" lon="4.96355">
        <ele>367.85034179688</ele>
        <time>2020-01-16T09:13:00 0100</time>
      </trkpt>
      <trkpt lat="47.24307" lon="4.96355">
        <ele>367.84814453125</ele>
        <time>2020-01-16T09:13:04 0100</time>
      </trkpt>
      <trkpt lat="47.24307" lon="4.96354">
        <ele>367.84970092773</ele>
        <time>2020-01-16T09:13:08 0100</time>
      </trkpt>
      <trkpt lat="47.24307" lon="4.96354">
        <ele>367.89401245117</ele>
        <time>2020-01-16T09:13:12 0100</time>
      </trkpt>
      <trkpt lat="47.24307" lon="4.96354">
        <ele>367.98556518555</ele>
        <time>2020-01-16T09:13:16 0100</time>
      </trkpt>
      <trkpt lat="47.24307" lon="4.96354">
        <ele>368.09442138672</ele>
        <time>2020-01-16T09:13:20 0100</time>
      </trkpt>
      <trkpt lat="47.24308" lon="4.96355">
        <ele>368.44940185547</ele>
        <time>2020-01-16T09:13:24 0100</time>
      </trkpt>
      <trkpt lat="47.24308" lon="4.96362">
        <ele>369.1672668457</ele>
        <time>2020-01-16T09:13:28 0100</time>
      </trkpt>
      <trkpt lat="47.24308" lon="4.96364">
        <ele>369.50317382812</ele>
        <time>2020-01-16T09:13:32 0100</time>
      </trkpt>
      <trkpt lat="47.24308" lon="4.96364">
        <ele>369.68673706055</ele>
        <time>2020-01-16T09:13:36 0100</time>
      </trkpt>
      <trkpt lat="47.24306" lon="4.96361">
        <ele>369.94515991211</ele>
        <time>2020-01-16T09:13:40 0100</time>
      </trkpt>
      <trkpt lat="47.24304" lon="4.96357">
        <ele>370.23187255859</ele>
        <time>2020-01-16T09:13:44 0100</time>
      </trkpt>
      <trkpt lat="47.24301" lon="4.96353">
        <ele>370.57846069336</ele>
        <time>2020-01-16T09:13:48 0100</time>
      </trkpt>
      <trkpt lat="47.243" lon="4.96352">
        <ele>370.93151855469</ele>
        <time>2020-01-16T09:13:52 0100</time>
      </trkpt>
      <trkpt lat="47.24298" lon="4.9635">
        <ele>371.20944213867</ele>
        <time>2020-01-16T09:13:56 0100</time>
      </trkpt>
      <trkpt lat="47.24297" lon="4.96348">
        <ele>371.35650634766</ele>
        <time>2020-01-16T09:14:00 0100</time>
      </trkpt>
      <trkpt lat="47.24297" lon="4.96347">
        <ele>371.42721557617</ele>
        <time>2020-01-16T09:14:04 0100</time>
      </trkpt>
      <trkpt lat="47.24297" lon="4.96345">
        <ele>371.58316040039</ele>
        <time>2020-01-16T09:14:08 0100</time>
      </trkpt>
      <trkpt lat="47.24298" lon="4.96344">
        <ele>371.97769165039</ele>
        <time>2020-01-16T09:14:12 0100</time>
      </trkpt>
      <trkpt lat="47.243" lon="4.96338">
        <ele>372.51147460938</ele>
        <time>2020-01-16T09:14:16 0100</time>
      </trkpt>
      <trkpt lat="47.24302" lon="4.96336">
        <ele>372.68991088867</ele>
        <time>2020-01-16T09:14:20 0100</time>
      </trkpt>
      <trkpt lat="47.24304" lon="4.96332">
        <ele>372.92300415039</ele>
        <time>2020-01-16T09:14:24 0100</time>
      </trkpt>
      <trkpt lat="47.24307" lon="4.9633">
        <ele>373.14172363281</ele>
        <time>2020-01-16T09:14:28 0100</time>
      </trkpt>
      <trkpt lat="47.24311" lon="4.96328">
        <ele>373.29364013672</ele>
        <time>2020-01-16T09:14:32 0100</time>
      </trkpt>
      <trkpt lat="47.24313" lon="4.96326">
        <ele>373.4612121582</ele>
        <time>2020-01-16T09:14:36 0100</time>
      </trkpt>
      <trkpt lat="47.24317" lon="4.96321">
        <ele>373.44290161133</ele>
        <time>2020-01-16T09:14:40 0100</time>
      </trkpt>
      <trkpt lat="47.24319" lon="4.96317">
        <ele>373.40161132812</ele>
        <time>2020-01-16T09:14:44 0100</time>
      </trkpt>
      <trkpt lat="47.24322" lon="4.96317">
        <ele>373.56323242188</ele>
        <time>2020-01-16T09:14:48 0100</time>
      </trkpt>
      <trkpt lat="47.24325" lon="4.9632">
        <ele>373.60488891602</ele>
        <time>2020-01-16T09:14:52 0100</time>
      </trkpt>
      <trkpt lat="47.2433" lon="4.9632">
        <ele>373.54248046875</ele>
        <time>2020-01-16T09:14:56 0100</time>
      </trkpt>
      <trkpt lat="47.24334" lon="4.96325">
        <ele>373.40798950195</ele>
        <time>2020-01-16T09:15:00 0100</time>
      </trkpt>
      <trkpt lat="47.24338" lon="4.96326">
        <ele>373.19735717773</ele>
        <time>2020-01-16T09:15:04 0100</time>
      </trkpt>
      <trkpt lat="47.24341" lon="4.96326">
        <ele>372.91973876953</ele>
        <time>2020-01-16T09:15:08 0100</time>
      </trkpt>
      <trkpt lat="47.24346" lon="4.96329">
        <ele>372.806640625</ele>
        <time>2020-01-16T09:15:12 0100</time>
      </trkpt>
      <trkpt lat="47.24352" lon="4.9633">
        <ele>372.88186645508</ele>
        <time>2020-01-16T09:15:16 0100</time>
      </trkpt>
      <trkpt lat="47.24355" lon="4.96334">
        <ele>373.02301025391</ele>
        <time>2020-01-16T09:15:20 0100</time>
      </trkpt>
      <trkpt lat="47.24358" lon="4.96335">
        <ele>373.15924072266</ele>
        <time>2020-01-16T09:15:24 0100</time>
      </trkpt>
      <trkpt lat="47.24361" lon="4.96334">
        <ele>373.18014526367</ele>
        <time>2020-01-16T09:15:28 0100</time>
      </trkpt>
      <trkpt lat="47.24364" lon="4.96335">
        <ele>373.11804199219</ele>
        <time>2020-01-16T09:15:32 0100</time>
      </trkpt>
      <trkpt lat="47.24365" lon="4.96337">
        <ele>372.92367553711</ele>
        <time>2020-01-16T09:15:36 0100</time>
      </trkpt>
      <trkpt lat="47.2437" lon="4.96339">
        <ele>372.71936035156</ele>
        <time>2020-01-16T09:15:40 0100</time>
      </trkpt>
      <trkpt lat="47.24376" lon="4.96338">
        <ele>372.4172668457</ele>
        <time>2020-01-16T09:15:44 0100</time>
      </trkpt>
      <trkpt lat="47.24376" lon="4.9634">
        <ele>372.18728637695</ele>
        <time>2020-01-16T09:15:48 0100</time>
      </trkpt>
      <trkpt lat="47.24377" lon="4.96341">
        <ele>372.19000244141</ele>
        <time>2020-01-16T09:15:52 0100</time>
      </trkpt>
      <trkpt lat="47.24383" lon="4.96334">
        <ele>372.12088012695</ele>
        <time>2020-01-16T09:15:56 0100</time>
      </trkpt>
      <trkpt lat="47.24387" lon="4.96332">
        <ele>371.79779052734</ele>
        <time>2020-01-16T09:16:00 0100</time>
      </trkpt>
      <trkpt lat="47.24388" lon="4.96333">
        <ele>371.71060180664</ele>
        <time>2020-01-16T09:16:04 0100</time>
      </trkpt>
      <trkpt lat="47.2439" lon="4.96333">
        <ele>371.6887512207</ele>
        <time>2020-01-16T09:16:08 0100</time>
      </trkpt>
      <trkpt lat="47.24392" lon="4.96332">
        <ele>371.72467041016</ele>
        <time>2020-01-16T09:16:12 0100</time>
      </trkpt>
      <trkpt lat="47.24398" lon="4.96334">
        <ele>371.65158081055</ele>
        <time>2020-01-16T09:16:16 0100</time>
      </trkpt>
      <trkpt lat="47.24407" lon="4.9634">
        <ele>371.90585327148</ele>
        <time>2020-01-16T09:16:20 0100</time>
      </trkpt>
      <trkpt lat="47.24412" lon="4.96343">
        <ele>372.20013427734</ele>
        <time>2020-01-16T09:16:24 0100</time>
      </trkpt>
      <trkpt lat="47.24415" lon="4.96346">
        <ele>372.58782958984</ele>
        <time>2020-01-16T09:16:28 0100</time>
      </trkpt>
      <trkpt lat="47.24417" lon="4.96344">
        <ele>372.95111083984</ele>
        <time>2020-01-16T09:16:32 0100</time>
      </trkpt>
      <trkpt lat="47.24419" lon="4.96344">
        <ele>373.09185791016</ele>
        <time>2020-01-16T09:16:36 0100</time>
      </trkpt>
      <trkpt lat="47.24422" lon="4.96343">
        <ele>373.06118774414</ele>
        <time>2020-01-16T09:16:40 0100</time>
      </trkpt>
      <trkpt lat="47.24427" lon="4.96341">
        <ele>372.91787719727</ele>
        <time>2020-01-16T09:16:44 0100</time>
      </trkpt>
      <trkpt lat="47.2443" lon="4.9634">
        <ele>372.87997436523</ele>
        <time>2020-01-16T09:16:48 0100</time>
      </trkpt>
      <trkpt lat="47.24434" lon="4.96341">
        <ele>372.796875</ele>
        <time>2020-01-16T09:16:52 0100</time>
      </trkpt>
      <trkpt lat="47.24437" lon="4.9634">
        <ele>372.72113037109</ele>
        <time>2020-01-16T09:16:56 0100</time>
      </trkpt>
      <trkpt lat="47.2444" lon="4.96336">
        <ele>372.71856689453</ele>
        <time>2020-01-16T09:17:00 0100</time>
      </trkpt>
      <trkpt lat="47.24442" lon="4.96335">
        <ele>372.76223754883</ele>
        <time>2020-01-16T09:17:04 0100</time>
      </trkpt>
      <trkpt lat="47.24447" lon="4.96331">
        <ele>372.9035949707</ele>
        <time>2020-01-16T09:17:08 0100</time>
      </trkpt>
      <trkpt lat="47.2445" lon="4.96327">
        <ele>372.87753295898</ele>
        <time>2020-01-16T09:17:12 0100</time>
      </trkpt>
      <trkpt lat="47.24453" lon="4.96325">
        <ele>372.81774902344</ele>
        <time>2020-01-16T09:17:16 0100</time>
      </trkpt>
      <trkpt lat="47.24453" lon="4.96326">
        <ele>372.60723876953</ele>
        <time>2020-01-16T09:17:20 0100</time>
      </trkpt>
      <trkpt lat="47.24453" lon="4.96327">
        <ele>372.462890625</ele>
        <time>2020-01-16T09:17:24 0100</time>
      </trkpt>
      <trkpt lat="47.24453" lon="4.96328">
        <ele>372.4365234375</ele>
        <time>2020-01-16T09:17:28 0100</time>
      </trkpt>
      <trkpt lat="47.24453" lon="4.96328">
        <ele>372.45928955078</ele>
        <time>2020-01-16T09:17:32 0100</time>
      </trkpt>
      <trkpt lat="47.24453" lon="4.96329">
        <ele>372.49084472656</ele>
        <time>2020-01-16T09:17:36 0100</time>
      </trkpt>
      <trkpt lat="47.24457" lon="4.96332">
        <ele>372.36929321289</ele>
        <time>2020-01-16T09:17:40 0100</time>
      </trkpt>
      <trkpt lat="47.24459" lon="4.96334">
        <ele>371.74722290039</ele>
        <time>2020-01-16T09:17:44 0100</time>
      </trkpt>
      <trkpt lat="47.24459" lon="4.96335">
        <ele>371.68814086914</ele>
        <time>2020-01-16T09:17:48 0100</time>
      </trkpt>
      <trkpt lat="47.24458" lon="4.96336">
        <ele>371.65393066406</ele>
        <time>2020-01-16T09:17:52 0100</time>
      </trkpt>
      <trkpt lat="47.2446" lon="4.96342">
        <ele>371.49185180664</ele>
        <time>2020-01-16T09:17:56 0100</time>
      </trkpt>
      <trkpt lat="47.2446" lon="4.96343">
        <ele>371.49401855469</ele>
        <time>2020-01-16T09:18:00 0100</time>
      </trkpt>
      <trkpt lat="47.2446" lon="4.96343">
        <ele>371.49682617188</ele>
        <time>2020-01-16T09:18:04 0100</time>
      </trkpt>
      <trkpt lat="47.2446" lon="4.96344">
        <ele>371.48431396484</ele>
        <time>2020-01-16T09:18:08 0100</time>
      </trkpt>
      <trkpt lat="47.24461" lon="4.96344">
        <ele>371.49075317383</ele>
        <time>2020-01-16T09:18:12 0100</time>
      </trkpt>
      <trkpt lat="47.24461" lon="4.96345">
        <ele>371.50717163086</ele>
        <time>2020-01-16T09:18:16 0100</time>
      </trkpt>
      <trkpt lat="47.24461" lon="4.96346">
        <ele>371.58850097656</ele>
        <time>2020-01-16T09:18:20 0100</time>
      </trkpt>
      <trkpt lat="47.2446" lon="4.96346">
        <ele>371.58770751953</ele>
        <time>2020-01-16T09:18:24 0100</time>
      </trkpt>
      <trkpt lat="47.2446" lon="4.96346">
        <ele>371.56982421875</ele>
        <time>2020-01-16T09:18:28 0100</time>
      </trkpt>
      <trkpt lat="47.24461" lon="4.9635">
        <ele>371.53607177734</ele>
        <time>2020-01-16T09:18:32 0100</time>
      </trkpt>
      <trkpt lat="47.24462" lon="4.9635">
        <ele>371.55508422852</ele>
        <time>2020-01-16T09:18:36 0100</time>
      </trkpt>
      <trkpt lat="47.24462" lon="4.96349">
        <ele>371.58154296875</ele>
        <time>2020-01-16T09:18:40 0100</time>
      </trkpt>
      <trkpt lat="47.24462" lon="4.96348">
        <ele>371.61462402344</ele>
        <time>2020-01-16T09:18:44 0100</time>
      </trkpt>
      <trkpt lat="47.24463" lon="4.96348">
        <ele>371.68817138672</ele>
        <time>2020-01-16T09:18:48 0100</time>
      </trkpt>
      <trkpt lat="47.24464" lon="4.96348">
        <ele>371.78811645508</ele>
        <time>2020-01-16T09:18:52 0100</time>
      </trkpt>
      <trkpt lat="47.24463" lon="4.96347">
        <ele>371.88983154297</ele>
        <time>2020-01-16T09:18:56 0100</time>
      </trkpt>
      <trkpt lat="47.24462" lon="4.96345">
        <ele>371.96871948242</ele>
        <time>2020-01-16T09:19:00 0100</time>
      </trkpt>
      <trkpt lat="47.24461" lon="4.96344">
        <ele>371.95770263672</ele>
        <time>2020-01-16T09:19:04 0100</time>
      </trkpt>
      <trkpt lat="47.2446" lon="4.96344">
        <ele>371.91278076172</ele>
        <time>2020-01-16T09:19:08 0100</time>
      </trkpt>
      <trkpt lat="47.2446" lon="4.96343">
        <ele>371.88464355469</ele>
        <time>2020-01-16T09:19:12 0100</time>
      </trkpt>
      <trkpt lat="47.2446" lon="4.96343">
        <ele>371.89501953125</ele>
        <time>2020-01-16T09:19:16 0100</time>
      </trkpt>
      <trkpt lat="47.24461" lon="4.96343">
        <ele>371.93780517578</ele>
        <time>2020-01-16T09:19:20 0100</time>
      </trkpt>
      <trkpt lat="47.24461" lon="4.96343">
        <ele>371.97842407227</ele>
        <time>2020-01-16T09:19:24 0100</time>
      </trkpt>
      <trkpt lat="47.24462" lon="4.96343">
        <ele>371.97158813477</ele>
        <time>2020-01-16T09:19:28 0100</time>
      </trkpt>
      <trkpt lat="47.24462" lon="4.96342">
        <ele>371.88198852539</ele>
        <time>2020-01-16T09:19:32 0100</time>
      </trkpt>
      <trkpt lat="47.24462" lon="4.96342">
        <ele>371.74334716797</ele>
        <time>2020-01-16T09:19:36 0100</time>
      </trkpt>
      <trkpt lat="47.24461" lon="4.96341">
        <ele>371.61859130859</ele>
        <time>2020-01-16T09:19:40 0100</time>
      </trkpt>
      <trkpt lat="47.24461" lon="4.96339">
        <ele>371.54806518555</ele>
        <time>2020-01-16T09:19:44 0100</time>
      </trkpt>
      <trkpt lat="47.24461" lon="4.96339">
        <ele>371.52960205078</ele>
        <time>2020-01-16T09:19:48 0100</time>
      </trkpt>
      <trkpt lat="47.24461" lon="4.96338">
        <ele>371.54681396484</ele>
        <time>2020-01-16T09:19:52 0100</time>
      </trkpt>
      <trkpt lat="47.24461" lon="4.96338">
        <ele>371.5954284668</ele>
        <time>2020-01-16T09:19:56 0100</time>
      </trkpt>
      <trkpt lat="47.24461" lon="4.96337">
        <ele>371.67102050781</ele>
        <time>2020-01-16T09:20:00 0100</time>
      </trkpt>
      <trkpt lat="47.24461" lon="4.96336">
        <ele>371.75335693359</ele>
        <time>2020-01-16T09:20:04 0100</time>
      </trkpt>
      <trkpt lat="47.24461" lon="4.96336">
        <ele>371.83657836914</ele>
        <time>2020-01-16T09:20:08 0100</time>
      </trkpt>
      <trkpt lat="47.24462" lon="4.96338">
        <ele>372.35650634766</ele>
        <time>2020-01-16T09:20:12 0100</time>
      </trkpt>
      <trkpt lat="47.24461" lon="4.96338">
        <ele>372.39370727539</ele>
        <time>2020-01-16T09:20:16 0100</time>
      </trkpt>
      <trkpt lat="47.24461" lon="4.96338">
        <ele>372.46188354492</ele>
        <time>2020-01-16T09:20:20 0100</time>
      </trkpt>
      <trkpt lat="47.2446" lon="4.96337">
        <ele>372.52447509766</ele>
        <time>2020-01-16T09:20:24 0100</time>
      </trkpt>
      <trkpt lat="47.24461" lon="4.96336">
        <ele>372.52532958984</ele>
        <time>2020-01-16T09:20:28 0100</time>
      </trkpt>
      <trkpt lat="47.24463" lon="4.96335">
        <ele>372.52178955078</ele>
        <time>2020-01-16T09:20:32 0100</time>
      </trkpt>
      <trkpt lat="47.24465" lon="4.96331">
        <ele>372.52871704102</ele>
        <time>2020-01-16T09:20:36 0100</time>
      </trkpt>
      <trkpt lat="47.24465" lon="4.9633">
        <ele>372.58160400391</ele>
        <time>2020-01-16T09:20:40 0100</time>
      </trkpt>
      <trkpt lat="47.24467" lon="4.96326">
        <ele>372.60205078125</ele>
        <time>2020-01-16T09:20:44 0100</time>
      </trkpt>
      <trkpt lat="47.2447" lon="4.96324">
        <ele>372.55465698242</ele>
        <time>2020-01-16T09:20:48 0100</time>
      </trkpt>
      <trkpt lat="47.24471" lon="4.96322">
        <ele>372.43045043945</ele>
        <time>2020-01-16T09:20:52 0100</time>
      </trkpt>
      <trkpt lat="47.24475" lon="4.96321">
        <ele>371.82949829102</ele>
        <time>2020-01-16T09:20:56 0100</time>
      </trkpt>
      <trkpt lat="47.24476" lon="4.96319">
        <ele>371.19003295898</ele>
        <time>2020-01-16T09:21:00 0100</time>
      </trkpt>
      <trkpt lat="47.24477" lon="4.96317">
        <ele>370.65405273438</ele>
        <time>2020-01-16T09:21:04 0100</time>
      </trkpt>
      <trkpt lat="47.24478" lon="4.96315">
        <ele>370.55679321289</ele>
        <time>2020-01-16T09:21:08 0100</time>
      </trkpt>
      <trkpt lat="47.24482" lon="4.9631">
        <ele>369.92193603516</ele>
        <time>2020-01-16T09:21:12 0100</time>
      </trkpt>
      <trkpt lat="47.24485" lon="4.96306">
        <ele>369.54583740234</ele>
        <time>2020-01-16T09:21:16 0100</time>
      </trkpt>
      <trkpt lat="47.24486" lon="4.96304">
        <ele>369.25329589844</ele>
        <time>2020-01-16T09:21:20 0100</time>
      </trkpt>
      <trkpt lat="47.24487" lon="4.96304">
        <ele>369.22927856445</ele>
        <time>2020-01-16T09:21:24 0100</time>
      </trkpt>
      <trkpt lat="47.24488" lon="4.96302">
        <ele>369.25137329102</ele>
        <time>2020-01-16T09:21:28 0100</time>
      </trkpt>
      <trkpt lat="47.24493" lon="4.96292">
        <ele>369.03366088867</ele>
        <time>2020-01-16T09:21:32 0100</time>
      </trkpt>
      <trkpt lat="47.24494" lon="4.9629">
        <ele>368.96911621094</ele>
        <time>2020-01-16T09:21:36 0100</time>
      </trkpt>
      <trkpt lat="47.24494" lon="4.96289">
        <ele>368.85345458984</ele>
        <time>2020-01-16T09:21:41 0100</time>
      </trkpt>
      <trkpt lat="47.24494" lon="4.96289">
        <ele>368.42309570312</ele>
        <time>2020-01-16T09:21:45 0100</time>
      </trkpt>
      <trkpt lat="47.24495" lon="4.96289">
        <ele>368.33346557617</ele>
        <time>2020-01-16T09:21:49 0100</time>
      </trkpt>
      <trkpt lat="47.24495" lon="4.96289">
        <ele>368.26821899414</ele>
        <time>2020-01-16T09:21:53 0100</time>
      </trkpt>
      <trkpt lat="47.24495" lon="4.96289">
        <ele>368.2350769043</ele>
        <time>2020-01-16T09:21:57 0100</time>
      </trkpt>
      <trkpt lat="47.24496" lon="4.9629">
        <ele>368.24801635742</ele>
        <time>2020-01-16T09:22:01 0100</time>
      </trkpt>
      <trkpt lat="47.24496" lon="4.9629">
        <ele>368.30224609375</ele>
        <time>2020-01-16T09:22:05 0100</time>
      </trkpt>
      <trkpt lat="47.24496" lon="4.9629">
        <ele>368.38668823242</ele>
        <time>2020-01-16T09:22:09 0100</time>
      </trkpt>
      <trkpt lat="47.24496" lon="4.9629">
        <ele>368.4411315918</ele>
        <time>2020-01-16T09:22:13 0100</time>
      </trkpt>
      <trkpt lat="47.24497" lon="4.9629">
        <ele>368.41494750977</ele>
        <time>2020-01-16T09:22:17 0100</time>
      </trkpt>
      <trkpt lat="47.24497" lon="4.9629">
        <ele>368.29202270508</ele>
        <time>2020-01-16T09:22:21 0100</time>
      </trkpt>
      <trkpt lat="47.24503" lon="4.96289">
        <ele>367.6545715332</ele>
        <time>2020-01-16T09:22:25 0100</time>
      </trkpt>
      <trkpt lat="47.24503" lon="4.96288">
        <ele>367.46057128906</ele>
        <time>2020-01-16T09:22:29 0100</time>
      </trkpt>
      <trkpt lat="47.24504" lon="4.96287">
        <ele>367.30209350586</ele>
        <time>2020-01-16T09:22:33 0100</time>
      </trkpt>
      <trkpt lat="47.24504" lon="4.96287">
        <ele>367.16342163086</ele>
        <time>2020-01-16T09:22:37 0100</time>
      </trkpt>
      <trkpt lat="47.24505" lon="4.96286">
        <ele>367.00088500977</ele>
        <time>2020-01-16T09:22:41 0100</time>
      </trkpt>
      <trkpt lat="47.24507" lon="4.96284">
        <ele>366.42037963867</ele>
        <time>2020-01-16T09:22:45 0100</time>
      </trkpt>
      <trkpt lat="47.24508" lon="4.96284">
        <ele>365.93139648438</ele>
        <time>2020-01-16T09:22:49 0100</time>
      </trkpt>
      <trkpt lat="47.24509" lon="4.96285">
        <ele>365.81097412109</ele>
        <time>2020-01-16T09:22:53 0100</time>
      </trkpt>
      <trkpt lat="47.24509" lon="4.96286">
        <ele>365.71130371094</ele>
        <time>2020-01-16T09:22:57 0100</time>
      </trkpt>
      <trkpt lat="47.24508" lon="4.96286">
        <ele>365.65661621094</ele>
        <time>2020-01-16T09:23:01 0100</time>
      </trkpt>
      <trkpt lat="47.24508" lon="4.96285">
        <ele>365.65203857422</ele>
        <time>2020-01-16T09:23:05 0100</time>
      </trkpt>
      <trkpt lat="47.24508" lon="4.96284">
        <ele>365.6741027832</ele>
        <time>2020-01-16T09:23:09 0100</time>
      </trkpt>
      <trkpt lat="47.24508" lon="4.96283">
        <ele>365.71630859375</ele>
        <time>2020-01-16T09:23:13 0100</time>
      </trkpt>
      <trkpt lat="47.24508" lon="4.96283">
        <ele>365.78469848633</ele>
        <time>2020-01-16T09:23:17 0100</time>
      </trkpt>
      <trkpt lat="47.24508" lon="4.96282">
        <ele>365.87518310547</ele>
        <time>2020-01-16T09:23:21 0100</time>
      </trkpt>
      <trkpt lat="47.24509" lon="4.96282">
        <ele>365.97744750977</ele>
        <time>2020-01-16T09:23:25 0100</time>
      </trkpt>
      <trkpt lat="47.24509" lon="4.96283">
        <ele>366.09365844727</ele>
        <time>2020-01-16T09:23:29 0100</time>
      </trkpt>
      <trkpt lat="47.24509" lon="4.96283">
        <ele>366.21578979492</ele>
        <time>2020-01-16T09:23:33 0100</time>
      </trkpt>
      <trkpt lat="47.24508" lon="4.96283">
        <ele>366.30981445312</ele>
        <time>2020-01-16T09:23:37 0100</time>
      </trkpt>
      <trkpt lat="47.24508" lon="4.96283">
        <ele>366.38043212891</ele>
        <time>2020-01-16T09:23:41 0100</time>
      </trkpt>
      <trkpt lat="47.24508" lon="4.96283">
        <ele>366.4411315918</ele>
        <time>2020-01-16T09:23:45 0100</time>
      </trkpt>
      <trkpt lat="47.24508" lon="4.96283">
        <ele>366.49377441406</ele>
        <time>2020-01-16T09:23:49 0100</time>
      </trkpt>
      <trkpt lat="47.24508" lon="4.96284">
        <ele>366.53070068359</ele>
        <time>2020-01-16T09:23:53 0100</time>
      </trkpt>
      <trkpt lat="47.24508" lon="4.96284">
        <ele>366.55718994141</ele>
        <time>2020-01-16T09:23:57 0100</time>
      </trkpt>
      <trkpt lat="47.24508" lon="4.96284">
        <ele>366.57656860352</ele>
        <time>2020-01-16T09:24:01 0100</time>
      </trkpt>
      <trkpt lat="47.24507" lon="4.96284">
        <ele>366.58471679688</ele>
        <time>2020-01-16T09:24:05 0100</time>
      </trkpt>
      <trkpt lat="47.24507" lon="4.96285">
        <ele>366.57766723633</ele>
        <time>2020-01-16T09:24:09 0100</time>
      </trkpt>
      <trkpt lat="47.24507" lon="4.96285">
        <ele>366.5676574707</ele>
        <time>2020-01-16T09:24:13 0100</time>
      </trkpt>
      <trkpt lat="47.24506" lon="4.96285">
        <ele>366.54144287109</ele>
        <time>2020-01-16T09:24:17 0100</time>
      </trkpt>
      <trkpt lat="47.24506" lon="4.96286">
        <ele>366.51458740234</ele>
        <time>2020-01-16T09:24:21 0100</time>
      </trkpt>
      <trkpt lat="47.24506" lon="4.96286">
        <ele>366.48059082031</ele>
        <time>2020-01-16T09:24:25 0100</time>
      </trkpt>
      <trkpt lat="47.24506" lon="4.96286">
        <ele>366.44491577148</ele>
        <time>2020-01-16T09:24:29 0100</time>
      </trkpt>
      <trkpt lat="47.24505" lon="4.96287">
        <ele>366.24523925781</ele>
        <time>2020-01-16T09:24:33 0100</time>
      </trkpt>
      <trkpt lat="47.24504" lon="4.96286">
        <ele>366.14642333984</ele>
        <time>2020-01-16T09:24:37 0100</time>
      </trkpt>
      <trkpt lat="47.24504" lon="4.96285">
        <ele>366.13473510742</ele>
        <time>2020-01-16T09:24:41 0100</time>
      </trkpt>
      <trkpt lat="47.24504" lon="4.96283">
        <ele>366.11785888672</ele>
        <time>2020-01-16T09:24:45 0100</time>
      </trkpt>
      <trkpt lat="47.24505" lon="4.9628">
        <ele>365.9983215332</ele>
        <time>2020-01-16T09:24:49 0100</time>
      </trkpt>
      <trkpt lat="47.24506" lon="4.96275">
        <ele>365.91802978516</ele>
        <time>2020-01-16T09:24:53 0100</time>
      </trkpt>
      <trkpt lat="47.24506" lon="4.96272">
        <ele>365.83013916016</ele>
        <time>2020-01-16T09:24:57 0100</time>
      </trkpt>
      <trkpt lat="47.24506" lon="4.96269">
        <ele>365.77462768555</ele>
        <time>2020-01-16T09:25:01 0100</time>
      </trkpt>
      <trkpt lat="47.24507" lon="4.96266">
        <ele>365.74987792969</ele>
        <time>2020-01-16T09:25:05 0100</time>
      </trkpt>
      <trkpt lat="47.24507" lon="4.96266">
        <ele>365.72821044922</ele>
        <time>2020-01-16T09:25:09 0100</time>
      </trkpt>
      <trkpt lat="47.24508" lon="4.96265">
        <ele>365.72836303711</ele>
        <time>2020-01-16T09:25:13 0100</time>
      </trkpt>
      <trkpt lat="47.24508" lon="4.96264">
        <ele>365.76602172852</ele>
        <time>2020-01-16T09:25:17 0100</time>
      </trkpt>
      <trkpt lat="47.24509" lon="4.96263">
        <ele>365.79791259766</ele>
        <time>2020-01-16T09:25:21 0100</time>
      </trkpt>
      <trkpt lat="47.24512" lon="4.96256">
        <ele>366.08071899414</ele>
        <time>2020-01-16T09:25:25 0100</time>
      </trkpt>
      <trkpt lat="47.24517" lon="4.96246">
        <ele>366.49267578125</ele>
        <time>2020-01-16T09:25:29 0100</time>
      </trkpt>
      <trkpt lat="47.2452" lon="4.9624">
        <ele>366.9137878418</ele>
        <time>2020-01-16T09:25:33 0100</time>
      </trkpt>
      <trkpt lat="47.24522" lon="4.96236">
        <ele>367.45300292969</ele>
        <time>2020-01-16T09:25:37 0100</time>
      </trkpt>
      <trkpt lat="47.24524" lon="4.9623">
        <ele>368.05383300781</ele>
        <time>2020-01-16T09:25:41 0100</time>
      </trkpt>
      <trkpt lat="47.24526" lon="4.96225">
        <ele>368.57864379883</ele>
        <time>2020-01-16T09:25:45 0100</time>
      </trkpt>
      <trkpt lat="47.24527" lon="4.96222">
        <ele>369.21313476562</ele>
        <time>2020-01-16T09:25:49 0100</time>
      </trkpt>
      <trkpt lat="47.24528" lon="4.96221">
        <ele>369.40548706055</ele>
        <time>2020-01-16T09:25:53 0100</time>
      </trkpt>
      <trkpt lat="47.24528" lon="4.9622">
        <ele>369.69198608398</ele>
        <time>2020-01-16T09:25:57 0100</time>
      </trkpt>
      <trkpt lat="47.2453" lon="4.96217">
        <ele>369.97668457031</ele>
        <time>2020-01-16T09:26:01 0100</time>
      </trkpt>
      <trkpt lat="47.24535" lon="4.96211">
        <ele>370.21185302734</ele>
        <time>2020-01-16T09:26:05 0100</time>
      </trkpt>
      <trkpt lat="47.24541" lon="4.96204">
        <ele>370.61932373047</ele>
        <time>2020-01-16T09:26:09 0100</time>
      </trkpt>
      <trkpt lat="47.24543" lon="4.96203">
        <ele>370.89926147461</ele>
        <time>2020-01-16T09:26:13 0100</time>
      </trkpt>
      <trkpt lat="47.24545" lon="4.962">
        <ele>371.12103271484</ele>
        <time>2020-01-16T09:26:17 0100</time>
      </trkpt>
      <trkpt lat="47.24545" lon="4.96198">
        <ele>371.38073730469</ele>
        <time>2020-01-16T09:26:21 0100</time>
      </trkpt>
      <trkpt lat="47.24547" lon="4.96188">
        <ele>371.84194946289</ele>
        <time>2020-01-16T09:26:25 0100</time>
      </trkpt>
      <trkpt lat="47.2455" lon="4.96177">
        <ele>371.86587524414</ele>
        <time>2020-01-16T09:26:29 0100</time>
      </trkpt>
      <trkpt lat="47.24551" lon="4.96166">
        <ele>371.63757324219</ele>
        <time>2020-01-16T09:26:33 0100</time>
      </trkpt>
      <trkpt lat="47.24553" lon="4.96157">
        <ele>371.33074951172</ele>
        <time>2020-01-16T09:26:37 0100</time>
      </trkpt>
      <trkpt lat="47.24557" lon="4.96156">
        <ele>370.798828125</ele>
        <time>2020-01-16T09:26:41 0100</time>
      </trkpt>
      <trkpt lat="47.2456" lon="4.96154">
        <ele>369.9309387207</ele>
        <time>2020-01-16T09:26:45 0100</time>
      </trkpt>
      <trkpt lat="47.24563" lon="4.96146">
        <ele>369.12142944336</ele>
        <time>2020-01-16T09:26:49 0100</time>
      </trkpt>
      <trkpt lat="47.24564" lon="4.96143">
        <ele>368.78372192383</ele>
        <time>2020-01-16T09:26:53 0100</time>
      </trkpt>
      <trkpt lat="47.24565" lon="4.96137">
        <ele>368.44467163086</ele>
        <time>2020-01-16T09:26:57 0100</time>
      </trkpt>
      <trkpt lat="47.24569" lon="4.96127">
        <ele>367.63650512695</ele>
        <time>2020-01-16T09:27:01 0100</time>
      </trkpt>
      <trkpt lat="47.2457" lon="4.96125">
        <ele>366.77398681641</ele>
        <time>2020-01-16T09:27:05 0100</time>
      </trkpt>
      <trkpt lat="47.24571" lon="4.96122">
        <ele>366.41653442383</ele>
        <time>2020-01-16T09:27:09 0100</time>
      </trkpt>
      <trkpt lat="47.24575" lon="4.96115">
        <ele>365.50268554688</ele>
        <time>2020-01-16T09:27:13 0100</time>
      </trkpt>
      <trkpt lat="47.24575" lon="4.96109">
        <ele>364.21838378906</ele>
        <time>2020-01-16T09:27:17 0100</time>
      </trkpt>
      <trkpt lat="47.24577" lon="4.96102">
        <ele>363.58255004883</ele>
        <time>2020-01-16T09:27:21 0100</time>
      </trkpt>
      <trkpt lat="47.24579" lon="4.96099">
        <ele>362.82626342773</ele>
        <time>2020-01-16T09:27:25 0100</time>
      </trkpt>
      <trkpt lat="47.2458" lon="4.96097">
        <ele>362.45297241211</ele>
        <time>2020-01-16T09:27:29 0100</time>
      </trkpt>
      <trkpt lat="47.24583" lon="4.96091">
        <ele>361.54150390625</ele>
        <time>2020-01-16T09:27:33 0100</time>
      </trkpt>
      <trkpt lat="47.24585" lon="4.96094">
        <ele>360.43905639648</ele>
        <time>2020-01-16T09:27:37 0100</time>
      </trkpt>
      <trkpt lat="47.24585" lon="4.96088">
        <ele>359.68606567383</ele>
        <time>2020-01-16T09:27:41 0100</time>
      </trkpt>
      <trkpt lat="47.24587" lon="4.9608">
        <ele>359.11975097656</ele>
        <time>2020-01-16T09:27:45 0100</time>
      </trkpt>
      <trkpt lat="47.24587" lon="4.96073">
        <ele>358.70837402344</ele>
        <time>2020-01-16T09:27:49 0100</time>
      </trkpt>
      <trkpt lat="47.24586" lon="4.96071">
        <ele>358.64141845703</ele>
        <time>2020-01-16T09:27:53 0100</time>
      </trkpt>
      <trkpt lat="47.24587" lon="4.96067">
        <ele>358.55926513672</ele>
        <time>2020-01-16T09:27:57 0100</time>
      </trkpt>
      <trkpt lat="47.24587" lon="4.96065">
        <ele>358.49163818359</ele>
        <time>2020-01-16T09:28:01 0100</time>
      </trkpt>
      <trkpt lat="47.24586" lon="4.96061">
        <ele>358.45892333984</ele>
        <time>2020-01-16T09:28:05 0100</time>
      </trkpt>
      <trkpt lat="47.24586" lon="4.96063">
        <ele>358.64291381836</ele>
        <time>2020-01-16T09:28:09 0100</time>
      </trkpt>
      <trkpt lat="47.24587" lon="4.96055">
        <ele>359.02822875977</ele>
        <time>2020-01-16T09:28:13 0100</time>
      </trkpt>
      <trkpt lat="47.24589" lon="4.96051">
        <ele>359.26208496094</ele>
        <time>2020-01-16T09:28:17 0100</time>
      </trkpt>
      <trkpt lat="47.2459" lon="4.96046">
        <ele>359.21929931641</ele>
        <time>2020-01-16T09:28:21 0100</time>
      </trkpt>
      <trkpt lat="47.24591" lon="4.96044">
        <ele>359.18859863281</ele>
        <time>2020-01-16T09:28:25 0100</time>
      </trkpt>
      <trkpt lat="47.24591" lon="4.96043">
        <ele>359.19085693359</ele>
        <time>2020-01-16T09:28:29 0100</time>
      </trkpt>
      <trkpt lat="47.24591" lon="4.96035">
        <ele>359.43060302734</ele>
        <time>2020-01-16T09:28:33 0100</time>
      </trkpt>
      <trkpt lat="47.2459" lon="4.96026">
        <ele>359.78689575195</ele>
        <time>2020-01-16T09:28:37 0100</time>
      </trkpt>
      <trkpt lat="47.24591" lon="4.96023">
        <ele>360.29962158203</ele>
        <time>2020-01-16T09:28:41 0100</time>
      </trkpt>
      <trkpt lat="47.2459" lon="4.96018">
        <ele>360.80239868164</ele>
        <time>2020-01-16T09:28:45 0100</time>
      </trkpt>
      <trkpt lat="47.24592" lon="4.96018">
        <ele>361.37713623047</ele>
        <time>2020-01-16T09:28:49 0100</time>
      </trkpt>
      <trkpt lat="47.24595" lon="4.9601">
        <ele>361.98120117188</ele>
        <time>2020-01-16T09:28:53 0100</time>
      </trkpt>
      <trkpt lat="47.24597" lon="4.96001">
        <ele>362.57321166992</ele>
        <time>2020-01-16T09:28:57 0100</time>
      </trkpt>
      <trkpt lat="47.24599" lon="4.95999">
        <ele>363.15863037109</ele>
        <time>2020-01-16T09:29:01 0100</time>
      </trkpt>
      <trkpt lat="47.24599" lon="4.95995">
        <ele>363.58102416992</ele>
        <time>2020-01-16T09:29:05 0100</time>
      </trkpt>
      <trkpt lat="47.24598" lon="4.9599">
        <ele>364.08724975586</ele>
        <time>2020-01-16T09:29:09 0100</time>
      </trkpt>
      <trkpt lat="47.24598" lon="4.95975">
        <ele>364.23233032227</ele>
        <time>2020-01-16T09:29:13 0100</time>
      </trkpt>
      <trkpt lat="47.24599" lon="4.95973">
        <ele>364.26196289062</ele>
        <time>2020-01-16T09:29:17 0100</time>
      </trkpt>
      <trkpt lat="47.246" lon="4.9597">
        <ele>364.40103149414</ele>
        <time>2020-01-16T09:29:21 0100</time>
      </trkpt>
      <trkpt lat="47.24601" lon="4.95964">
        <ele>364.43859863281</ele>
        <time>2020-01-16T09:29:25 0100</time>
      </trkpt>
      <trkpt lat="47.246" lon="4.9596">
        <ele>364.36535644531</ele>
        <time>2020-01-16T09:29:29 0100</time>
      </trkpt>
      <trkpt lat="47.24599" lon="4.95958">
        <ele>364.37454223633</ele>
        <time>2020-01-16T09:29:33 0100</time>
      </trkpt>
      <trkpt lat="47.24599" lon="4.95956">
        <ele>364.4440612793</ele>
        <time>2020-01-16T09:29:37 0100</time>
      </trkpt>
      <trkpt lat="47.24598" lon="4.95952">
        <ele>364.64447021484</ele>
        <time>2020-01-16T09:29:41 0100</time>
      </trkpt>
      <trkpt lat="47.24598" lon="4.9595">
        <ele>364.79272460938</ele>
        <time>2020-01-16T09:29:45 0100</time>
      </trkpt>
      <trkpt lat="47.24598" lon="4.9595">
        <ele>365.62823486328</ele>
        <time>2020-01-16T09:29:49 0100</time>
      </trkpt>
      <trkpt lat="47.24599" lon="4.95943">
        <ele>366.26940917969</ele>
        <time>2020-01-16T09:29:53 0100</time>
      </trkpt>
      <trkpt lat="47.24599" lon="4.95936">
        <ele>366.38403320312</ele>
        <time>2020-01-16T09:29:57 0100</time>
      </trkpt>
      <trkpt lat="47.24603" lon="4.95921">
        <ele>366.49423217773</ele>
        <time>2020-01-16T09:30:01 0100</time>
      </trkpt>
      <trkpt lat="47.24605" lon="4.95915">
        <ele>366.44641113281</ele>
        <time>2020-01-16T09:30:05 0100</time>
      </trkpt>
      <trkpt lat="47.24606" lon="4.95911">
        <ele>366.47341918945</ele>
        <time>2020-01-16T09:30:09 0100</time>
      </trkpt>
      <trkpt lat="47.24608" lon="4.95911">
        <ele>366.55676269531</ele>
        <time>2020-01-16T09:30:13 0100</time>
      </trkpt>
      <trkpt lat="47.24607" lon="4.95906">
        <ele>367.02542114258</ele>
        <time>2020-01-16T09:30:17 0100</time>
      </trkpt>
      <trkpt lat="47.24607" lon="4.95902">
        <ele>367.76409912109</ele>
        <time>2020-01-16T09:30:21 0100</time>
      </trkpt>
      <trkpt lat="47.24608" lon="4.95897">
        <ele>368.3498840332</ele>
        <time>2020-01-16T09:30:25 0100</time>
      </trkpt>
      <trkpt lat="47.24611" lon="4.95894">
        <ele>368.69976806641</ele>
        <time>2020-01-16T09:30:29 0100</time>
      </trkpt>
      <trkpt lat="47.24612" lon="4.95892">
        <ele>368.97131347656</ele>
        <time>2020-01-16T09:30:33 0100</time>
      </trkpt>
      <trkpt lat="47.24613" lon="4.95886">
        <ele>369.0016784668</ele>
        <time>2020-01-16T09:30:37 0100</time>
      </trkpt>
      <trkpt lat="47.24614" lon="4.95885">
        <ele>369.03698730469</ele>
        <time>2020-01-16T09:30:41 0100</time>
      </trkpt>
      <trkpt lat="47.24615" lon="4.95882">
        <ele>369.30767822266</ele>
        <time>2020-01-16T09:30:45 0100</time>
      </trkpt>
      <trkpt lat="47.24615" lon="4.95873">
        <ele>369.56884765625</ele>
        <time>2020-01-16T09:30:49 0100</time>
      </trkpt>
      <trkpt lat="47.24614" lon="4.95863">
        <ele>369.91662597656</ele>
        <time>2020-01-16T09:30:53 0100</time>
      </trkpt>
      <trkpt lat="47.24615" lon="4.95856">
        <ele>370.09057617188</ele>
        <time>2020-01-16T09:30:57 0100</time>
      </trkpt>
      <trkpt lat="47.24618" lon="4.95853">
        <ele>370.11560058594</ele>
        <time>2020-01-16T09:31:01 0100</time>
      </trkpt>
      <trkpt lat="47.2462" lon="4.95846">
        <ele>370.314453125</ele>
        <time>2020-01-16T09:31:05 0100</time>
      </trkpt>
      <trkpt lat="47.2462" lon="4.95845">
        <ele>370.52822875977</ele>
        <time>2020-01-16T09:31:09 0100</time>
      </trkpt>
      <trkpt lat="47.24621" lon="4.95846">
        <ele>370.55715942383</ele>
        <time>2020-01-16T09:31:13 0100</time>
      </trkpt>
      <trkpt lat="47.24622" lon="4.95846">
        <ele>370.65319824219</ele>
        <time>2020-01-16T09:31:17 0100</time>
      </trkpt>
      <trkpt lat="47.24623" lon="4.95844">
        <ele>370.82443237305</ele>
        <time>2020-01-16T09:31:21 0100</time>
      </trkpt>
      <trkpt lat="47.24624" lon="4.95841">
        <ele>371.09448242188</ele>
        <time>2020-01-16T09:31:25 0100</time>
      </trkpt>
      <trkpt lat="47.24627" lon="4.95833">
        <ele>371.14901733398</ele>
        <time>2020-01-16T09:31:29 0100</time>
      </trkpt>
      <trkpt lat="47.24628" lon="4.9582">
        <ele>371.2854309082</ele>
        <time>2020-01-16T09:31:33 0100</time>
      </trkpt>
      <trkpt lat="47.24631" lon="4.95815">
        <ele>371.42358398438</ele>
        <time>2020-01-16T09:31:37 0100</time>
      </trkpt>
      <trkpt lat="47.24632" lon="4.95815">
        <ele>371.41897583008</ele>
        <time>2020-01-16T09:31:41 0100</time>
      </trkpt>
      <trkpt lat="47.24633" lon="4.95815">
        <ele>371.4248046875</ele>
        <time>2020-01-16T09:31:45 0100</time>
      </trkpt>
      <trkpt lat="47.24634" lon="4.95813">
        <ele>371.30438232422</ele>
        <time>2020-01-16T09:31:49 0100</time>
      </trkpt>
      <trkpt lat="47.24635" lon="4.95812">
        <ele>371.31109619141</ele>
        <time>2020-01-16T09:31:53 0100</time>
      </trkpt>
      <trkpt lat="47.24637" lon="4.958">
        <ele>371.30541992188</ele>
        <time>2020-01-16T09:31:57 0100</time>
      </trkpt>
      <trkpt lat="47.24637" lon="4.958">
        <ele>371.30184936523</ele>
        <time>2020-01-16T09:32:01 0100</time>
      </trkpt>
      <trkpt lat="47.2464" lon="4.95795">
        <ele>371.30090332031</ele>
        <time>2020-01-16T09:32:05 0100</time>
      </trkpt>
      <trkpt lat="47.24642" lon="4.95789">
        <ele>370.84063720703</ele>
        <time>2020-01-16T09:32:09 0100</time>
      </trkpt>
      <trkpt lat="47.24644" lon="4.95784">
        <ele>370.75958251953</ele>
        <time>2020-01-16T09:32:13 0100</time>
      </trkpt>
      <trkpt lat="47.24648" lon="4.95772">
        <ele>370.63150024414</ele>
        <time>2020-01-16T09:32:17 0100</time>
      </trkpt>
      <trkpt lat="47.24651" lon="4.95766">
        <ele>370.63388061523</ele>
        <time>2020-01-16T09:32:21 0100</time>
      </trkpt>
      <trkpt lat="47.24652" lon="4.95767">
        <ele>370.5871887207</ele>
        <time>2020-01-16T09:32:25 0100</time>
      </trkpt>
      <trkpt lat="47.24655" lon="4.95761">
        <ele>370.45104980469</ele>
        <time>2020-01-16T09:32:29 0100</time>
      </trkpt>
      <trkpt lat="47.2466" lon="4.95756">
        <ele>370.35852050781</ele>
        <time>2020-01-16T09:32:33 0100</time>
      </trkpt>
      <trkpt lat="47.24663" lon="4.95754">
        <ele>370.26043701172</ele>
        <time>2020-01-16T09:32:37 0100</time>
      </trkpt>
      <trkpt lat="47.24667" lon="4.95749">
        <ele>370.22265625</ele>
        <time>2020-01-16T09:32:41 0100</time>
      </trkpt>
      <trkpt lat="47.24667" lon="4.95747">
        <ele>370.23199462891</ele>
        <time>2020-01-16T09:32:45 0100</time>
      </trkpt>
      <trkpt lat="47.2467" lon="4.9574">
        <ele>370.21914672852</ele>
        <time>2020-01-16T09:32:49 0100</time>
      </trkpt>
      <trkpt lat="47.24673" lon="4.95735">
        <ele>370.26776123047</ele>
        <time>2020-01-16T09:32:53 0100</time>
      </trkpt>
      <trkpt lat="47.24676" lon="4.9573">
        <ele>370.18447875977</ele>
        <time>2020-01-16T09:32:57 0100</time>
      </trkpt>
      <trkpt lat="47.24678" lon="4.95726">
        <ele>369.92581176758</ele>
        <time>2020-01-16T09:33:01 0100</time>
      </trkpt>
      <trkpt lat="47.24681" lon="4.95723">
        <ele>369.76898193359</ele>
        <time>2020-01-16T09:33:05 0100</time>
      </trkpt>
      <trkpt lat="47.24681" lon="4.95724">
        <ele>369.61239624023</ele>
        <time>2020-01-16T09:33:09 0100</time>
      </trkpt>
      <trkpt lat="47.24682" lon="4.95725">
        <ele>369.53298950195</ele>
        <time>2020-01-16T09:33:13 0100</time>
      </trkpt>
      <trkpt lat="47.24684" lon="4.95723">
        <ele>369.49942016602</ele>
        <time>2020-01-16T09:33:17 0100</time>
      </trkpt>
      <trkpt lat="47.24685" lon="4.95722">
        <ele>369.44515991211</ele>
        <time>2020-01-16T09:33:21 0100</time>
      </trkpt>
      <trkpt lat="47.2469" lon="4.95712">
        <ele>369.50045776367</ele>
        <time>2020-01-16T09:33:25 0100</time>
      </trkpt>
      <trkpt lat="47.24692" lon="4.95708">
        <ele>369.65069580078</ele>
        <time>2020-01-16T09:33:29 0100</time>
      </trkpt>
      <trkpt lat="47.24694" lon="4.95704">
        <ele>369.79116821289</ele>
        <time>2020-01-16T09:33:33 0100</time>
      </trkpt>
      <trkpt lat="47.24695" lon="4.95702">
        <ele>370.01467895508</ele>
        <time>2020-01-16T09:33:37 0100</time>
      </trkpt>
      <trkpt lat="47.24701" lon="4.95695">
        <ele>370.47064208984</ele>
        <time>2020-01-16T09:33:41 0100</time>
      </trkpt>
      <trkpt lat="47.24703" lon="4.95695">
        <ele>370.99893188477</ele>
        <time>2020-01-16T09:33:45 0100</time>
      </trkpt>
      <trkpt lat="47.24703" lon="4.95694">
        <ele>371.10659790039</ele>
        <time>2020-01-16T09:33:49 0100</time>
      </trkpt>
      <trkpt lat="47.24704" lon="4.95695">
        <ele>371.18676757812</ele>
        <time>2020-01-16T09:33:53 0100</time>
      </trkpt>
      <trkpt lat="47.24709" lon="4.95688">
        <ele>371.96078491211</ele>
        <time>2020-01-16T09:33:57 0100</time>
      </trkpt>
      <trkpt lat="47.2471" lon="4.95686">
        <ele>372.49880981445</ele>
        <time>2020-01-16T09:34:01 0100</time>
      </trkpt>
      <trkpt lat="47.24714" lon="4.9568">
        <ele>373.50860595703</ele>
        <time>2020-01-16T09:34:05 0100</time>
      </trkpt>
      <trkpt lat="47.2472" lon="4.95669">
        <ele>373.94424438477</ele>
        <time>2020-01-16T09:34:09 0100</time>
      </trkpt>
      <trkpt lat="47.24723" lon="4.95663">
        <ele>374.29266357422</ele>
        <time>2020-01-16T09:34:13 0100</time>
      </trkpt>
      <trkpt lat="47.24725" lon="4.95656">
        <ele>374.45849609375</ele>
        <time>2020-01-16T09:34:17 0100</time>
      </trkpt>
      <trkpt lat="47.24728" lon="4.95651">
        <ele>374.32693481445</ele>
        <time>2020-01-16T09:34:21 0100</time>
      </trkpt>
      <trkpt lat="47.2473" lon="4.9565">
        <ele>373.90277099609</ele>
        <time>2020-01-16T09:34:25 0100</time>
      </trkpt>
      <trkpt lat="47.24734" lon="4.95644">
        <ele>373.23559570312</ele>
        <time>2020-01-16T09:34:28 0100</time>
      </trkpt>
      <trkpt lat="47.24735" lon="4.95642">
        <ele>372.58303833008</ele>
        <time>2020-01-16T09:34:32 0100</time>
      </trkpt>
      <trkpt lat="47.24736" lon="4.9564">
        <ele>371.96575927734</ele>
        <time>2020-01-16T09:34:36 0100</time>
      </trkpt>
      <trkpt lat="47.24738" lon="4.95641">
        <ele>371.52801513672</ele>
        <time>2020-01-16T09:34:40 0100</time>
      </trkpt>
      <trkpt lat="47.24741" lon="4.9564">
        <ele>370.81768798828</ele>
        <time>2020-01-16T09:34:44 0100</time>
      </trkpt>
      <trkpt lat="47.24744" lon="4.95638">
        <ele>370.30215454102</ele>
        <time>2020-01-16T09:34:48 0100</time>
      </trkpt>
      <trkpt lat="47.24745" lon="4.95638">
        <ele>370.09823608398</ele>
        <time>2020-01-16T09:34:52 0100</time>
      </trkpt>
      <trkpt lat="47.24746" lon="4.95637">
        <ele>369.93283081055</ele>
        <time>2020-01-16T09:34:56 0100</time>
      </trkpt>
      <trkpt lat="47.24748" lon="4.95637">
        <ele>369.70837402344</ele>
        <time>2020-01-16T09:35:00 0100</time>
      </trkpt>
      <trkpt lat="47.24752" lon="4.95633">
        <ele>369.52633666992</ele>
        <time>2020-01-16T09:35:04 0100</time>
      </trkpt>
      <trkpt lat="47.24756" lon="4.95632">
        <ele>369.5256652832</ele>
        <time>2020-01-16T09:35:08 0100</time>
      </trkpt>
      <trkpt lat="47.24756" lon="4.95631">
        <ele>369.54330444336</ele>
        <time>2020-01-16T09:35:12 0100</time>
      </trkpt>
      <trkpt lat="47.24761" lon="4.95623">
        <ele>369.68655395508</ele>
        <time>2020-01-16T09:35:16 0100</time>
      </trkpt>
      <trkpt lat="47.24764" lon="4.9562">
        <ele>369.80557250977</ele>
        <time>2020-01-16T09:35:20 0100</time>
      </trkpt>
      <trkpt lat="47.24764" lon="4.95618">
        <ele>369.92556762695</ele>
        <time>2020-01-16T09:35:24 0100</time>
      </trkpt>
      <trkpt lat="47.24764" lon="4.95617">
        <ele>369.9485168457</ele>
        <time>2020-01-16T09:35:28 0100</time>
      </trkpt>
      <trkpt lat="47.24766" lon="4.95615">
        <ele>369.9697265625</ele>
        <time>2020-01-16T09:35:32 0100</time>
      </trkpt>
      <trkpt lat="47.24767" lon="4.95613">
        <ele>369.97747802734</ele>
        <time>2020-01-16T09:35:36 0100</time>
      </trkpt>
      <trkpt lat="47.24767" lon="4.95611">
        <ele>369.96096801758</ele>
        <time>2020-01-16T09:35:40 0100</time>
      </trkpt>
      <trkpt lat="47.24769" lon="4.95608">
        <ele>369.93057250977</ele>
        <time>2020-01-16T09:35:44 0100</time>
      </trkpt>
      <trkpt lat="47.24773" lon="4.95605">
        <ele>369.82748413086</ele>
        <time>2020-01-16T09:35:48 0100</time>
      </trkpt>
      <trkpt lat="47.24774" lon="4.95605">
        <ele>369.81072998047</ele>
        <time>2020-01-16T09:35:52 0100</time>
      </trkpt>
      <trkpt lat="47.24775" lon="4.95606">
        <ele>369.81954956055</ele>
        <time>2020-01-16T09:35:56 0100</time>
      </trkpt>
      <trkpt lat="47.24776" lon="4.95606">
        <ele>369.83905029297</ele>
        <time>2020-01-16T09:36:00 0100</time>
      </trkpt>
      <trkpt lat="47.24776" lon="4.95607">
        <ele>369.86462402344</ele>
        <time>2020-01-16T09:36:04 0100</time>
      </trkpt>
      <trkpt lat="47.24782" lon="4.95608">
        <ele>369.93319702148</ele>
        <time>2020-01-16T09:36:08 0100</time>
      </trkpt>
      <trkpt lat="47.24786" lon="4.95609">
        <ele>370.02917480469</ele>
        <time>2020-01-16T09:36:12 0100</time>
      </trkpt>
      <trkpt lat="47.24792" lon="4.95606">
        <ele>370.06408691406</ele>
        <time>2020-01-16T09:36:16 0100</time>
      </trkpt>
      <trkpt lat="47.24796" lon="4.95606">
        <ele>370.00140380859</ele>
        <time>2020-01-16T09:36:20 0100</time>
      </trkpt>
      <trkpt lat="47.24796" lon="4.95606">
        <ele>369.97189331055</ele>
        <time>2020-01-16T09:36:24 0100</time>
      </trkpt>
      <trkpt lat="47.24795" lon="4.95606">
        <ele>369.92486572266</ele>
        <time>2020-01-16T09:36:28 0100</time>
      </trkpt>
      <trkpt lat="47.24796" lon="4.95606">
        <ele>369.84527587891</ele>
        <time>2020-01-16T09:36:32 0100</time>
      </trkpt>
      <trkpt lat="47.24796" lon="4.95606">
        <ele>369.75109863281</ele>
        <time>2020-01-16T09:36:36 0100</time>
      </trkpt>
      <trkpt lat="47.24797" lon="4.95606">
        <ele>369.6533203125</ele>
        <time>2020-01-16T09:36:40 0100</time>
      </trkpt>
      <trkpt lat="47.24797" lon="4.95605">
        <ele>369.10061645508</ele>
        <time>2020-01-16T09:36:44 0100</time>
      </trkpt>
      <trkpt lat="47.24797" lon="4.95608">
        <ele>368.74630737305</ele>
        <time>2020-01-16T09:36:48 0100</time>
      </trkpt>
      <trkpt lat="47.24801" lon="4.9561">
        <ele>368.05322265625</ele>
        <time>2020-01-16T09:36:52 0100</time>
      </trkpt>
      <trkpt lat="47.24806" lon="4.95614">
        <ele>366.64672851562</ele>
        <time>2020-01-16T09:36:56 0100</time>
      </trkpt>
      <trkpt lat="47.24806" lon="4.95619">
        <ele>365.14181518555</ele>
        <time>2020-01-16T09:37:00 0100</time>
      </trkpt>
      <trkpt lat="47.24801" lon="4.95623">
        <ele>364.68853759766</ele>
        <time>2020-01-16T09:37:04 0100</time>
      </trkpt>
      <trkpt lat="47.24799" lon="4.95628">
        <ele>363.6904296875</ele>
        <time>2020-01-16T09:37:08 0100</time>
      </trkpt>
      <trkpt lat="47.24799" lon="4.95635">
        <ele>362.78512573242</ele>
        <time>2020-01-16T09:37:12 0100</time>
      </trkpt>
      <trkpt lat="47.24799" lon="4.95641">
        <ele>361.80447387695</ele>
        <time>2020-01-16T09:37:16 0100</time>
      </trkpt>
      <trkpt lat="47.24799" lon="4.95646">
        <ele>360.96661376953</ele>
        <time>2020-01-16T09:37:20 0100</time>
      </trkpt>
      <trkpt lat="47.24797" lon="4.95649">
        <ele>360.49508666992</ele>
        <time>2020-01-16T09:37:24 0100</time>
      </trkpt>
      <trkpt lat="47.24795" lon="4.95651">
        <ele>359.95455932617</ele>
        <time>2020-01-16T09:37:28 0100</time>
      </trkpt>
      <trkpt lat="47.24794" lon="4.95653">
        <ele>359.44723510742</ele>
        <time>2020-01-16T09:37:32 0100</time>
      </trkpt>
      <trkpt lat="47.24792" lon="4.95656">
        <ele>359.18170166016</ele>
        <time>2020-01-16T09:37:36 0100</time>
      </trkpt>
      <trkpt lat="47.24792" lon="4.95657">
        <ele>359.10180664062</ele>
        <time>2020-01-16T09:37:40 0100</time>
      </trkpt>
      <trkpt lat="47.24791" lon="4.95659">
        <ele>359.01470947266</ele>
        <time>2020-01-16T09:37:44 0100</time>
      </trkpt>
      <trkpt lat="47.2479" lon="4.95664">
        <ele>358.62728881836</ele>
        <time>2020-01-16T09:37:48 0100</time>
      </trkpt>
      <trkpt lat="47.24789" lon="4.95674">
        <ele>358.03402709961</ele>
        <time>2020-01-16T09:37:52 0100</time>
      </trkpt>
      <trkpt lat="47.2479" lon="4.95685">
        <ele>357.28173828125</ele>
        <time>2020-01-16T09:37:56 0100</time>
      </trkpt>
      <trkpt lat="47.24788" lon="4.95687">
        <ele>357.00872802734</ele>
        <time>2020-01-16T09:38:00 0100</time>
      </trkpt>
      <trkpt lat="47.24784" lon="4.9569">
        <ele>356.3381652832</ele>
        <time>2020-01-16T09:38:04 0100</time>
      </trkpt>
      <trkpt lat="47.24782" lon="4.95692">
        <ele>356.11846923828</ele>
        <time>2020-01-16T09:38:08 0100</time>
      </trkpt>
      <trkpt lat="47.2478" lon="4.95702">
        <ele>355.68273925781</ele>
        <time>2020-01-16T09:38:12 0100</time>
      </trkpt>
      <trkpt lat="47.24778" lon="4.95704">
        <ele>355.64935302734</ele>
        <time>2020-01-16T09:38:16 0100</time>
      </trkpt>
      <trkpt lat="47.24773" lon="4.95708">
        <ele>355.41040039062</ele>
        <time>2020-01-16T09:38:20 0100</time>
      </trkpt>
      <trkpt lat="47.2477" lon="4.95717">
        <ele>355.31704711914</ele>
        <time>2020-01-16T09:38:24 0100</time>
      </trkpt>
      <trkpt lat="47.24768" lon="4.95721">
        <ele>355.32498168945</ele>
        <time>2020-01-16T09:38:28 0100</time>
      </trkpt>
      <trkpt lat="47.24764" lon="4.95727">
        <ele>355.42913818359</ele>
        <time>2020-01-16T09:38:32 0100</time>
      </trkpt>
      <trkpt lat="47.24761" lon="4.95733">
        <ele>355.56878662109</ele>
        <time>2020-01-16T09:38:36 0100</time>
      </trkpt>
      <trkpt lat="47.24754" lon="4.95741">
        <ele>355.79257202148</ele>
        <time>2020-01-16T09:38:40 0100</time>
      </trkpt>
      <trkpt lat="47.2475" lon="4.95747">
        <ele>355.97680664062</ele>
        <time>2020-01-16T09:38:44 0100</time>
      </trkpt>
      <trkpt lat="47.24746" lon="4.95759">
        <ele>356.45352172852</ele>
        <time>2020-01-16T09:38:48 0100</time>
      </trkpt>
      <trkpt lat="47.24744" lon="4.95762">
        <ele>356.61563110352</ele>
        <time>2020-01-16T09:38:52 0100</time>
      </trkpt>
      <trkpt lat="47.2474" lon="4.95768">
        <ele>356.89254760742</ele>
        <time>2020-01-16T09:38:56 0100</time>
      </trkpt>
      <trkpt lat="47.24736" lon="4.95772">
        <ele>357.14779663086</ele>
        <time>2020-01-16T09:39:00 0100</time>
      </trkpt>
      <trkpt lat="47.24733" lon="4.95775">
        <ele>357.2673034668</ele>
        <time>2020-01-16T09:39:04 0100</time>
      </trkpt>
      <trkpt lat="47.24731" lon="4.95781">
        <ele>357.287109375</ele>
        <time>2020-01-16T09:39:08 0100</time>
      </trkpt>
      <trkpt lat="47.24727" lon="4.9579">
        <ele>357.40252685547</ele>
        <time>2020-01-16T09:39:12 0100</time>
      </trkpt>
      <trkpt lat="47.24723" lon="4.95796">
        <ele>357.48559570312</ele>
        <time>2020-01-16T09:39:16 0100</time>
      </trkpt>
      <trkpt lat="47.2472" lon="4.95801">
        <ele>357.51217651367</ele>
        <time>2020-01-16T09:39:20 0100</time>
      </trkpt>
      <trkpt lat="47.24718" lon="4.95806">
        <ele>357.54064941406</ele>
        <time>2020-01-16T09:39:24 0100</time>
      </trkpt>
      <trkpt lat="47.24716" lon="4.95812">
        <ele>357.59991455078</ele>
        <time>2020-01-16T09:39:28 0100</time>
      </trkpt>
      <trkpt lat="47.24714" lon="4.95817">
        <ele>357.73483276367</ele>
        <time>2020-01-16T09:39:32 0100</time>
      </trkpt>
      <trkpt lat="47.24712" lon="4.95822">
        <ele>357.78491210938</ele>
        <time>2020-01-16T09:39:36 0100</time>
      </trkpt>
      <trkpt lat="47.2471" lon="4.95829">
        <ele>357.85104370117</ele>
        <time>2020-01-16T09:39:40 0100</time>
      </trkpt>
      <trkpt lat="47.24709" lon="4.95831">
        <ele>357.86019897461</ele>
        <time>2020-01-16T09:39:44 0100</time>
      </trkpt>
      <trkpt lat="47.24708" lon="4.95833">
        <ele>357.86145019531</ele>
        <time>2020-01-16T09:39:48 0100</time>
      </trkpt>
      <trkpt lat="47.24703" lon="4.95841">
        <ele>357.95657348633</ele>
        <time>2020-01-16T09:39:52 0100</time>
      </trkpt>
      <trkpt lat="47.247" lon="4.95847">
        <ele>358.01129150391</ele>
        <time>2020-01-16T09:39:56 0100</time>
      </trkpt>
      <trkpt lat="47.24697" lon="4.95853">
        <ele>358.0426940918</ele>
        <time>2020-01-16T09:40:00 0100</time>
      </trkpt>
      <trkpt lat="47.24695" lon="4.95861">
        <ele>358.03289794922</ele>
        <time>2020-01-16T09:40:04 0100</time>
      </trkpt>
      <trkpt lat="47.24692" lon="4.95867">
        <ele>357.98678588867</ele>
        <time>2020-01-16T09:40:08 0100</time>
      </trkpt>
      <trkpt lat="47.24688" lon="4.95875">
        <ele>358.03588867188</ele>
        <time>2020-01-16T09:40:12 0100</time>
      </trkpt>
      <trkpt lat="47.24687" lon="4.95876">
        <ele>357.91659545898</ele>
        <time>2020-01-16T09:40:16 0100</time>
      </trkpt>
      <trkpt lat="47.24685" lon="4.95879">
        <ele>357.69451904297</ele>
        <time>2020-01-16T09:40:20 0100</time>
      </trkpt>
      <trkpt lat="47.24682" lon="4.9588">
        <ele>357.3249206543</ele>
        <time>2020-01-16T09:40:24 0100</time>
      </trkpt>
      <trkpt lat="47.24678" lon="4.95889">
        <ele>357.06954956055</ele>
        <time>2020-01-16T09:40:28 0100</time>
      </trkpt>
      <trkpt lat="47.24677" lon="4.95899">
        <ele>356.98135375977</ele>
        <time>2020-01-16T09:40:32 0100</time>
      </trkpt>
      <trkpt lat="47.24676" lon="4.95901">
        <ele>356.85516357422</ele>
        <time>2020-01-16T09:40:36 0100</time>
      </trkpt>
      <trkpt lat="47.24675" lon="4.95908">
        <ele>356.7409362793</ele>
        <time>2020-01-16T09:40:40 0100</time>
      </trkpt>
      <trkpt lat="47.24673" lon="4.95913">
        <ele>356.61053466797</ele>
        <time>2020-01-16T09:40:44 0100</time>
      </trkpt>
      <trkpt lat="47.24669" lon="4.95922">
        <ele>356.45269775391</ele>
        <time>2020-01-16T09:40:48 0100</time>
      </trkpt>
      <trkpt lat="47.24667" lon="4.95933">
        <ele>356.43246459961</ele>
        <time>2020-01-16T09:40:52 0100</time>
      </trkpt>
      <trkpt lat="47.24666" lon="4.95936">
        <ele>356.37875366211</ele>
        <time>2020-01-16T09:40:56 0100</time>
      </trkpt>
      <trkpt lat="47.24665" lon="4.95937">
        <ele>356.34219360352</ele>
        <time>2020-01-16T09:41:00 0100</time>
      </trkpt>
      <trkpt lat="47.24663" lon="4.95939">
        <ele>356.25039672852</ele>
        <time>2020-01-16T09:41:04 0100</time>
      </trkpt>
      <trkpt lat="47.24662" lon="4.9595">
        <ele>356.12704467773</ele>
        <time>2020-01-16T09:41:08 0100</time>
      </trkpt>
      <trkpt lat="47.24662" lon="4.95959">
        <ele>355.97845458984</ele>
        <time>2020-01-16T09:41:12 0100</time>
      </trkpt>
      <trkpt lat="47.24662" lon="4.95966">
        <ele>355.7698059082</ele>
        <time>2020-01-16T09:41:16 0100</time>
      </trkpt>
      <trkpt lat="47.24662" lon="4.95975">
        <ele>355.5344543457</ele>
        <time>2020-01-16T09:41:20 0100</time>
      </trkpt>
      <trkpt lat="47.24661" lon="4.95977">
        <ele>355.39602661133</ele>
        <time>2020-01-16T09:41:24 0100</time>
      </trkpt>
      <trkpt lat="47.2466" lon="4.9598">
        <ele>355.33264160156</ele>
        <time>2020-01-16T09:41:28 0100</time>
      </trkpt>
      <trkpt lat="47.24659" lon="4.95984">
        <ele>355.2966003418</ele>
        <time>2020-01-16T09:41:32 0100</time>
      </trkpt>
      <trkpt lat="47.24658" lon="4.95988">
        <ele>355.32482910156</ele>
        <time>2020-01-16T09:41:36 0100</time>
      </trkpt>
      <trkpt lat="47.24657" lon="4.95991">
        <ele>355.35052490234</ele>
        <time>2020-01-16T09:41:40 0100</time>
      </trkpt>
      <trkpt lat="47.24654" lon="4.95997">
        <ele>355.38705444336</ele>
        <time>2020-01-16T09:41:44 0100</time>
      </trkpt>
      <trkpt lat="47.24653" lon="4.96001">
        <ele>355.42300415039</ele>
        <time>2020-01-16T09:41:48 0100</time>
      </trkpt>
      <trkpt lat="47.24651" lon="4.96017">
        <ele>355.38723754883</ele>
        <time>2020-01-16T09:41:52 0100</time>
      </trkpt>
      <trkpt lat="47.2465" lon="4.96019">
        <ele>355.44964599609</ele>
        <time>2020-01-16T09:41:56 0100</time>
      </trkpt>
      <trkpt lat="47.2465" lon="4.96018">
        <ele>355.38726806641</ele>
        <time>2020-01-16T09:42:00 0100</time>
      </trkpt>
      <trkpt lat="47.2465" lon="4.96019">
        <ele>355.36776733398</ele>
        <time>2020-01-16T09:42:04 0100</time>
      </trkpt>
      <trkpt lat="47.24649" lon="4.9602">
        <ele>355.36706542969</ele>
        <time>2020-01-16T09:42:08 0100</time>
      </trkpt>
      <trkpt lat="47.24649" lon="4.96021">
        <ele>355.31326293945</ele>
        <time>2020-01-16T09:42:12 0100</time>
      </trkpt>
      <trkpt lat="47.24645" lon="4.96027">
        <ele>355.2932434082</ele>
        <time>2020-01-16T09:42:16 0100</time>
      </trkpt>
      <trkpt lat="47.24645" lon="4.96028">
        <ele>355.31072998047</ele>
        <time>2020-01-16T09:42:20 0100</time>
      </trkpt>
      <trkpt lat="47.24645" lon="4.96028">
        <ele>355.32400512695</ele>
        <time>2020-01-16T09:42:24 0100</time>
      </trkpt>
      <trkpt lat="47.24642" lon="4.9603">
        <ele>355.24658203125</ele>
        <time>2020-01-16T09:42:28 0100</time>
      </trkpt>
      <trkpt lat="47.24641" lon="4.96031">
        <ele>355.23364257812</ele>
        <time>2020-01-16T09:42:32 0100</time>
      </trkpt>
      <trkpt lat="47.24641" lon="4.96031">
        <ele>355.24005126953</ele>
        <time>2020-01-16T09:42:36 0100</time>
      </trkpt>
      <trkpt lat="47.24641" lon="4.96032">
        <ele>355.24682617188</ele>
        <time>2020-01-16T09:42:40 0100</time>
      </trkpt>
      <trkpt lat="47.24641" lon="4.96032">
        <ele>355.23376464844</ele>
        <time>2020-01-16T09:42:44 0100</time>
      </trkpt>
      <trkpt lat="47.24641" lon="4.96033">
        <ele>355.20947265625</ele>
        <time>2020-01-16T09:42:48 0100</time>
      </trkpt>
      <trkpt lat="47.24641" lon="4.96034">
        <ele>355.1662902832</ele>
        <time>2020-01-16T09:42:52 0100</time>
      </trkpt>
      <trkpt lat="47.2464" lon="4.96033">
        <ele>355.11209106445</ele>
        <time>2020-01-16T09:42:56 0100</time>
      </trkpt>
      <trkpt lat="47.2464" lon="4.96033">
        <ele>355.04983520508</ele>
        <time>2020-01-16T09:43:00 0100</time>
      </trkpt>
      <trkpt lat="47.2464" lon="4.96033">
        <ele>354.97885131836</ele>
        <time>2020-01-16T09:43:04 0100</time>
      </trkpt>
      <trkpt lat="47.2464" lon="4.96033">
        <ele>354.88958740234</ele>
        <time>2020-01-16T09:43:08 0100</time>
      </trkpt>
      <trkpt lat="47.2464" lon="4.96033">
        <ele>354.80868530273</ele>
        <time>2020-01-16T09:43:12 0100</time>
      </trkpt>
      <trkpt lat="47.2464" lon="4.96034">
        <ele>354.7409362793</ele>
        <time>2020-01-16T09:43:16 0100</time>
      </trkpt>
      <trkpt lat="47.24639" lon="4.96034">
        <ele>354.66876220703</ele>
        <time>2020-01-16T09:43:20 0100</time>
      </trkpt>
      <trkpt lat="47.24639" lon="4.9604">
        <ele>354.19641113281</ele>
        <time>2020-01-16T09:43:24 0100</time>
      </trkpt>
      <trkpt lat="47.24638" lon="4.96041">
        <ele>354.12072753906</ele>
        <time>2020-01-16T09:43:28 0100</time>
      </trkpt>
      <trkpt lat="47.24638" lon="4.96041">
        <ele>354.04348754883</ele>
        <time>2020-01-16T09:43:32 0100</time>
      </trkpt>
      <trkpt lat="47.24638" lon="4.96041">
        <ele>353.99096679688</ele>
        <time>2020-01-16T09:43:36 0100</time>
      </trkpt>
      <trkpt lat="47.24638" lon="4.96041">
        <ele>353.97775268555</ele>
        <time>2020-01-16T09:43:40 0100</time>
      </trkpt>
      <trkpt lat="47.24637" lon="4.96041">
        <ele>353.97579956055</ele>
        <time>2020-01-16T09:43:44 0100</time>
      </trkpt>
      <trkpt lat="47.24637" lon="4.9604">
        <ele>353.98345947266</ele>
        <time>2020-01-16T09:43:48 0100</time>
      </trkpt>
      <trkpt lat="47.24637" lon="4.9604">
        <ele>354.04223632812</ele>
        <time>2020-01-16T09:43:52 0100</time>
      </trkpt>
      <trkpt lat="47.24637" lon="4.9604">
        <ele>354.11083984375</ele>
        <time>2020-01-16T09:43:56 0100</time>
      </trkpt>
      <trkpt lat="47.24637" lon="4.9604">
        <ele>354.17434692383</ele>
        <time>2020-01-16T09:44:00 0100</time>
      </trkpt>
      <trkpt lat="47.24637" lon="4.9604">
        <ele>354.22509765625</ele>
        <time>2020-01-16T09:44:04 0100</time>
      </trkpt>
      <trkpt lat="47.24636" lon="4.9604">
        <ele>354.25280761719</ele>
        <time>2020-01-16T09:44:08 0100</time>
      </trkpt>
      <trkpt lat="47.24634" lon="4.96046">
        <ele>354.34338378906</ele>
        <time>2020-01-16T09:44:12 0100</time>
      </trkpt>
      <trkpt lat="47.24634" lon="4.96046">
        <ele>354.35717773438</ele>
        <time>2020-01-16T09:44:16 0100</time>
      </trkpt>
      <trkpt lat="47.24634" lon="4.96046">
        <ele>354.37551879883</ele>
        <time>2020-01-16T09:44:20 0100</time>
      </trkpt>
      <trkpt lat="47.24634" lon="4.96047">
        <ele>354.39462280273</ele>
        <time>2020-01-16T09:44:24 0100</time>
      </trkpt>
      <trkpt lat="47.24634" lon="4.96047">
        <ele>354.40075683594</ele>
        <time>2020-01-16T09:44:28 0100</time>
      </trkpt>
      <trkpt lat="47.24634" lon="4.96047">
        <ele>354.40396118164</ele>
        <time>2020-01-16T09:44:32 0100</time>
      </trkpt>
      <trkpt lat="47.24634" lon="4.96047">
        <ele>354.41018676758</ele>
        <time>2020-01-16T09:44:36 0100</time>
      </trkpt>
      <trkpt lat="47.24633" lon="4.96046">
        <ele>354.42150878906</ele>
        <time>2020-01-16T09:44:40 0100</time>
      </trkpt>
      <trkpt lat="47.24633" lon="4.96046">
        <ele>354.43557739258</ele>
        <time>2020-01-16T09:44:44 0100</time>
      </trkpt>
      <trkpt lat="47.24633" lon="4.96047">
        <ele>354.44772338867</ele>
        <time>2020-01-16T09:44:48 0100</time>
      </trkpt>
      <trkpt lat="47.24633" lon="4.96048">
        <ele>354.45129394531</ele>
        <time>2020-01-16T09:44:52 0100</time>
      </trkpt>
      <trkpt lat="47.24632" lon="4.96053">
        <ele>354.40277099609</ele>
        <time>2020-01-16T09:44:56 0100</time>
      </trkpt>
      <trkpt lat="47.24632" lon="4.96053">
        <ele>354.35552978516</ele>
        <time>2020-01-16T09:45:00 0100</time>
      </trkpt>
      <trkpt lat="47.24632" lon="4.96053">
        <ele>354.28015136719</ele>
        <time>2020-01-16T09:45:04 0100</time>
      </trkpt>
      <trkpt lat="47.24632" lon="4.96053">
        <ele>354.18283081055</ele>
        <time>2020-01-16T09:45:08 0100</time>
      </trkpt>
      <trkpt lat="47.24632" lon="4.96054">
        <ele>354.06655883789</ele>
        <time>2020-01-16T09:45:12 0100</time>
      </trkpt>
      <trkpt lat="47.24632" lon="4.96054">
        <ele>353.95181274414</ele>
        <time>2020-01-16T09:45:16 0100</time>
      </trkpt>
      <trkpt lat="47.24631" lon="4.96054">
        <ele>353.8444519043</ele>
        <time>2020-01-16T09:45:20 0100</time>
      </trkpt>
      <trkpt lat="47.24631" lon="4.96055">
        <ele>353.74380493164</ele>
        <time>2020-01-16T09:45:24 0100</time>
      </trkpt>
      <trkpt lat="47.24631" lon="4.96054">
        <ele>353.65036010742</ele>
        <time>2020-01-16T09:45:28 0100</time>
      </trkpt>
      <trkpt lat="47.24631" lon="4.96054">
        <ele>353.55645751953</ele>
        <time>2020-01-16T09:45:32 0100</time>
      </trkpt>
      <trkpt lat="47.24631" lon="4.96054">
        <ele>353.46432495117</ele>
        <time>2020-01-16T09:45:36 0100</time>
      </trkpt>
      <trkpt lat="47.2463" lon="4.96054">
        <ele>353.37405395508</ele>
        <time>2020-01-16T09:45:40 0100</time>
      </trkpt>
      <trkpt lat="47.2463" lon="4.96053">
        <ele>353.24664306641</ele>
        <time>2020-01-16T09:45:44 0100</time>
      </trkpt>
      <trkpt lat="47.2463" lon="4.96053">
        <ele>353.09814453125</ele>
        <time>2020-01-16T09:45:48 0100</time>
      </trkpt>
      <trkpt lat="47.2463" lon="4.96053">
        <ele>352.9421081543</ele>
        <time>2020-01-16T09:45:52 0100</time>
      </trkpt>
      <trkpt lat="47.2463" lon="4.96052">
        <ele>352.78573608398</ele>
        <time>2020-01-16T09:45:56 0100</time>
      </trkpt>
      <trkpt lat="47.24629" lon="4.96051">
        <ele>352.61602783203</ele>
        <time>2020-01-16T09:46:00 0100</time>
      </trkpt>
      <trkpt lat="47.24629" lon="4.96051">
        <ele>352.44125366211</ele>
        <time>2020-01-16T09:46:04 0100</time>
      </trkpt>
      <trkpt lat="47.24629" lon="4.96051">
        <ele>352.26202392578</ele>
        <time>2020-01-16T09:46:08 0100</time>
      </trkpt>
      <trkpt lat="47.24629" lon="4.96052">
        <ele>352.10784912109</ele>
        <time>2020-01-16T09:46:12 0100</time>
      </trkpt>
      <trkpt lat="47.24629" lon="4.96052">
        <ele>351.95626831055</ele>
        <time>2020-01-16T09:46:16 0100</time>
      </trkpt>
      <trkpt lat="47.24629" lon="4.96053">
        <ele>351.80776977539</ele>
        <time>2020-01-16T09:46:20 0100</time>
      </trkpt>
      <trkpt lat="47.2463" lon="4.96052">
        <ele>351.66900634766</ele>
        <time>2020-01-16T09:46:24 0100</time>
      </trkpt>
      <trkpt lat="47.2463" lon="4.96052">
        <ele>351.54232788086</ele>
        <time>2020-01-16T09:46:28 0100</time>
      </trkpt>
      <trkpt lat="47.2463" lon="4.96052">
        <ele>351.43515014648</ele>
        <time>2020-01-16T09:46:32 0100</time>
      </trkpt>
      <trkpt lat="47.2463" lon="4.96052">
        <ele>351.32876586914</ele>
        <time>2020-01-16T09:46:36 0100</time>
      </trkpt>
      <trkpt lat="47.2463" lon="4.96053">
        <ele>351.22283935547</ele>
        <time>2020-01-16T09:46:40 0100</time>
      </trkpt>
      <trkpt lat="47.24631" lon="4.96053">
        <ele>350.87911987305</ele>
        <time>2020-01-16T09:46:44 0100</time>
      </trkpt>
      <trkpt lat="47.24633" lon="4.96053">
        <ele>349.85217285156</ele>
        <time>2020-01-16T09:46:48 0100</time>
      </trkpt>
      <trkpt lat="47.24634" lon="4.96055">
        <ele>348.9817199707</ele>
        <time>2020-01-16T09:46:52 0100</time>
      </trkpt>
      <trkpt lat="47.24634" lon="4.96057">
        <ele>348.41003417969</ele>
        <time>2020-01-16T09:46:56 0100</time>
      </trkpt>
      <trkpt lat="47.24635" lon="4.96059">
        <ele>348.00588989258</ele>
        <time>2020-01-16T09:47:00 0100</time>
      </trkpt>
      <trkpt lat="47.24635" lon="4.96063">
        <ele>347.80847167969</ele>
        <time>2020-01-16T09:47:04 0100</time>
      </trkpt>
      <trkpt lat="47.24635" lon="4.96065">
        <ele>347.7214050293</ele>
        <time>2020-01-16T09:47:08 0100</time>
      </trkpt>
      <trkpt lat="47.24636" lon="4.96073">
        <ele>347.69897460938</ele>
        <time>2020-01-16T09:47:12 0100</time>
      </trkpt>
      <trkpt lat="47.24635" lon="4.96075">
        <ele>347.70886230469</ele>
        <time>2020-01-16T09:47:16 0100</time>
      </trkpt>
      <trkpt lat="47.24634" lon="4.96081">
        <ele>347.78286743164</ele>
        <time>2020-01-16T09:47:20 0100</time>
      </trkpt>
      <trkpt lat="47.24634" lon="4.96084">
        <ele>347.88516235352</ele>
        <time>2020-01-16T09:47:24 0100</time>
      </trkpt>
      <trkpt lat="47.24633" lon="4.96097">
        <ele>348.03305053711</ele>
        <time>2020-01-16T09:47:28 0100</time>
      </trkpt>
      <trkpt lat="47.24634" lon="4.96113">
        <ele>347.97412109375</ele>
        <time>2020-01-16T09:47:33 0100</time>
      </trkpt>
      <trkpt lat="47.24633" lon="4.96116">
        <ele>347.74151611328</ele>
        <time>2020-01-16T09:47:37 0100</time>
      </trkpt>
      <trkpt lat="47.24631" lon="4.96118">
        <ele>347.61181640625</ele>
        <time>2020-01-16T09:47:41 0100</time>
      </trkpt>
      <trkpt lat="47.2463" lon="4.96127">
        <ele>347.5048828125</ele>
        <time>2020-01-16T09:47:45 0100</time>
      </trkpt>
      <trkpt lat="47.24629" lon="4.96133">
        <ele>347.44998168945</ele>
        <time>2020-01-16T09:47:49 0100</time>
      </trkpt>
      <trkpt lat="47.24629" lon="4.96135">
        <ele>347.43655395508</ele>
        <time>2020-01-16T09:47:53 0100</time>
      </trkpt>
      <trkpt lat="47.24627" lon="4.96137">
        <ele>347.41369628906</ele>
        <time>2020-01-16T09:47:57 0100</time>
      </trkpt>
      <trkpt lat="47.24625" lon="4.96143">
        <ele>347.38543701172</ele>
        <time>2020-01-16T09:48:01 0100</time>
      </trkpt>
      <trkpt lat="47.24625" lon="4.96145">
        <ele>347.37191772461</ele>
        <time>2020-01-16T09:48:05 0100</time>
      </trkpt>
      <trkpt lat="47.24625" lon="4.96147">
        <ele>347.35168457031</ele>
        <time>2020-01-16T09:48:09 0100</time>
      </trkpt>
      <trkpt lat="47.24625" lon="4.96151">
        <ele>347.34387207031</ele>
        <time>2020-01-16T09:48:13 0100</time>
      </trkpt>
      <trkpt lat="47.24626" lon="4.96154">
        <ele>347.32943725586</ele>
        <time>2020-01-16T09:48:17 0100</time>
      </trkpt>
      <trkpt lat="47.24625" lon="4.96153">
        <ele>347.33242797852</ele>
        <time>2020-01-16T09:48:21 0100</time>
      </trkpt>
      <trkpt lat="47.24625" lon="4.96152">
        <ele>347.33895874023</ele>
        <time>2020-01-16T09:48:25 0100</time>
      </trkpt>
      <trkpt lat="47.24625" lon="4.96151">
        <ele>347.34725952148</ele>
        <time>2020-01-16T09:48:29 0100</time>
      </trkpt>
      <trkpt lat="47.24626" lon="4.9615">
        <ele>347.4319152832</ele>
        <time>2020-01-16T09:48:33 0100</time>
      </trkpt>
      <trkpt lat="47.24627" lon="4.9615">
        <ele>347.52142333984</ele>
        <time>2020-01-16T09:48:37 0100</time>
      </trkpt>
      <trkpt lat="47.2463" lon="4.96153">
        <ele>347.59823608398</ele>
        <time>2020-01-16T09:48:41 0100</time>
      </trkpt>
      <trkpt lat="47.24635" lon="4.96165">
        <ele>347.62112426758</ele>
        <time>2020-01-16T09:48:45 0100</time>
      </trkpt>
      <trkpt lat="47.24636" lon="4.96162">
        <ele>347.60803222656</ele>
        <time>2020-01-16T09:48:49 0100</time>
      </trkpt>
      <trkpt lat="47.24638" lon="4.96161">
        <ele>347.595703125</ele>
        <time>2020-01-16T09:48:53 0100</time>
      </trkpt>
      <trkpt lat="47.24641" lon="4.96159">
        <ele>347.67950439453</ele>
        <time>2020-01-16T09:48:57 0100</time>
      </trkpt>
      <trkpt lat="47.24645" lon="4.96158">
        <ele>347.98846435547</ele>
        <time>2020-01-16T09:49:01 0100</time>
      </trkpt>
      <trkpt lat="47.24647" lon="4.96157">
        <ele>348.09350585938</ele>
        <time>2020-01-16T09:49:05 0100</time>
      </trkpt>
      <trkpt lat="47.24651" lon="4.96156">
        <ele>348.40719604492</ele>
        <time>2020-01-16T09:49:09 0100</time>
      </trkpt>
      <trkpt lat="47.24654" lon="4.96156">
        <ele>348.72296142578</ele>
        <time>2020-01-16T09:49:13 0100</time>
      </trkpt>
      <trkpt lat="47.24658" lon="4.96156">
        <ele>349.02563476562</ele>
        <time>2020-01-16T09:49:17 0100</time>
      </trkpt>
      <trkpt lat="47.24661" lon="4.96158">
        <ele>349.39828491211</ele>
        <time>2020-01-16T09:49:21 0100</time>
      </trkpt>
      <trkpt lat="47.24661" lon="4.96158">
        <ele>349.71914672852</ele>
        <time>2020-01-16T09:49:25 0100</time>
      </trkpt>
      <trkpt lat="47.24661" lon="4.96159">
        <ele>349.93658447266</ele>
        <time>2020-01-16T09:49:29 0100</time>
      </trkpt>
      <trkpt lat="47.24662" lon="4.9616">
        <ele>349.98510742188</ele>
        <time>2020-01-16T09:49:33 0100</time>
      </trkpt>
      <trkpt lat="47.24663" lon="4.96161">
        <ele>350.04455566406</ele>
        <time>2020-01-16T09:49:37 0100</time>
      </trkpt>
      <trkpt lat="47.24668" lon="4.96169">
        <ele>350.60760498047</ele>
        <time>2020-01-16T09:49:41 0100</time>
      </trkpt>
      <trkpt lat="47.2467" lon="4.96172">
        <ele>351.05209350586</ele>
        <time>2020-01-16T09:49:45 0100</time>
      </trkpt>
      <trkpt lat="47.24671" lon="4.96175">
        <ele>351.49935913086</ele>
        <time>2020-01-16T09:49:49 0100</time>
      </trkpt>
      <trkpt lat="47.24672" lon="4.96178">
        <ele>351.74099731445</ele>
        <time>2020-01-16T09:49:53 0100</time>
      </trkpt>
      <trkpt lat="47.24675" lon="4.96183">
        <ele>352.11544799805</ele>
        <time>2020-01-16T09:49:57 0100</time>
      </trkpt>
      <trkpt lat="47.24675" lon="4.96185">
        <ele>352.24551391602</ele>
        <time>2020-01-16T09:50:01 0100</time>
      </trkpt>
      <trkpt lat="47.24678" lon="4.96191">
        <ele>352.38946533203</ele>
        <time>2020-01-16T09:50:05 0100</time>
      </trkpt>
      <trkpt lat="47.24681" lon="4.96198">
        <ele>352.56451416016</ele>
        <time>2020-01-16T09:50:09 0100</time>
      </trkpt>
      <trkpt lat="47.24683" lon="4.96204">
        <ele>352.58508300781</ele>
        <time>2020-01-16T09:50:13 0100</time>
      </trkpt>
      <trkpt lat="47.24683" lon="4.96204">
        <ele>352.59692382812</ele>
        <time>2020-01-16T09:50:17 0100</time>
      </trkpt>
      <trkpt lat="47.24683" lon="4.96204">
        <ele>352.62463378906</ele>
        <time>2020-01-16T09:50:21 0100</time>
      </trkpt>
      <trkpt lat="47.24683" lon="4.96206">
        <ele>352.67694091797</ele>
        <time>2020-01-16T09:50:25 0100</time>
      </trkpt>
      <trkpt lat="47.24684" lon="4.96206">
        <ele>352.73300170898</ele>
        <time>2020-01-16T09:50:29 0100</time>
      </trkpt>
      <trkpt lat="47.24684" lon="4.96206">
        <ele>352.77947998047</ele>
        <time>2020-01-16T09:50:33 0100</time>
      </trkpt>
      <trkpt lat="47.24683" lon="4.96208">
        <ele>352.94610595703</ele>
        <time>2020-01-16T09:50:37 0100</time>
      </trkpt>
      <trkpt lat="47.24683" lon="4.96209">
        <ele>353.00531005859</ele>
        <time>2020-01-16T09:50:41 0100</time>
      </trkpt>
      <trkpt lat="47.24683" lon="4.9621">
        <ele>353.05303955078</ele>
        <time>2020-01-16T09:50:45 0100</time>
      </trkpt>
      <trkpt lat="47.24683" lon="4.9621">
        <ele>353.08676147461</ele>
        <time>2020-01-16T09:50:49 0100</time>
      </trkpt>
      <trkpt lat="47.24683" lon="4.96211">
        <ele>353.0920715332</ele>
        <time>2020-01-16T09:50:53 0100</time>
      </trkpt>
      <trkpt lat="47.24684" lon="4.96212">
        <ele>353.07702636719</ele>
        <time>2020-01-16T09:50:57 0100</time>
      </trkpt>
      <trkpt lat="47.24684" lon="4.96213">
        <ele>353.06195068359</ele>
        <time>2020-01-16T09:51:01 0100</time>
      </trkpt>
      <trkpt lat="47.24684" lon="4.96214">
        <ele>353.04052734375</ele>
        <time>2020-01-16T09:51:05 0100</time>
      </trkpt>
      <trkpt lat="47.24685" lon="4.96217">
        <ele>353.02056884766</ele>
        <time>2020-01-16T09:51:09 0100</time>
      </trkpt>
      <trkpt lat="47.24685" lon="4.96218">
        <ele>353.005859375</ele>
        <time>2020-01-16T09:51:13 0100</time>
      </trkpt>
      <trkpt lat="47.24685" lon="4.96218">
        <ele>352.97964477539</ele>
        <time>2020-01-16T09:51:17 0100</time>
      </trkpt>
      <trkpt lat="47.24685" lon="4.96218">
        <ele>352.9475402832</ele>
        <time>2020-01-16T09:51:21 0100</time>
      </trkpt>
      <trkpt lat="47.24686" lon="4.96219">
        <ele>352.83142089844</ele>
        <time>2020-01-16T09:51:25 0100</time>
      </trkpt>
      <trkpt lat="47.24688" lon="4.96223">
        <ele>352.65310668945</ele>
        <time>2020-01-16T09:51:29 0100</time>
      </trkpt>
      <trkpt lat="47.24688" lon="4.96224">
        <ele>352.62210083008</ele>
        <time>2020-01-16T09:51:33 0100</time>
      </trkpt>
      <trkpt lat="47.2469" lon="4.96226">
        <ele>352.59451293945</ele>
        <time>2020-01-16T09:51:37 0100</time>
      </trkpt>
      <trkpt lat="47.2469" lon="4.96226">
        <ele>352.57302856445</ele>
        <time>2020-01-16T09:51:41 0100</time>
      </trkpt>
      <trkpt lat="47.24692" lon="4.96227">
        <ele>352.5451965332</ele>
        <time>2020-01-16T09:51:45 0100</time>
      </trkpt>
      <trkpt lat="47.24694" lon="4.96229">
        <ele>352.52365112305</ele>
        <time>2020-01-16T09:51:49 0100</time>
      </trkpt>
      <trkpt lat="47.24696" lon="4.96232">
        <ele>352.49783325195</ele>
        <time>2020-01-16T09:51:53 0100</time>
      </trkpt>
      <trkpt lat="47.24696" lon="4.96232">
        <ele>352.4909362793</ele>
        <time>2020-01-16T09:51:57 0100</time>
      </trkpt>
      <trkpt lat="47.24696" lon="4.96232">
        <ele>352.4817199707</ele>
        <time>2020-01-16T09:52:01 0100</time>
      </trkpt>
      <trkpt lat="47.24697" lon="4.96232">
        <ele>352.46160888672</ele>
        <time>2020-01-16T09:52:05 0100</time>
      </trkpt>
      <trkpt lat="47.24698" lon="4.96232">
        <ele>352.42883300781</ele>
        <time>2020-01-16T09:52:09 0100</time>
      </trkpt>
      <trkpt lat="47.24701" lon="4.96234">
        <ele>352.09582519531</ele>
        <time>2020-01-16T09:52:13 0100</time>
      </trkpt>
      <trkpt lat="47.24702" lon="4.96235">
        <ele>351.95181274414</ele>
        <time>2020-01-16T09:52:17 0100</time>
      </trkpt>
      <trkpt lat="47.24704" lon="4.96238">
        <ele>351.74716186523</ele>
        <time>2020-01-16T09:52:21 0100</time>
      </trkpt>
      <trkpt lat="47.24705" lon="4.96241">
        <ele>351.62725830078</ele>
        <time>2020-01-16T09:52:25 0100</time>
      </trkpt>
      <trkpt lat="47.24706" lon="4.96241">
        <ele>351.63330078125</ele>
        <time>2020-01-16T09:52:29 0100</time>
      </trkpt>
      <trkpt lat="47.24707" lon="4.96243">
        <ele>351.71655273438</ele>
        <time>2020-01-16T09:52:33 0100</time>
      </trkpt>
      <trkpt lat="47.24709" lon="4.96247">
        <ele>351.947265625</ele>
        <time>2020-01-16T09:52:37 0100</time>
      </trkpt>
      <trkpt lat="47.24709" lon="4.96247">
        <ele>351.98495483398</ele>
        <time>2020-01-16T09:52:41 0100</time>
      </trkpt>
      <trkpt lat="47.2471" lon="4.96248">
        <ele>352.03051757812</ele>
        <time>2020-01-16T09:52:45 0100</time>
      </trkpt>
      <trkpt lat="47.24713" lon="4.96251">
        <ele>352.3405456543</ele>
        <time>2020-01-16T09:52:49 0100</time>
      </trkpt>
      <trkpt lat="47.24715" lon="4.96253">
        <ele>352.64541625977</ele>
        <time>2020-01-16T09:52:53 0100</time>
      </trkpt>
      <trkpt lat="47.24716" lon="4.96253">
        <ele>352.95031738281</ele>
        <time>2020-01-16T09:52:57 0100</time>
      </trkpt>
      <trkpt lat="47.24719" lon="4.96255">
        <ele>353.38009643555</ele>
        <time>2020-01-16T09:53:01 0100</time>
      </trkpt>
      <trkpt lat="47.24722" lon="4.96257">
        <ele>353.68710327148</ele>
        <time>2020-01-16T09:53:05 0100</time>
      </trkpt>
      <trkpt lat="47.24722" lon="4.96257">
        <ele>353.88366699219</ele>
        <time>2020-01-16T09:53:09 0100</time>
      </trkpt>
      <trkpt lat="47.24724" lon="4.96258">
        <ele>354.06112670898</ele>
        <time>2020-01-16T09:53:13 0100</time>
      </trkpt>
      <trkpt lat="47.2473" lon="4.9626">
        <ele>354.40600585938</ele>
        <time>2020-01-16T09:53:17 0100</time>
      </trkpt>
      <trkpt lat="47.24735" lon="4.96263">
        <ele>354.81112670898</ele>
        <time>2020-01-16T09:53:21 0100</time>
      </trkpt>
      <trkpt lat="47.24738" lon="4.96263">
        <ele>354.91448974609</ele>
        <time>2020-01-16T09:53:25 0100</time>
      </trkpt>
      <trkpt lat="47.2474" lon="4.96265">
        <ele>354.99234008789</ele>
        <time>2020-01-16T09:53:29 0100</time>
      </trkpt>
      <trkpt lat="47.24743" lon="4.96267">
        <ele>355.11450195312</ele>
        <time>2020-01-16T09:53:33 0100</time>
      </trkpt>
      <trkpt lat="47.24744" lon="4.9627">
        <ele>355.19219970703</ele>
        <time>2020-01-16T09:53:37 0100</time>
      </trkpt>
      <trkpt lat="47.24746" lon="4.96272">
        <ele>355.20965576172</ele>
        <time>2020-01-16T09:53:41 0100</time>
      </trkpt>
      <trkpt lat="47.24746" lon="4.96273">
        <ele>355.20309448242</ele>
        <time>2020-01-16T09:53:45 0100</time>
      </trkpt>
      <trkpt lat="47.24747" lon="4.96274">
        <ele>355.16552734375</ele>
        <time>2020-01-16T09:53:49 0100</time>
      </trkpt>
      <trkpt lat="47.24747" lon="4.96275">
        <ele>355.11544799805</ele>
        <time>2020-01-16T09:53:53 0100</time>
      </trkpt>
      <trkpt lat="47.24748" lon="4.96276">
        <ele>354.9296875</ele>
        <time>2020-01-16T09:53:57 0100</time>
      </trkpt>
      <trkpt lat="47.24749" lon="4.9628">
        <ele>354.5627746582</ele>
        <time>2020-01-16T09:54:01 0100</time>
      </trkpt>
      <trkpt lat="47.24749" lon="4.9628">
        <ele>354.48770141602</ele>
        <time>2020-01-16T09:54:05 0100</time>
      </trkpt>
      <trkpt lat="47.24749" lon="4.96281">
        <ele>354.29223632812</ele>
        <time>2020-01-16T09:54:09 0100</time>
      </trkpt>
      <trkpt lat="47.2475" lon="4.96284">
        <ele>354.01034545898</ele>
        <time>2020-01-16T09:54:13 0100</time>
      </trkpt>
      <trkpt lat="47.24752" lon="4.96288">
        <ele>353.86376953125</ele>
        <time>2020-01-16T09:54:17 0100</time>
      </trkpt>
      <trkpt lat="47.24753" lon="4.96291">
        <ele>353.82501220703</ele>
        <time>2020-01-16T09:54:21 0100</time>
      </trkpt>
      <trkpt lat="47.24755" lon="4.96295">
        <ele>353.87286376953</ele>
        <time>2020-01-16T09:54:25 0100</time>
      </trkpt>
      <trkpt lat="47.24757" lon="4.96298">
        <ele>353.95797729492</ele>
        <time>2020-01-16T09:54:29 0100</time>
      </trkpt>
      <trkpt lat="47.2476" lon="4.96301">
        <ele>354.07278442383</ele>
        <time>2020-01-16T09:54:33 0100</time>
      </trkpt>
      <trkpt lat="47.24762" lon="4.96304">
        <ele>354.21780395508</ele>
        <time>2020-01-16T09:54:37 0100</time>
      </trkpt>
      <trkpt lat="47.24764" lon="4.96307">
        <ele>354.47387695312</ele>
        <time>2020-01-16T09:54:41 0100</time>
      </trkpt>
      <trkpt lat="47.24767" lon="4.96312">
        <ele>354.86614990234</ele>
        <time>2020-01-16T09:54:45 0100</time>
      </trkpt>
      <trkpt lat="47.24769" lon="4.96318">
        <ele>355.18911743164</ele>
        <time>2020-01-16T09:54:49 0100</time>
      </trkpt>
      <trkpt lat="47.2477" lon="4.9632">
        <ele>355.48770141602</ele>
        <time>2020-01-16T09:54:53 0100</time>
      </trkpt>
      <trkpt lat="47.24771" lon="4.96321">
        <ele>355.83728027344</ele>
        <time>2020-01-16T09:54:57 0100</time>
      </trkpt>
      <trkpt lat="47.24773" lon="4.96323">
        <ele>356.36505126953</ele>
        <time>2020-01-16T09:55:01 0100</time>
      </trkpt>
      <trkpt lat="47.24774" lon="4.96323">
        <ele>356.82131958008</ele>
        <time>2020-01-16T09:55:05 0100</time>
      </trkpt>
      <trkpt lat="47.24774" lon="4.96324">
        <ele>357.02554321289</ele>
        <time>2020-01-16T09:55:09 0100</time>
      </trkpt>
      <trkpt lat="47.24774" lon="4.96325">
        <ele>357.09320068359</ele>
        <time>2020-01-16T09:55:13 0100</time>
      </trkpt>
      <trkpt lat="47.24778" lon="4.96328">
        <ele>357.88552856445</ele>
        <time>2020-01-16T09:55:17 0100</time>
      </trkpt>
      <trkpt lat="47.24783" lon="4.96333">
        <ele>358.78466796875</ele>
        <time>2020-01-16T09:55:21 0100</time>
      </trkpt>
      <trkpt lat="47.24787" lon="4.96336">
        <ele>359.52517700195</ele>
        <time>2020-01-16T09:55:25 0100</time>
      </trkpt>
      <trkpt lat="47.24791" lon="4.96339">
        <ele>360.48904418945</ele>
        <time>2020-01-16T09:55:29 0100</time>
      </trkpt>
      <trkpt lat="47.24796" lon="4.96341">
        <ele>361.35733032227</ele>
        <time>2020-01-16T09:55:33 0100</time>
      </trkpt>
      <trkpt lat="47.24799" lon="4.96343">
        <ele>361.81512451172</ele>
        <time>2020-01-16T09:55:37 0100</time>
      </trkpt>
      <trkpt lat="47.24802" lon="4.96345">
        <ele>362.78726196289</ele>
        <time>2020-01-16T09:55:41 0100</time>
      </trkpt>
      <trkpt lat="47.24804" lon="4.96346">
        <ele>363.33941650391</ele>
        <time>2020-01-16T09:55:45 0100</time>
      </trkpt>
      <trkpt lat="47.24808" lon="4.96348">
        <ele>364.33728027344</ele>
        <time>2020-01-16T09:55:49 0100</time>
      </trkpt>
      <trkpt lat="47.24809" lon="4.96348">
        <ele>364.88082885742</ele>
        <time>2020-01-16T09:55:53 0100</time>
      </trkpt>
      <trkpt lat="47.24811" lon="4.96349">
        <ele>365.61056518555</ele>
        <time>2020-01-16T09:55:57 0100</time>
      </trkpt>
      <trkpt lat="47.24812" lon="4.9635">
        <ele>366.14541625977</ele>
        <time>2020-01-16T09:56:01 0100</time>
      </trkpt>
      <trkpt lat="47.24815" lon="4.96352">
        <ele>366.87664794922</ele>
        <time>2020-01-16T09:56:05 0100</time>
      </trkpt>
      <trkpt lat="47.24817" lon="4.96353">
        <ele>367.58163452148</ele>
        <time>2020-01-16T09:56:09 0100</time>
      </trkpt>
      <trkpt lat="47.24823" lon="4.96352">
        <ele>368.45700073242</ele>
        <time>2020-01-16T09:56:13 0100</time>
      </trkpt>
      <trkpt lat="47.24826" lon="4.96352">
        <ele>369.26681518555</ele>
        <time>2020-01-16T09:56:17 0100</time>
      </trkpt>
      <trkpt lat="47.24828" lon="4.96353">
        <ele>369.92074584961</ele>
        <time>2020-01-16T09:56:21 0100</time>
      </trkpt>
      <trkpt lat="47.2483" lon="4.96353">
        <ele>370.83090209961</ele>
        <time>2020-01-16T09:56:25 0100</time>
      </trkpt>
      <trkpt lat="47.24834" lon="4.96354">
        <ele>371.80908203125</ele>
        <time>2020-01-16T09:56:29 0100</time>
      </trkpt>
      <trkpt lat="47.24837" lon="4.96356">
        <ele>372.77111816406</ele>
        <time>2020-01-16T09:56:33 0100</time>
      </trkpt>
      <trkpt lat="47.2484" lon="4.96357">
        <ele>373.46923828125</ele>
        <time>2020-01-16T09:56:37 0100</time>
      </trkpt>
      <trkpt lat="47.24841" lon="4.96357">
        <ele>374.09313964844</ele>
        <time>2020-01-16T09:56:41 0100</time>
      </trkpt>
      <trkpt lat="47.24844" lon="4.96358">
        <ele>374.8434753418</ele>
        <time>2020-01-16T09:56:45 0100</time>
      </trkpt>
      <trkpt lat="47.2485" lon="4.96361">
        <ele>375.77239990234</ele>
        <time>2020-01-16T09:56:49 0100</time>
      </trkpt>
      <trkpt lat="47.24855" lon="4.96363">
        <ele>376.75183105469</ele>
        <time>2020-01-16T09:56:53 0100</time>
      </trkpt>
      <trkpt lat="47.24857" lon="4.96364">
        <ele>377.61508178711</ele>
        <time>2020-01-16T09:56:57 0100</time>
      </trkpt>
      <trkpt lat="47.24861" lon="4.96363">
        <ele>378.33428955078</ele>
        <time>2020-01-16T09:57:01 0100</time>
      </trkpt>
      <trkpt lat="47.24863" lon="4.96362">
        <ele>378.83926391602</ele>
        <time>2020-01-16T09:57:05 0100</time>
      </trkpt>
      <trkpt lat="47.24865" lon="4.9636">
        <ele>379.46228027344</ele>
        <time>2020-01-16T09:57:09 0100</time>
      </trkpt>
      <trkpt lat="47.24866" lon="4.9636">
        <ele>379.51940917969</ele>
        <time>2020-01-16T09:57:13 0100</time>
      </trkpt>
      <trkpt lat="47.24869" lon="4.96358">
        <ele>379.67001342773</ele>
        <time>2020-01-16T09:57:17 0100</time>
      </trkpt>
      <trkpt lat="47.24871" lon="4.96358">
        <ele>380.01010131836</ele>
        <time>2020-01-16T09:57:21 0100</time>
      </trkpt>
      <trkpt lat="47.24876" lon="4.96357">
        <ele>380.20349121094</ele>
        <time>2020-01-16T09:57:25 0100</time>
      </trkpt>
      <trkpt lat="47.2488" lon="4.96363">
        <ele>380.38638305664</ele>
        <time>2020-01-16T09:57:29 0100</time>
      </trkpt>
      <trkpt lat="47.24882" lon="4.96366">
        <ele>380.26666259766</ele>
        <time>2020-01-16T09:57:33 0100</time>
      </trkpt>
      <trkpt lat="47.24882" lon="4.96368">
        <ele>380.14401245117</ele>
        <time>2020-01-16T09:57:37 0100</time>
      </trkpt>
      <trkpt lat="47.24884" lon="4.96377">
        <ele>379.73956298828</ele>
        <time>2020-01-16T09:57:41 0100</time>
      </trkpt>
      <trkpt lat="47.24883" lon="4.96379">
        <ele>379.65390014648</ele>
        <time>2020-01-16T09:57:45 0100</time>
      </trkpt>
      <trkpt lat="47.24884" lon="4.96384">
        <ele>379.06967163086</ele>
        <time>2020-01-16T09:57:49 0100</time>
      </trkpt>
      <trkpt lat="47.24885" lon="4.96386">
        <ele>378.67108154297</ele>
        <time>2020-01-16T09:57:53 0100</time>
      </trkpt>
      <trkpt lat="47.24887" lon="4.96388">
        <ele>378.60095214844</ele>
        <time>2020-01-16T09:57:57 0100</time>
      </trkpt>
      <trkpt lat="47.24888" lon="4.96391">
        <ele>378.56936645508</ele>
        <time>2020-01-16T09:58:01 0100</time>
      </trkpt>
      <trkpt lat="47.24889" lon="4.96392">
        <ele>378.50103759766</ele>
        <time>2020-01-16T09:58:05 0100</time>
      </trkpt>
      <trkpt lat="47.2489" lon="4.96397">
        <ele>378.4260559082</ele>
        <time>2020-01-16T09:58:09 0100</time>
      </trkpt>
      <trkpt lat="47.24891" lon="4.96399">
        <ele>378.38998413086</ele>
        <time>2020-01-16T09:58:13 0100</time>
      </trkpt>
      <trkpt lat="47.24893" lon="4.96402">
        <ele>378.36166381836</ele>
        <time>2020-01-16T09:58:17 0100</time>
      </trkpt>
      <trkpt lat="47.24893" lon="4.96404">
        <ele>378.33850097656</ele>
        <time>2020-01-16T09:58:21 0100</time>
      </trkpt>
      <trkpt lat="47.24894" lon="4.96406">
        <ele>378.35214233398</ele>
        <time>2020-01-16T09:58:25 0100</time>
      </trkpt>
      <trkpt lat="47.24894" lon="4.96407">
        <ele>378.39065551758</ele>
        <time>2020-01-16T09:58:29 0100</time>
      </trkpt>
      <trkpt lat="47.24896" lon="4.96413">
        <ele>378.41799926758</ele>
        <time>2020-01-16T09:58:33 0100</time>
      </trkpt>
      <trkpt lat="47.24896" lon="4.96413">
        <ele>378.39706420898</ele>
        <time>2020-01-16T09:58:37 0100</time>
      </trkpt>
      <trkpt lat="47.24896" lon="4.96414">
        <ele>378.37753295898</ele>
        <time>2020-01-16T09:58:41 0100</time>
      </trkpt>
      <trkpt lat="47.24896" lon="4.96415">
        <ele>378.36572265625</ele>
        <time>2020-01-16T09:58:45 0100</time>
      </trkpt>
      <trkpt lat="47.24896" lon="4.96415">
        <ele>378.35702514648</ele>
        <time>2020-01-16T09:58:49 0100</time>
      </trkpt>
      <trkpt lat="47.24896" lon="4.96415">
        <ele>378.34167480469</ele>
        <time>2020-01-16T09:58:53 0100</time>
      </trkpt>
      <trkpt lat="47.24897" lon="4.96416">
        <ele>378.31457519531</ele>
        <time>2020-01-16T09:58:57 0100</time>
      </trkpt>
      <trkpt lat="47.24897" lon="4.96416">
        <ele>378.27517700195</ele>
        <time>2020-01-16T09:59:01 0100</time>
      </trkpt>
      <trkpt lat="47.24897" lon="4.96416">
        <ele>378.23248291016</ele>
        <time>2020-01-16T09:59:05 0100</time>
      </trkpt>
      <trkpt lat="47.24897" lon="4.96416">
        <ele>378.18209838867</ele>
        <time>2020-01-16T09:59:09 0100</time>
      </trkpt>
      <trkpt lat="47.24897" lon="4.96416">
        <ele>378.11813354492</ele>
        <time>2020-01-16T09:59:13 0100</time>
      </trkpt>
      <trkpt lat="47.24897" lon="4.96416">
        <ele>378.05044555664</ele>
        <time>2020-01-16T09:59:17 0100</time>
      </trkpt>
      <trkpt lat="47.24897" lon="4.96416">
        <ele>377.99319458008</ele>
        <time>2020-01-16T09:59:21 0100</time>
      </trkpt>
      <trkpt lat="47.24897" lon="4.96417">
        <ele>377.93316650391</ele>
        <time>2020-01-16T09:59:25 0100</time>
      </trkpt>
      <trkpt lat="47.24897" lon="4.96417">
        <ele>377.8681640625</ele>
        <time>2020-01-16T09:59:29 0100</time>
      </trkpt>
      <trkpt lat="47.24897" lon="4.96417">
        <ele>377.79751586914</ele>
        <time>2020-01-16T09:59:33 0100</time>
      </trkpt>
      <trkpt lat="47.24897" lon="4.96418">
        <ele>377.7287902832</ele>
        <time>2020-01-16T09:59:37 0100</time>
      </trkpt>
      <trkpt lat="47.24897" lon="4.96417">
        <ele>377.68051147461</ele>
        <time>2020-01-16T09:59:41 0100</time>
      </trkpt>
      <trkpt lat="47.24896" lon="4.96418">
        <ele>377.646484375</ele>
        <time>2020-01-16T09:59:45 0100</time>
      </trkpt>
      <trkpt lat="47.24896" lon="4.96418">
        <ele>377.6164855957</ele>
        <time>2020-01-16T09:59:49 0100</time>
      </trkpt>
      <trkpt lat="47.24896" lon="4.96418">
        <ele>377.58407592773</ele>
        <time>2020-01-16T09:59:53 0100</time>
      </trkpt>
      <trkpt lat="47.24896" lon="4.96418">
        <ele>377.54312133789</ele>
        <time>2020-01-16T09:59:57 0100</time>
      </trkpt>
      <trkpt lat="47.24896" lon="4.96418">
        <ele>377.49407958984</ele>
        <time>2020-01-16T10:00:01 0100</time>
      </trkpt>
      <trkpt lat="47.24896" lon="4.96418">
        <ele>377.44317626953</ele>
        <time>2020-01-16T10:00:05 0100</time>
      </trkpt>
      <trkpt lat="47.24896" lon="4.96418">
        <ele>377.39559936523</ele>
        <time>2020-01-16T10:00:09 0100</time>
      </trkpt>
      <trkpt lat="47.24896" lon="4.96418">
        <ele>377.35165405273</ele>
        <time>2020-01-16T10:00:13 0100</time>
      </trkpt>
      <trkpt lat="47.24896" lon="4.96418">
        <ele>377.30828857422</ele>
        <time>2020-01-16T10:00:17 0100</time>
      </trkpt>
      <trkpt lat="47.24896" lon="4.96418">
        <ele>377.25814819336</ele>
        <time>2020-01-16T10:00:21 0100</time>
      </trkpt>
      <trkpt lat="47.24896" lon="4.96418">
        <ele>377.21267700195</ele>
        <time>2020-01-16T10:00:25 0100</time>
      </trkpt>
      <trkpt lat="47.24896" lon="4.96418">
        <ele>377.17034912109</ele>
        <time>2020-01-16T10:00:28 0100</time>
      </trkpt>
      <trkpt lat="47.24896" lon="4.96418">
        <ele>377.13262939453</ele>
        <time>2020-01-16T10:00:32 0100</time>
      </trkpt>
      <trkpt lat="47.24896" lon="4.96416">
        <ele>376.74066162109</ele>
        <time>2020-01-16T10:00:36 0100</time>
      </trkpt>
      <trkpt lat="47.24897" lon="4.96416">
        <ele>376.7141418457</ele>
        <time>2020-01-16T10:00:40 0100</time>
      </trkpt>
      <trkpt lat="47.24897" lon="4.96416">
        <ele>376.68832397461</ele>
        <time>2020-01-16T10:00:44 0100</time>
      </trkpt>
      <trkpt lat="47.24897" lon="4.96415">
        <ele>376.65823364258</ele>
        <time>2020-01-16T10:00:48 0100</time>
      </trkpt>
      <trkpt lat="47.24897" lon="4.96417">
        <ele>376.49237060547</ele>
        <time>2020-01-16T10:00:52 0100</time>
      </trkpt>
      <trkpt lat="47.24898" lon="4.9642">
        <ele>376.38006591797</ele>
        <time>2020-01-16T10:00:56 0100</time>
      </trkpt>
      <trkpt lat="47.24898" lon="4.96422">
        <ele>376.31185913086</ele>
        <time>2020-01-16T10:01:00 0100</time>
      </trkpt>
      <trkpt lat="47.24897" lon="4.96424">
        <ele>376.29290771484</ele>
        <time>2020-01-16T10:01:04 0100</time>
      </trkpt>
      <trkpt lat="47.24897" lon="4.96427">
        <ele>376.27935791016</ele>
        <time>2020-01-16T10:01:08 0100</time>
      </trkpt>
      <trkpt lat="47.24897" lon="4.96432">
        <ele>376.29092407227</ele>
        <time>2020-01-16T10:01:12 0100</time>
      </trkpt>
      <trkpt lat="47.24897" lon="4.96433">
        <ele>376.3278503418</ele>
        <time>2020-01-16T10:01:16 0100</time>
      </trkpt>
      <trkpt lat="47.24897" lon="4.96437">
        <ele>376.41900634766</ele>
        <time>2020-01-16T10:01:20 0100</time>
      </trkpt>
      <trkpt lat="47.24899" lon="4.96447">
        <ele>376.75634765625</ele>
        <time>2020-01-16T10:01:24 0100</time>
      </trkpt>
      <trkpt lat="47.24898" lon="4.96449">
        <ele>376.92559814453</ele>
        <time>2020-01-16T10:01:28 0100</time>
      </trkpt>
      <trkpt lat="47.24897" lon="4.9645">
        <ele>376.99249267578</ele>
        <time>2020-01-16T10:01:32 0100</time>
      </trkpt>
      <trkpt lat="47.24896" lon="4.96456">
        <ele>377.06716918945</ele>
        <time>2020-01-16T10:01:36 0100</time>
      </trkpt>
      <trkpt lat="47.24895" lon="4.96467">
        <ele>377.26489257812</ele>
        <time>2020-01-16T10:01:40 0100</time>
      </trkpt>
      <trkpt lat="47.24893" lon="4.96472">
        <ele>377.38647460938</ele>
        <time>2020-01-16T10:01:44 0100</time>
      </trkpt>
      <trkpt lat="47.24891" lon="4.96477">
        <ele>377.40322875977</ele>
        <time>2020-01-16T10:01:48 0100</time>
      </trkpt>
      <trkpt lat="47.2489" lon="4.96484">
        <ele>377.26321411133</ele>
        <time>2020-01-16T10:01:52 0100</time>
      </trkpt>
      <trkpt lat="47.24888" lon="4.9649">
        <ele>377.06631469727</ele>
        <time>2020-01-16T10:01:56 0100</time>
      </trkpt>
      <trkpt lat="47.24888" lon="4.96492">
        <ele>377.00942993164</ele>
        <time>2020-01-16T10:02:00 0100</time>
      </trkpt>
      <trkpt lat="47.24886" lon="4.96497">
        <ele>376.84948730469</ele>
        <time>2020-01-16T10:02:04 0100</time>
      </trkpt>
      <trkpt lat="47.24886" lon="4.96499">
        <ele>376.84603881836</ele>
        <time>2020-01-16T10:02:08 0100</time>
      </trkpt>
      <trkpt lat="47.24886" lon="4.96504">
        <ele>376.86975097656</ele>
        <time>2020-01-16T10:02:12 0100</time>
      </trkpt>
      <trkpt lat="47.24886" lon="4.96507">
        <ele>376.88708496094</ele>
        <time>2020-01-16T10:02:16 0100</time>
      </trkpt>
      <trkpt lat="47.24886" lon="4.96511">
        <ele>377.11080932617</ele>
        <time>2020-01-16T10:02:20 0100</time>
      </trkpt>
      <trkpt lat="47.24886" lon="4.9652">
        <ele>377.32406616211</ele>
        <time>2020-01-16T10:02:24 0100</time>
      </trkpt>
      <trkpt lat="47.24886" lon="4.96526">
        <ele>377.55737304688</ele>
        <time>2020-01-16T10:02:28 0100</time>
      </trkpt>
      <trkpt lat="47.24886" lon="4.96531">
        <ele>377.65966796875</ele>
        <time>2020-01-16T10:02:32 0100</time>
      </trkpt>
      <trkpt lat="47.24886" lon="4.96535">
        <ele>377.72079467773</ele>
        <time>2020-01-16T10:02:36 0100</time>
      </trkpt>
      <trkpt lat="47.24886" lon="4.96536">
        <ele>377.7223815918</ele>
        <time>2020-01-16T10:02:40 0100</time>
      </trkpt>
      <trkpt lat="47.24889" lon="4.96546">
        <ele>377.70562744141</ele>
        <time>2020-01-16T10:02:44 0100</time>
      </trkpt>
      <trkpt lat="47.2489" lon="4.96551">
        <ele>377.48846435547</ele>
        <time>2020-01-16T10:02:48 0100</time>
      </trkpt>
      <trkpt lat="47.24894" lon="4.9656">
        <ele>377.2705078125</ele>
        <time>2020-01-16T10:02:52 0100</time>
      </trkpt>
      <trkpt lat="47.24895" lon="4.96562">
        <ele>376.93896484375</ele>
        <time>2020-01-16T10:02:56 0100</time>
      </trkpt>
      <trkpt lat="47.24897" lon="4.96566">
        <ele>376.72125244141</ele>
        <time>2020-01-16T10:03:00 0100</time>
      </trkpt>
      <trkpt lat="47.24897" lon="4.96567">
        <ele>376.65292358398</ele>
        <time>2020-01-16T10:03:04 0100</time>
      </trkpt>
      <trkpt lat="47.24899" lon="4.96575">
        <ele>376.40753173828</ele>
        <time>2020-01-16T10:03:08 0100</time>
      </trkpt>
      <trkpt lat="47.249" lon="4.96582">
        <ele>376.19293212891</ele>
        <time>2020-01-16T10:03:12 0100</time>
      </trkpt>
      <trkpt lat="47.24901" lon="4.96586">
        <ele>375.94848632812</ele>
        <time>2020-01-16T10:03:16 0100</time>
      </trkpt>
      <trkpt lat="47.24903" lon="4.9659">
        <ele>375.78692626953</ele>
        <time>2020-01-16T10:03:20 0100</time>
      </trkpt>
      <trkpt lat="47.24903" lon="4.96593">
        <ele>375.63973999023</ele>
        <time>2020-01-16T10:03:24 0100</time>
      </trkpt>
      <trkpt lat="47.24904" lon="4.96596">
        <ele>375.38568115234</ele>
        <time>2020-01-16T10:03:28 0100</time>
      </trkpt>
      <trkpt lat="47.24906" lon="4.96601">
        <ele>375.23593139648</ele>
        <time>2020-01-16T10:03:32 0100</time>
      </trkpt>
      <trkpt lat="47.24909" lon="4.96607">
        <ele>375.03857421875</ele>
        <time>2020-01-16T10:03:36 0100</time>
      </trkpt>
      <trkpt lat="47.24912" lon="4.96614">
        <ele>374.90121459961</ele>
        <time>2020-01-16T10:03:40 0100</time>
      </trkpt>
      <trkpt lat="47.24914" lon="4.96618">
        <ele>374.71533203125</ele>
        <time>2020-01-16T10:03:44 0100</time>
      </trkpt>
      <trkpt lat="47.24918" lon="4.96622">
        <ele>374.54598999023</ele>
        <time>2020-01-16T10:03:48 0100</time>
      </trkpt>
      <trkpt lat="47.2492" lon="4.96623">
        <ele>374.50021362305</ele>
        <time>2020-01-16T10:03:52 0100</time>
      </trkpt>
      <trkpt lat="47.24923" lon="4.96622">
        <ele>374.37356567383</ele>
        <time>2020-01-16T10:03:56 0100</time>
      </trkpt>
      <trkpt lat="47.24924" lon="4.96623">
        <ele>374.33236694336</ele>
        <time>2020-01-16T10:04:00 0100</time>
      </trkpt>
      <trkpt lat="47.24927" lon="4.96627">
        <ele>373.85079956055</ele>
        <time>2020-01-16T10:04:04 0100</time>
      </trkpt>
      <trkpt lat="47.24932" lon="4.96633">
        <ele>373.42547607422</ele>
        <time>2020-01-16T10:04:08 0100</time>
      </trkpt>
      <trkpt lat="47.24939" lon="4.96642">
        <ele>373.02862548828</ele>
        <time>2020-01-16T10:04:12 0100</time>
      </trkpt>
      <trkpt lat="47.2494" lon="4.96647">
        <ele>372.9313659668</ele>
        <time>2020-01-16T10:04:16 0100</time>
      </trkpt>
      <trkpt lat="47.24942" lon="4.9665">
        <ele>372.91351318359</ele>
        <time>2020-01-16T10:04:20 0100</time>
      </trkpt>
      <trkpt lat="47.24946" lon="4.96662">
        <ele>372.74044799805</ele>
        <time>2020-01-16T10:04:24 0100</time>
      </trkpt>
      <trkpt lat="47.24948" lon="4.96665">
        <ele>372.5263671875</ele>
        <time>2020-01-16T10:04:28 0100</time>
      </trkpt>
      <trkpt lat="47.24952" lon="4.96668">
        <ele>372.15496826172</ele>
        <time>2020-01-16T10:04:32 0100</time>
      </trkpt>
      <trkpt lat="47.24955" lon="4.96667">
        <ele>371.62673950195</ele>
        <time>2020-01-16T10:04:36 0100</time>
      </trkpt>
      <trkpt lat="47.24959" lon="4.96666">
        <ele>371.38394165039</ele>
        <time>2020-01-16T10:04:40 0100</time>
      </trkpt>
      <trkpt lat="47.24963" lon="4.96669">
        <ele>371.01184082031</ele>
        <time>2020-01-16T10:04:44 0100</time>
      </trkpt>
      <trkpt lat="47.24967" lon="4.96672">
        <ele>370.56622314453</ele>
        <time>2020-01-16T10:04:48 0100</time>
      </trkpt>
      <trkpt lat="47.24971" lon="4.96673">
        <ele>370.11724853516</ele>
        <time>2020-01-16T10:04:52 0100</time>
      </trkpt>
      <trkpt lat="47.24976" lon="4.96675">
        <ele>369.55111694336</ele>
        <time>2020-01-16T10:04:56 0100</time>
      </trkpt>
      <trkpt lat="47.24977" lon="4.96676">
        <ele>368.60733032227</ele>
        <time>2020-01-16T10:05:00 0100</time>
      </trkpt>
      <trkpt lat="47.24978" lon="4.96677">
        <ele>367.43246459961</ele>
        <time>2020-01-16T10:05:04 0100</time>
      </trkpt>
      <trkpt lat="47.24983" lon="4.96681">
        <ele>367.02682495117</ele>
        <time>2020-01-16T10:05:08 0100</time>
      </trkpt>
      <trkpt lat="47.24985" lon="4.96685">
        <ele>366.52239990234</ele>
        <time>2020-01-16T10:05:12 0100</time>
      </trkpt>
      <trkpt lat="47.2499" lon="4.96694">
        <ele>365.5852355957</ele>
        <time>2020-01-16T10:05:16 0100</time>
      </trkpt>
      <trkpt lat="47.24991" lon="4.96701">
        <ele>364.01025390625</ele>
        <time>2020-01-16T10:05:20 0100</time>
      </trkpt>
      <trkpt lat="47.24992" lon="4.96707">
        <ele>362.61239624023</ele>
        <time>2020-01-16T10:05:24 0100</time>
      </trkpt>
      <trkpt lat="47.24992" lon="4.9671">
        <ele>361.33450317383</ele>
        <time>2020-01-16T10:05:28 0100</time>
      </trkpt>
      <trkpt lat="47.24996" lon="4.96717">
        <ele>360.76495361328</ele>
        <time>2020-01-16T10:05:32 0100</time>
      </trkpt>
      <trkpt lat="47.24996" lon="4.96719">
        <ele>360.53530883789</ele>
        <time>2020-01-16T10:05:36 0100</time>
      </trkpt>
      <trkpt lat="47.24999" lon="4.96722">
        <ele>360.37170410156</ele>
        <time>2020-01-16T10:05:40 0100</time>
      </trkpt>
      <trkpt lat="47.24999" lon="4.96723">
        <ele>360.19686889648</ele>
        <time>2020-01-16T10:05:44 0100</time>
      </trkpt>
      <trkpt lat="47.25004" lon="4.9673">
        <ele>360.03289794922</ele>
        <time>2020-01-16T10:05:48 0100</time>
      </trkpt>
      <trkpt lat="47.25006" lon="4.96732">
        <ele>359.44207763672</ele>
        <time>2020-01-16T10:05:52 0100</time>
      </trkpt>
      <trkpt lat="47.25012" lon="4.96737">
        <ele>358.39486694336</ele>
        <time>2020-01-16T10:05:56 0100</time>
      </trkpt>
      <trkpt lat="47.25017" lon="4.96739">
        <ele>357.21786499023</ele>
        <time>2020-01-16T10:06:00 0100</time>
      </trkpt>
      <trkpt lat="47.25017" lon="4.9674">
        <ele>356.29595947266</ele>
        <time>2020-01-16T10:06:04 0100</time>
      </trkpt>
      <trkpt lat="47.25016" lon="4.96744">
        <ele>355.54986572266</ele>
        <time>2020-01-16T10:06:08 0100</time>
      </trkpt>
      <trkpt lat="47.2502" lon="4.9675">
        <ele>354.60098266602</ele>
        <time>2020-01-16T10:06:12 0100</time>
      </trkpt>
      <trkpt lat="47.25021" lon="4.96751">
        <ele>354.06970214844</ele>
        <time>2020-01-16T10:06:16 0100</time>
      </trkpt>
      <trkpt lat="47.25028" lon="4.9676">
        <ele>353.3955078125</ele>
        <time>2020-01-16T10:06:20 0100</time>
      </trkpt>
      <trkpt lat="47.25029" lon="4.96764">
        <ele>352.8200378418</ele>
        <time>2020-01-16T10:06:24 0100</time>
      </trkpt>
      <trkpt lat="47.25026" lon="4.96764">
        <ele>352.69723510742</ele>
        <time>2020-01-16T10:06:28 0100</time>
      </trkpt>
      <trkpt lat="47.25026" lon="4.96764">
        <ele>352.56753540039</ele>
        <time>2020-01-16T10:06:32 0100</time>
      </trkpt>
      <trkpt lat="47.25026" lon="4.96766">
        <ele>352.44250488281</ele>
        <time>2020-01-16T10:06:36 0100</time>
      </trkpt>
      <trkpt lat="47.25026" lon="4.96768">
        <ele>352.33319091797</ele>
        <time>2020-01-16T10:06:40 0100</time>
      </trkpt>
      <trkpt lat="47.25026" lon="4.9677">
        <ele>352.23999023438</ele>
        <time>2020-01-16T10:06:44 0100</time>
      </trkpt>
      <trkpt lat="47.25026" lon="4.9677">
        <ele>352.16165161133</ele>
        <time>2020-01-16T10:06:48 0100</time>
      </trkpt>
      <trkpt lat="47.25027" lon="4.96771">
        <ele>352.08126831055</ele>
        <time>2020-01-16T10:06:52 0100</time>
      </trkpt>
      <trkpt lat="47.25027" lon="4.96771">
        <ele>351.99890136719</ele>
        <time>2020-01-16T10:06:56 0100</time>
      </trkpt>
      <trkpt lat="47.25027" lon="4.96772">
        <ele>351.9382019043</ele>
        <time>2020-01-16T10:07:00 0100</time>
      </trkpt>
      <trkpt lat="47.25027" lon="4.96772">
        <ele>351.88803100586</ele>
        <time>2020-01-16T10:07:04 0100</time>
      </trkpt>
      <trkpt lat="47.25028" lon="4.96772">
        <ele>351.83984375</ele>
        <time>2020-01-16T10:07:08 0100</time>
      </trkpt>
      <trkpt lat="47.25028" lon="4.96772">
        <ele>351.79275512695</ele>
        <time>2020-01-16T10:07:12 0100</time>
      </trkpt>
      <trkpt lat="47.25028" lon="4.96772">
        <ele>351.75482177734</ele>
        <time>2020-01-16T10:07:16 0100</time>
      </trkpt>
      <trkpt lat="47.25027" lon="4.96772">
        <ele>351.71444702148</ele>
        <time>2020-01-16T10:07:20 0100</time>
      </trkpt>
      <trkpt lat="47.25026" lon="4.96773">
        <ele>351.66348266602</ele>
        <time>2020-01-16T10:07:24 0100</time>
      </trkpt>
      <trkpt lat="47.25026" lon="4.96773">
        <ele>351.58923339844</ele>
        <time>2020-01-16T10:07:28 0100</time>
      </trkpt>
      <trkpt lat="47.25026" lon="4.96773">
        <ele>351.49844360352</ele>
        <time>2020-01-16T10:07:32 0100</time>
      </trkpt>
      <trkpt lat="47.25026" lon="4.96773">
        <ele>351.40170288086</ele>
        <time>2020-01-16T10:07:36 0100</time>
      </trkpt>
      <trkpt lat="47.25026" lon="4.96774">
        <ele>351.31323242188</ele>
        <time>2020-01-16T10:07:40 0100</time>
      </trkpt>
      <trkpt lat="47.25026" lon="4.96774">
        <ele>351.23422241211</ele>
        <time>2020-01-16T10:07:44 0100</time>
      </trkpt>
      <trkpt lat="47.25026" lon="4.96774">
        <ele>351.14599609375</ele>
        <time>2020-01-16T10:07:48 0100</time>
      </trkpt>
      <trkpt lat="47.25026" lon="4.96774">
        <ele>351.04626464844</ele>
        <time>2020-01-16T10:07:52 0100</time>
      </trkpt>
      <trkpt lat="47.25026" lon="4.96774">
        <ele>350.9533996582</ele>
        <time>2020-01-16T10:07:56 0100</time>
      </trkpt>
      <trkpt lat="47.25026" lon="4.96774">
        <ele>350.86703491211</ele>
        <time>2020-01-16T10:08:00 0100</time>
      </trkpt>
      <trkpt lat="47.25026" lon="4.96774">
        <ele>350.79211425781</ele>
        <time>2020-01-16T10:08:04 0100</time>
      </trkpt>
      <trkpt lat="47.25026" lon="4.96774">
        <ele>350.72821044922</ele>
        <time>2020-01-16T10:08:08 0100</time>
      </trkpt>
      <trkpt lat="47.25025" lon="4.96774">
        <ele>350.6676940918</ele>
        <time>2020-01-16T10:08:12 0100</time>
      </trkpt>
      <trkpt lat="47.25025" lon="4.96773">
        <ele>350.60531616211</ele>
        <time>2020-01-16T10:08:16 0100</time>
      </trkpt>
      <trkpt lat="47.25025" lon="4.96773">
        <ele>350.53854370117</ele>
        <time>2020-01-16T10:08:20 0100</time>
      </trkpt>
      <trkpt lat="47.25025" lon="4.96773">
        <ele>350.46841430664</ele>
        <time>2020-01-16T10:08:24 0100</time>
      </trkpt>
      <trkpt lat="47.25025" lon="4.96773">
        <ele>350.39138793945</ele>
        <time>2020-01-16T10:08:28 0100</time>
      </trkpt>
      <trkpt lat="47.25024" lon="4.96774">
        <ele>350.2971496582</ele>
        <time>2020-01-16T10:08:32 0100</time>
      </trkpt>
      <trkpt lat="47.25024" lon="4.96774">
        <ele>350.20068359375</ele>
        <time>2020-01-16T10:08:36 0100</time>
      </trkpt>
      <trkpt lat="47.25024" lon="4.96774">
        <ele>350.10775756836</ele>
        <time>2020-01-16T10:08:40 0100</time>
      </trkpt>
      <trkpt lat="47.25024" lon="4.96774">
        <ele>350.01577758789</ele>
        <time>2020-01-16T10:08:44 0100</time>
      </trkpt>
      <trkpt lat="47.25024" lon="4.96774">
        <ele>349.92263793945</ele>
        <time>2020-01-16T10:08:48 0100</time>
      </trkpt>
      <trkpt lat="47.25024" lon="4.96775">
        <ele>349.828125</ele>
        <time>2020-01-16T10:08:52 0100</time>
      </trkpt>
      <trkpt lat="47.25024" lon="4.96775">
        <ele>349.73028564453</ele>
        <time>2020-01-16T10:08:56 0100</time>
      </trkpt>
      <trkpt lat="47.25024" lon="4.96775">
        <ele>349.63662719727</ele>
        <time>2020-01-16T10:09:00 0100</time>
      </trkpt>
      <trkpt lat="47.25023" lon="4.96774">
        <ele>349.35119628906</ele>
        <time>2020-01-16T10:09:04 0100</time>
      </trkpt>
      <trkpt lat="47.25023" lon="4.96773">
        <ele>349.26919555664</ele>
        <time>2020-01-16T10:09:08 0100</time>
      </trkpt>
      <trkpt lat="47.25023" lon="4.96773">
        <ele>349.18603515625</ele>
        <time>2020-01-16T10:09:12 0100</time>
      </trkpt>
      <trkpt lat="47.25024" lon="4.96773">
        <ele>348.35662841797</ele>
        <time>2020-01-16T10:09:16 0100</time>
      </trkpt>
      <trkpt lat="47.25024" lon="4.96773">
        <ele>348.27951049805</ele>
        <time>2020-01-16T10:09:20 0100</time>
      </trkpt>
      <trkpt lat="47.25024" lon="4.96773">
        <ele>348.20825195312</ele>
        <time>2020-01-16T10:09:24 0100</time>
      </trkpt>
      <trkpt lat="47.25024" lon="4.96773">
        <ele>348.13757324219</ele>
        <time>2020-01-16T10:09:28 0100</time>
      </trkpt>
      <trkpt lat="47.25024" lon="4.96773">
        <ele>348.05630493164</ele>
        <time>2020-01-16T10:09:32 0100</time>
      </trkpt>
      <trkpt lat="47.25024" lon="4.96773">
        <ele>347.96185302734</ele>
        <time>2020-01-16T10:09:36 0100</time>
      </trkpt>
      <trkpt lat="47.25024" lon="4.96773">
        <ele>347.85848999023</ele>
        <time>2020-01-16T10:09:40 0100</time>
      </trkpt>
      <trkpt lat="47.25024" lon="4.96773">
        <ele>347.75213623047</ele>
        <time>2020-01-16T10:09:44 0100</time>
      </trkpt>
      <trkpt lat="47.25024" lon="4.96773">
        <ele>347.64349365234</ele>
        <time>2020-01-16T10:09:48 0100</time>
      </trkpt>
      <trkpt lat="47.25025" lon="4.96773">
        <ele>347.53149414062</ele>
        <time>2020-01-16T10:09:52 0100</time>
      </trkpt>
      <trkpt lat="47.25025" lon="4.96773">
        <ele>347.41567993164</ele>
        <time>2020-01-16T10:09:56 0100</time>
      </trkpt>
      <trkpt lat="47.25025" lon="4.96773">
        <ele>347.29763793945</ele>
        <time>2020-01-16T10:10:00 0100</time>
      </trkpt>
      <trkpt lat="47.25025" lon="4.96773">
        <ele>347.17422485352</ele>
        <time>2020-01-16T10:10:04 0100</time>
      </trkpt>
      <trkpt lat="47.25025" lon="4.96773">
        <ele>347.04949951172</ele>
        <time>2020-01-16T10:10:08 0100</time>
      </trkpt>
      <trkpt lat="47.25025" lon="4.96773">
        <ele>346.92321777344</ele>
        <time>2020-01-16T10:10:12 0100</time>
      </trkpt>
      <trkpt lat="47.25025" lon="4.96773">
        <ele>346.79602050781</ele>
        <time>2020-01-16T10:10:16 0100</time>
      </trkpt>
      <trkpt lat="47.25025" lon="4.96773">
        <ele>346.66848754883</ele>
        <time>2020-01-16T10:10:20 0100</time>
      </trkpt>
      <trkpt lat="47.25025" lon="4.96773">
        <ele>346.54135131836</ele>
        <time>2020-01-16T10:10:24 0100</time>
      </trkpt>
      <trkpt lat="47.25025" lon="4.96773">
        <ele>346.41540527344</ele>
        <time>2020-01-16T10:10:28 0100</time>
      </trkpt>
      <trkpt lat="47.25025" lon="4.96773">
        <ele>346.29159545898</ele>
        <time>2020-01-16T10:10:32 0100</time>
      </trkpt>
      <trkpt lat="47.25025" lon="4.96773">
        <ele>346.17092895508</ele>
        <time>2020-01-16T10:10:36 0100</time>
      </trkpt>
      <trkpt lat="47.25025" lon="4.96773">
        <ele>346.04925537109</ele>
        <time>2020-01-16T10:10:40 0100</time>
      </trkpt>
      <trkpt lat="47.25025" lon="4.96773">
        <ele>345.92419433594</ele>
        <time>2020-01-16T10:10:44 0100</time>
      </trkpt>
      <trkpt lat="47.25025" lon="4.96773">
        <ele>345.7966003418</ele>
        <time>2020-01-16T10:10:48 0100</time>
      </trkpt>
      <trkpt lat="47.25025" lon="4.96773">
        <ele>345.6657409668</ele>
        <time>2020-01-16T10:10:52 0100</time>
      </trkpt>
      <trkpt lat="47.25025" lon="4.96773">
        <ele>345.53244018555</ele>
        <time>2020-01-16T10:10:56 0100</time>
      </trkpt>
      <trkpt lat="47.25025" lon="4.96773">
        <ele>345.41250610352</ele>
        <time>2020-01-16T10:11:00 0100</time>
      </trkpt>
      <trkpt lat="47.25025" lon="4.96773">
        <ele>345.34762573242</ele>
        <time>2020-01-16T10:11:04 0100</time>
      </trkpt>
      <trkpt lat="47.25025" lon="4.96772">
        <ele>345.3020324707</ele>
        <time>2020-01-16T10:11:08 0100</time>
      </trkpt>
      <trkpt lat="47.25025" lon="4.96772">
        <ele>345.28881835938</ele>
        <time>2020-01-16T10:11:12 0100</time>
      </trkpt>
      <trkpt lat="47.25025" lon="4.96771">
        <ele>345.31253051758</ele>
        <time>2020-01-16T10:11:16 0100</time>
      </trkpt>
      <trkpt lat="47.25025" lon="4.9677">
        <ele>345.36050415039</ele>
        <time>2020-01-16T10:11:20 0100</time>
      </trkpt>
      <trkpt lat="47.25024" lon="4.9677">
        <ele>345.39501953125</ele>
        <time>2020-01-16T10:11:24 0100</time>
      </trkpt>
      <trkpt lat="47.25025" lon="4.9677">
        <ele>345.40985107422</ele>
        <time>2020-01-16T10:11:28 0100</time>
      </trkpt>
      <trkpt lat="47.25025" lon="4.96769">
        <ele>345.42446899414</ele>
        <time>2020-01-16T10:11:32 0100</time>
      </trkpt>
      <trkpt lat="47.25025" lon="4.96769">
        <ele>345.43078613281</ele>
        <time>2020-01-16T10:11:36 0100</time>
      </trkpt>
      <trkpt lat="47.25025" lon="4.96769">
        <ele>345.42892456055</ele>
        <time>2020-01-16T10:11:40 0100</time>
      </trkpt>
      <trkpt lat="47.25025" lon="4.96769">
        <ele>345.42639160156</ele>
        <time>2020-01-16T10:11:44 0100</time>
      </trkpt>
      <trkpt lat="47.25025" lon="4.96769">
        <ele>345.42590332031</ele>
        <time>2020-01-16T10:11:48 0100</time>
      </trkpt>
      <trkpt lat="47.25025" lon="4.96769">
        <ele>345.42184448242</ele>
        <time>2020-01-16T10:11:52 0100</time>
      </trkpt>
      <trkpt lat="47.25025" lon="4.96769">
        <ele>345.41549682617</ele>
        <time>2020-01-16T10:11:56 0100</time>
      </trkpt>
      <trkpt lat="47.25025" lon="4.96769">
        <ele>345.40991210938</ele>
        <time>2020-01-16T10:12:00 0100</time>
      </trkpt>
      <trkpt lat="47.25025" lon="4.96769">
        <ele>345.39889526367</ele>
        <time>2020-01-16T10:12:04 0100</time>
      </trkpt>
      <trkpt lat="47.25025" lon="4.96769">
        <ele>345.38217163086</ele>
        <time>2020-01-16T10:12:08 0100</time>
      </trkpt>
      <trkpt lat="47.25025" lon="4.96769">
        <ele>345.36108398438</ele>
        <time>2020-01-16T10:12:12 0100</time>
      </trkpt>
      <trkpt lat="47.25025" lon="4.96769">
        <ele>345.34591674805</ele>
        <time>2020-01-16T10:12:16 0100</time>
      </trkpt>
      <trkpt lat="47.25025" lon="4.96769">
        <ele>345.32833862305</ele>
        <time>2020-01-16T10:12:20 0100</time>
      </trkpt>
      <trkpt lat="47.25025" lon="4.96769">
        <ele>345.30487060547</ele>
        <time>2020-01-16T10:12:24 0100</time>
      </trkpt>
      <trkpt lat="47.25025" lon="4.9677">
        <ele>345.27655029297</ele>
        <time>2020-01-16T10:12:28 0100</time>
      </trkpt>
      <trkpt lat="47.25025" lon="4.9677">
        <ele>345.24771118164</ele>
        <time>2020-01-16T10:12:32 0100</time>
      </trkpt>
      <trkpt lat="47.25025" lon="4.9677">
        <ele>345.21887207031</ele>
        <time>2020-01-16T10:12:36 0100</time>
      </trkpt>
      <trkpt lat="47.25025" lon="4.9677">
        <ele>345.1916809082</ele>
        <time>2020-01-16T10:12:40 0100</time>
      </trkpt>
      <trkpt lat="47.25025" lon="4.9677">
        <ele>345.16137695312</ele>
        <time>2020-01-16T10:12:44 0100</time>
      </trkpt>
      <trkpt lat="47.25025" lon="4.9677">
        <ele>345.12371826172</ele>
        <time>2020-01-16T10:12:48 0100</time>
      </trkpt>
      <trkpt lat="47.25025" lon="4.96771">
        <ele>345.08038330078</ele>
        <time>2020-01-16T10:12:52 0100</time>
      </trkpt>
      <trkpt lat="47.25025" lon="4.96771">
        <ele>345.03112792969</ele>
        <time>2020-01-16T10:12:56 0100</time>
      </trkpt>
      <trkpt lat="47.25025" lon="4.96771">
        <ele>344.98345947266</ele>
        <time>2020-01-16T10:13:00 0100</time>
      </trkpt>
      <trkpt lat="47.25025" lon="4.96771">
        <ele>344.94281005859</ele>
        <time>2020-01-16T10:13:04 0100</time>
      </trkpt>
      <trkpt lat="47.25025" lon="4.96771">
        <ele>344.90451049805</ele>
        <time>2020-01-16T10:13:08 0100</time>
      </trkpt>
      <trkpt lat="47.25025" lon="4.96771">
        <ele>344.86740112305</ele>
        <time>2020-01-16T10:13:12 0100</time>
      </trkpt>
      <trkpt lat="47.25025" lon="4.96771">
        <ele>344.83142089844</ele>
        <time>2020-01-16T10:13:17 0100</time>
      </trkpt>
      <trkpt lat="47.25025" lon="4.96771">
        <ele>344.78704833984</ele>
        <time>2020-01-16T10:13:21 0100</time>
      </trkpt>
      <trkpt lat="47.25025" lon="4.96771">
        <ele>344.73739624023</ele>
        <time>2020-01-16T10:13:25 0100</time>
      </trkpt>
      <trkpt lat="47.25025" lon="4.96771">
        <ele>344.6848449707</ele>
        <time>2020-01-16T10:13:29 0100</time>
      </trkpt>
      <trkpt lat="47.25025" lon="4.96771">
        <ele>344.62823486328</ele>
        <time>2020-01-16T10:13:33 0100</time>
      </trkpt>
      <trkpt lat="47.25024" lon="4.96771">
        <ele>344.57110595703</ele>
        <time>2020-01-16T10:13:37 0100</time>
      </trkpt>
      <trkpt lat="47.25024" lon="4.96771">
        <ele>344.51892089844</ele>
        <time>2020-01-16T10:13:41 0100</time>
      </trkpt>
      <trkpt lat="47.25024" lon="4.96771">
        <ele>344.47009277344</ele>
        <time>2020-01-16T10:13:45 0100</time>
      </trkpt>
      <trkpt lat="47.25024" lon="4.96771">
        <ele>344.42782592773</ele>
        <time>2020-01-16T10:13:49 0100</time>
      </trkpt>
      <trkpt lat="47.25024" lon="4.96771">
        <ele>344.38961791992</ele>
        <time>2020-01-16T10:13:53 0100</time>
      </trkpt>
      <trkpt lat="47.25024" lon="4.96771">
        <ele>344.34820556641</ele>
        <time>2020-01-16T10:13:57 0100</time>
      </trkpt>
      <trkpt lat="47.25024" lon="4.96771">
        <ele>344.29611206055</ele>
        <time>2020-01-16T10:14:01 0100</time>
      </trkpt>
      <trkpt lat="47.25024" lon="4.96771">
        <ele>344.23532104492</ele>
        <time>2020-01-16T10:14:05 0100</time>
      </trkpt>
      <trkpt lat="47.25024" lon="4.96771">
        <ele>344.18423461914</ele>
        <time>2020-01-16T10:14:09 0100</time>
      </trkpt>
      <trkpt lat="47.25024" lon="4.96771">
        <ele>344.13214111328</ele>
        <time>2020-01-16T10:14:13 0100</time>
      </trkpt>
      <trkpt lat="47.25024" lon="4.96771">
        <ele>344.06622314453</ele>
        <time>2020-01-16T10:14:17 0100</time>
      </trkpt>
      <trkpt lat="47.25024" lon="4.96771">
        <ele>343.99798583984</ele>
        <time>2020-01-16T10:14:21 0100</time>
      </trkpt>
      <trkpt lat="47.25024" lon="4.96771">
        <ele>343.94619750977</ele>
        <time>2020-01-16T10:14:25 0100</time>
      </trkpt>
      <trkpt lat="47.25024" lon="4.9677">
        <ele>343.92398071289</ele>
        <time>2020-01-16T10:14:29 0100</time>
      </trkpt>
      <trkpt lat="47.25024" lon="4.9677">
        <ele>343.90756225586</ele>
        <time>2020-01-16T10:14:33 0100</time>
      </trkpt>
      <trkpt lat="47.25024" lon="4.9677">
        <ele>343.87878417969</ele>
        <time>2020-01-16T10:14:37 0100</time>
      </trkpt>
      <trkpt lat="47.25024" lon="4.9677">
        <ele>343.86410522461</ele>
        <time>2020-01-16T10:14:41 0100</time>
      </trkpt>
      <trkpt lat="47.25024" lon="4.9677">
        <ele>343.85467529297</ele>
        <time>2020-01-16T10:14:45 0100</time>
      </trkpt>
      <trkpt lat="47.25024" lon="4.9677">
        <ele>343.8596496582</ele>
        <time>2020-01-16T10:14:49 0100</time>
      </trkpt>
      <trkpt lat="47.25024" lon="4.9677">
        <ele>343.86727905273</ele>
        <time>2020-01-16T10:14:53 0100</time>
      </trkpt>
      <trkpt lat="47.25024" lon="4.9677">
        <ele>343.85870361328</ele>
        <time>2020-01-16T10:14:57 0100</time>
      </trkpt>
      <trkpt lat="47.25024" lon="4.9677">
        <ele>343.83255004883</ele>
        <time>2020-01-16T10:15:01 0100</time>
      </trkpt>
      <trkpt lat="47.25024" lon="4.9677">
        <ele>343.79385375977</ele>
        <time>2020-01-16T10:15:05 0100</time>
      </trkpt>
      <trkpt lat="47.25024" lon="4.9677">
        <ele>343.7536315918</ele>
        <time>2020-01-16T10:15:09 0100</time>
      </trkpt>
      <trkpt lat="47.25024" lon="4.9677">
        <ele>343.71331787109</ele>
        <time>2020-01-16T10:15:13 0100</time>
      </trkpt>
      <trkpt lat="47.25024" lon="4.9677">
        <ele>343.68084716797</ele>
        <time>2020-01-16T10:15:17 0100</time>
      </trkpt>
      <trkpt lat="47.25024" lon="4.9677">
        <ele>343.65634155273</ele>
        <time>2020-01-16T10:15:21 0100</time>
      </trkpt>
      <trkpt lat="47.25024" lon="4.9677">
        <ele>343.65005493164</ele>
        <time>2020-01-16T10:15:25 0100</time>
      </trkpt>
      <trkpt lat="47.25025" lon="4.9677">
        <ele>343.65310668945</ele>
        <time>2020-01-16T10:15:29 0100</time>
      </trkpt>
      <trkpt lat="47.25025" lon="4.9677">
        <ele>343.65716552734</ele>
        <time>2020-01-16T10:15:33 0100</time>
      </trkpt>
      <trkpt lat="47.25025" lon="4.9677">
        <ele>343.66589355469</ele>
        <time>2020-01-16T10:15:37 0100</time>
      </trkpt>
      <trkpt lat="47.25025" lon="4.9677">
        <ele>343.67358398438</ele>
        <time>2020-01-16T10:15:41 0100</time>
      </trkpt>
      <trkpt lat="47.25025" lon="4.96769">
        <ele>343.68447875977</ele>
        <time>2020-01-16T10:15:45 0100</time>
      </trkpt>
      <trkpt lat="47.25025" lon="4.96769">
        <ele>343.69473266602</ele>
        <time>2020-01-16T10:15:49 0100</time>
      </trkpt>
      <trkpt lat="47.25025" lon="4.96769">
        <ele>343.71130371094</ele>
        <time>2020-01-16T10:15:53 0100</time>
      </trkpt>
      <trkpt lat="47.25025" lon="4.96769">
        <ele>343.7341003418</ele>
        <time>2020-01-16T10:15:57 0100</time>
      </trkpt>
      <trkpt lat="47.25025" lon="4.96769">
        <ele>343.76062011719</ele>
        <time>2020-01-16T10:16:01 0100</time>
      </trkpt>
      <trkpt lat="47.25025" lon="4.96769">
        <ele>343.78848266602</ele>
        <time>2020-01-16T10:16:05 0100</time>
      </trkpt>
      <trkpt lat="47.25025" lon="4.96769">
        <ele>343.82315063477</ele>
        <time>2020-01-16T10:16:09 0100</time>
      </trkpt>
      <trkpt lat="47.25025" lon="4.96769">
        <ele>343.86410522461</ele>
        <time>2020-01-16T10:16:13 0100</time>
      </trkpt>
      <trkpt lat="47.25025" lon="4.96768">
        <ele>343.90493774414</ele>
        <time>2020-01-16T10:16:17 0100</time>
      </trkpt>
      <trkpt lat="47.25025" lon="4.96768">
        <ele>343.94625854492</ele>
        <time>2020-01-16T10:16:21 0100</time>
      </trkpt>
      <trkpt lat="47.25025" lon="4.96768">
        <ele>343.99157714844</ele>
        <time>2020-01-16T10:16:25 0100</time>
      </trkpt>
      <trkpt lat="47.25025" lon="4.96768">
        <ele>344.04110717773</ele>
        <time>2020-01-16T10:16:29 0100</time>
      </trkpt>
      <trkpt lat="47.25025" lon="4.96768">
        <ele>344.10125732422</ele>
        <time>2020-01-16T10:16:33 0100</time>
      </trkpt>
      <trkpt lat="47.25025" lon="4.96768">
        <ele>344.16613769531</ele>
        <time>2020-01-16T10:16:37 0100</time>
      </trkpt>
      <trkpt lat="47.25025" lon="4.96768">
        <ele>344.22540283203</ele>
        <time>2020-01-16T10:16:41 0100</time>
      </trkpt>
      <trkpt lat="47.25025" lon="4.96768">
        <ele>344.28494262695</ele>
        <time>2020-01-16T10:16:45 0100</time>
      </trkpt>
      <trkpt lat="47.25025" lon="4.96768">
        <ele>344.34057617188</ele>
        <time>2020-01-16T10:16:49 0100</time>
      </trkpt>
      <trkpt lat="47.25025" lon="4.96768">
        <ele>344.38928222656</ele>
        <time>2020-01-16T10:16:53 0100</time>
      </trkpt>
      <trkpt lat="47.25025" lon="4.96768">
        <ele>344.43359375</ele>
        <time>2020-01-16T10:16:57 0100</time>
      </trkpt>
      <trkpt lat="47.25025" lon="4.96768">
        <ele>344.46243286133</ele>
        <time>2020-01-16T10:17:01 0100</time>
      </trkpt>
      <trkpt lat="47.25025" lon="4.96768">
        <ele>344.48391723633</ele>
        <time>2020-01-16T10:17:05 0100</time>
      </trkpt>
      <trkpt lat="47.25024" lon="4.96768">
        <ele>344.49807739258</ele>
        <time>2020-01-16T10:17:09 0100</time>
      </trkpt>
      <trkpt lat="47.25024" lon="4.96768">
        <ele>344.52124023438</ele>
        <time>2020-01-16T10:17:13 0100</time>
      </trkpt>
      <trkpt lat="47.25024" lon="4.96768">
        <ele>344.54663085938</ele>
        <time>2020-01-16T10:17:17 0100</time>
      </trkpt>
      <trkpt lat="47.25024" lon="4.96768">
        <ele>344.57629394531</ele>
        <time>2020-01-16T10:17:21 0100</time>
      </trkpt>
      <trkpt lat="47.25024" lon="4.96768">
        <ele>344.60989379883</ele>
        <time>2020-01-16T10:17:25 0100</time>
      </trkpt>
      <trkpt lat="47.25024" lon="4.96768">
        <ele>344.64321899414</ele>
        <time>2020-01-16T10:17:29 0100</time>
      </trkpt>
      <trkpt lat="47.25024" lon="4.96768">
        <ele>344.67971801758</ele>
        <time>2020-01-16T10:17:33 0100</time>
      </trkpt>
      <trkpt lat="47.25025" lon="4.96768">
        <ele>344.72555541992</ele>
        <time>2020-01-16T10:17:37 0100</time>
      </trkpt>
      <trkpt lat="47.25025" lon="4.96768">
        <ele>344.77725219727</ele>
        <time>2020-01-16T10:17:41 0100</time>
      </trkpt>
      <trkpt lat="47.25025" lon="4.96769">
        <ele>344.83053588867</ele>
        <time>2020-01-16T10:17:45 0100</time>
      </trkpt>
      <trkpt lat="47.25025" lon="4.96769">
        <ele>344.86315917969</ele>
        <time>2020-01-16T10:17:49 0100</time>
      </trkpt>
      <trkpt lat="47.25025" lon="4.96769">
        <ele>344.88012695312</ele>
        <time>2020-01-16T10:17:53 0100</time>
      </trkpt>
      <trkpt lat="47.25025" lon="4.96769">
        <ele>344.91464233398</ele>
        <time>2020-01-16T10:17:57 0100</time>
      </trkpt>
      <trkpt lat="47.25025" lon="4.96769">
        <ele>344.95150756836</ele>
        <time>2020-01-16T10:18:01 0100</time>
      </trkpt>
      <trkpt lat="47.25025" lon="4.96769">
        <ele>344.96923828125</ele>
        <time>2020-01-16T10:18:05 0100</time>
      </trkpt>
      <trkpt lat="47.25025" lon="4.96769">
        <ele>344.99774169922</ele>
        <time>2020-01-16T10:18:09 0100</time>
      </trkpt>
      <trkpt lat="47.25025" lon="4.96769">
        <ele>345.03012084961</ele>
        <time>2020-01-16T10:18:13 0100</time>
      </trkpt>
      <trkpt lat="47.25025" lon="4.96769">
        <ele>345.06256103516</ele>
        <time>2020-01-16T10:18:17 0100</time>
      </trkpt>
      <trkpt lat="47.25026" lon="4.96769">
        <ele>345.09310913086</ele>
        <time>2020-01-16T10:18:21 0100</time>
      </trkpt>
      <trkpt lat="47.25026" lon="4.96769">
        <ele>345.11776733398</ele>
        <time>2020-01-16T10:18:25 0100</time>
      </trkpt>
      <trkpt lat="47.25026" lon="4.96769">
        <ele>345.13082885742</ele>
        <time>2020-01-16T10:18:29 0100</time>
      </trkpt>
      <trkpt lat="47.25026" lon="4.9677">
        <ele>345.1282043457</ele>
        <time>2020-01-16T10:18:33 0100</time>
      </trkpt>
      <trkpt lat="47.25026" lon="4.9677">
        <ele>345.12353515625</ele>
        <time>2020-01-16T10:18:37 0100</time>
      </trkpt>
      <trkpt lat="47.25026" lon="4.9677">
        <ele>345.11209106445</ele>
        <time>2020-01-16T10:18:41 0100</time>
      </trkpt>
      <trkpt lat="47.25026" lon="4.9677">
        <ele>345.09185791016</ele>
        <time>2020-01-16T10:18:45 0100</time>
      </trkpt>
      <trkpt lat="47.25026" lon="4.9677">
        <ele>345.07022094727</ele>
        <time>2020-01-16T10:18:49 0100</time>
      </trkpt>
      <trkpt lat="47.25026" lon="4.9677">
        <ele>345.03732299805</ele>
        <time>2020-01-16T10:18:53 0100</time>
      </trkpt>
      <trkpt lat="47.25026" lon="4.96771">
        <ele>345.01333618164</ele>
        <time>2020-01-16T10:18:57 0100</time>
      </trkpt>
      <trkpt lat="47.25026" lon="4.96771">
        <ele>344.99426269531</ele>
        <time>2020-01-16T10:19:01 0100</time>
      </trkpt>
      <trkpt lat="47.25026" lon="4.96771">
        <ele>344.97662353516</ele>
        <time>2020-01-16T10:19:05 0100</time>
      </trkpt>
      <trkpt lat="47.25026" lon="4.96771">
        <ele>344.96246337891</ele>
        <time>2020-01-16T10:19:09 0100</time>
      </trkpt>
      <trkpt lat="47.25026" lon="4.96771">
        <ele>344.94683837891</ele>
        <time>2020-01-16T10:19:13 0100</time>
      </trkpt>
      <trkpt lat="47.25025" lon="4.96771">
        <ele>344.92684936523</ele>
        <time>2020-01-16T10:19:17 0100</time>
      </trkpt>
      <trkpt lat="47.25025" lon="4.96771">
        <ele>344.90731811523</ele>
        <time>2020-01-16T10:19:21 0100</time>
      </trkpt>
      <trkpt lat="47.25025" lon="4.96771">
        <ele>344.88912963867</ele>
        <time>2020-01-16T10:19:25 0100</time>
      </trkpt>
      <trkpt lat="47.25025" lon="4.96771">
        <ele>344.86734008789</ele>
        <time>2020-01-16T10:19:29 0100</time>
      </trkpt>
      <trkpt lat="47.25025" lon="4.96771">
        <ele>344.85052490234</ele>
        <time>2020-01-16T10:19:33 0100</time>
      </trkpt>
      <trkpt lat="47.25025" lon="4.96771">
        <ele>344.83856201172</ele>
        <time>2020-01-16T10:19:37 0100</time>
      </trkpt>
      <trkpt lat="47.25025" lon="4.96771">
        <ele>344.82827758789</ele>
        <time>2020-01-16T10:19:41 0100</time>
      </trkpt>
      <trkpt lat="47.25025" lon="4.96771">
        <ele>344.82232666016</ele>
        <time>2020-01-16T10:19:45 0100</time>
      </trkpt>
      <trkpt lat="47.25025" lon="4.96771">
        <ele>344.80657958984</ele>
        <time>2020-01-16T10:19:49 0100</time>
      </trkpt>
      <trkpt lat="47.25025" lon="4.96771">
        <ele>344.78546142578</ele>
        <time>2020-01-16T10:19:53 0100</time>
      </trkpt>
      <trkpt lat="47.25025" lon="4.96771">
        <ele>344.74700927734</ele>
        <time>2020-01-16T10:19:57 0100</time>
      </trkpt>
      <trkpt lat="47.25024" lon="4.96771">
        <ele>344.69458007812</ele>
        <time>2020-01-16T10:20:01 0100</time>
      </trkpt>
      <trkpt lat="47.25024" lon="4.9677">
        <ele>344.63006591797</ele>
        <time>2020-01-16T10:20:05 0100</time>
      </trkpt>
      <trkpt lat="47.25024" lon="4.9677">
        <ele>344.55526733398</ele>
        <time>2020-01-16T10:20:09 0100</time>
      </trkpt>
      <trkpt lat="47.25024" lon="4.9677">
        <ele>344.47055053711</ele>
        <time>2020-01-16T10:20:13 0100</time>
      </trkpt>
      <trkpt lat="47.25024" lon="4.9677">
        <ele>344.38296508789</ele>
        <time>2020-01-16T10:20:17 0100</time>
      </trkpt>
      <trkpt lat="47.25024" lon="4.9677">
        <ele>344.31661987305</ele>
        <time>2020-01-16T10:20:21 0100</time>
      </trkpt>
      <trkpt lat="47.25025" lon="4.9677">
        <ele>344.25280761719</ele>
        <time>2020-01-16T10:20:25 0100</time>
      </trkpt>
      <trkpt lat="47.25025" lon="4.9677">
        <ele>344.19921875</ele>
        <time>2020-01-16T10:20:29 0100</time>
      </trkpt>
      <trkpt lat="47.25025" lon="4.9677">
        <ele>344.1513671875</ele>
        <time>2020-01-16T10:20:33 0100</time>
      </trkpt>
      <trkpt lat="47.25025" lon="4.9677">
        <ele>344.11840820312</ele>
        <time>2020-01-16T10:20:37 0100</time>
      </trkpt>
      <trkpt lat="47.25025" lon="4.9677">
        <ele>344.08984375</ele>
        <time>2020-01-16T10:20:41 0100</time>
      </trkpt>
      <trkpt lat="47.25025" lon="4.9677">
        <ele>344.06521606445</ele>
        <time>2020-01-16T10:20:45 0100</time>
      </trkpt>
      <trkpt lat="47.25025" lon="4.9677">
        <ele>344.06051635742</ele>
        <time>2020-01-16T10:20:49 0100</time>
      </trkpt>
      <trkpt lat="47.25025" lon="4.9677">
        <ele>344.10299682617</ele>
        <time>2020-01-16T10:20:53 0100</time>
      </trkpt>
      <trkpt lat="47.25025" lon="4.9677">
        <ele>344.1389465332</ele>
        <time>2020-01-16T10:20:57 0100</time>
      </trkpt>
      <trkpt lat="47.25025" lon="4.96769">
        <ele>344.18377685547</ele>
        <time>2020-01-16T10:21:01 0100</time>
      </trkpt>
      <trkpt lat="47.25025" lon="4.96769">
        <ele>344.24172973633</ele>
        <time>2020-01-16T10:21:05 0100</time>
      </trkpt>
      <trkpt lat="47.25025" lon="4.96769">
        <ele>344.31845092773</ele>
        <time>2020-01-16T10:21:09 0100</time>
      </trkpt>
      <trkpt lat="47.25025" lon="4.96769">
        <ele>344.41409301758</ele>
        <time>2020-01-16T10:21:13 0100</time>
      </trkpt>
      <trkpt lat="47.25025" lon="4.96768">
        <ele>344.50970458984</ele>
        <time>2020-01-16T10:21:17 0100</time>
      </trkpt>
      <trkpt lat="47.25025" lon="4.96768">
        <ele>344.59506225586</ele>
        <time>2020-01-16T10:21:21 0100</time>
      </trkpt>
      <trkpt lat="47.25025" lon="4.96768">
        <ele>344.66229248047</ele>
        <time>2020-01-16T10:21:25 0100</time>
      </trkpt>
      <trkpt lat="47.25025" lon="4.96768">
        <ele>344.71401977539</ele>
        <time>2020-01-16T10:21:29 0100</time>
      </trkpt>
      <trkpt lat="47.25025" lon="4.96768">
        <ele>344.75317382812</ele>
        <time>2020-01-16T10:21:33 0100</time>
      </trkpt>
      <trkpt lat="47.25025" lon="4.96768">
        <ele>344.78323364258</ele>
        <time>2020-01-16T10:21:37 0100</time>
      </trkpt>
      <trkpt lat="47.25025" lon="4.96767">
        <ele>344.80764770508</ele>
        <time>2020-01-16T10:21:41 0100</time>
      </trkpt>
      <trkpt lat="47.25025" lon="4.96767">
        <ele>344.82998657227</ele>
        <time>2020-01-16T10:21:45 0100</time>
      </trkpt>
      <trkpt lat="47.25025" lon="4.96767">
        <ele>344.84909057617</ele>
        <time>2020-01-16T10:21:49 0100</time>
      </trkpt>
      <trkpt lat="47.25025" lon="4.96767">
        <ele>344.86126708984</ele>
        <time>2020-01-16T10:21:53 0100</time>
      </trkpt>
      <trkpt lat="47.25025" lon="4.96767">
        <ele>344.8630065918</ele>
        <time>2020-01-16T10:21:57 0100</time>
      </trkpt>
      <trkpt lat="47.25025" lon="4.96767">
        <ele>344.85629272461</ele>
        <time>2020-01-16T10:22:01 0100</time>
      </trkpt>
      <trkpt lat="47.25025" lon="4.96767">
        <ele>344.84045410156</ele>
        <time>2020-01-16T10:22:05 0100</time>
      </trkpt>
      <trkpt lat="47.25025" lon="4.96767">
        <ele>344.80874633789</ele>
        <time>2020-01-16T10:22:09 0100</time>
      </trkpt>
      <trkpt lat="47.25025" lon="4.96767">
        <ele>344.7594909668</ele>
        <time>2020-01-16T10:22:13 0100</time>
      </trkpt>
      <trkpt lat="47.25025" lon="4.96767">
        <ele>344.70712280273</ele>
        <time>2020-01-16T10:22:17 0100</time>
      </trkpt>
      <trkpt lat="47.25025" lon="4.96769">
        <ele>344.60284423828</ele>
        <time>2020-01-16T10:22:21 0100</time>
      </trkpt>
      <trkpt lat="47.25025" lon="4.96771">
        <ele>344.50366210938</ele>
        <time>2020-01-16T10:22:25 0100</time>
      </trkpt>
      <trkpt lat="47.25025" lon="4.96771">
        <ele>344.46829223633</ele>
        <time>2020-01-16T10:22:29 0100</time>
      </trkpt>
      <trkpt lat="47.25024" lon="4.96771">
        <ele>344.41003417969</ele>
        <time>2020-01-16T10:22:33 0100</time>
      </trkpt>
      <trkpt lat="47.25023" lon="4.96772">
        <ele>344.21044921875</ele>
        <time>2020-01-16T10:22:37 0100</time>
      </trkpt>
      <trkpt lat="47.25023" lon="4.96772">
        <ele>344.06204223633</ele>
        <time>2020-01-16T10:22:41 0100</time>
      </trkpt>
      <trkpt lat="47.25026" lon="4.9677">
        <ele>344.01593017578</ele>
        <time>2020-01-16T10:22:45 0100</time>
      </trkpt>
      <trkpt lat="47.25025" lon="4.9677">
        <ele>343.98806762695</ele>
        <time>2020-01-16T10:22:49 0100</time>
      </trkpt>
      <trkpt lat="47.25025" lon="4.96771">
        <ele>343.97766113281</ele>
        <time>2020-01-16T10:22:53 0100</time>
      </trkpt>
      <trkpt lat="47.25025" lon="4.96771">
        <ele>343.97329711914</ele>
        <time>2020-01-16T10:22:57 0100</time>
      </trkpt>
      <trkpt lat="47.25024" lon="4.96771">
        <ele>343.9714050293</ele>
        <time>2020-01-16T10:23:01 0100</time>
      </trkpt>
      <trkpt lat="47.25024" lon="4.96771">
        <ele>343.94906616211</ele>
        <time>2020-01-16T10:23:05 0100</time>
      </trkpt>
      <trkpt lat="47.25024" lon="4.96771">
        <ele>343.93890380859</ele>
        <time>2020-01-16T10:23:09 0100</time>
      </trkpt>
      <trkpt lat="47.25024" lon="4.96772">
        <ele>343.91241455078</ele>
        <time>2020-01-16T10:23:13 0100</time>
      </trkpt>
      <trkpt lat="47.25024" lon="4.96772">
        <ele>343.87783813477</ele>
        <time>2020-01-16T10:23:17 0100</time>
      </trkpt>
      <trkpt lat="47.25024" lon="4.96772">
        <ele>343.83258056641</ele>
        <time>2020-01-16T10:23:21 0100</time>
      </trkpt>
      <trkpt lat="47.25024" lon="4.96772">
        <ele>343.77252197266</ele>
        <time>2020-01-16T10:23:25 0100</time>
      </trkpt>
      <trkpt lat="47.25024" lon="4.96772">
        <ele>343.71655273438</ele>
        <time>2020-01-16T10:23:29 0100</time>
      </trkpt>
      <trkpt lat="47.25024" lon="4.96772">
        <ele>343.66860961914</ele>
        <time>2020-01-16T10:23:33 0100</time>
      </trkpt>
      <trkpt lat="47.25024" lon="4.96773">
        <ele>343.61032104492</ele>
        <time>2020-01-16T10:23:37 0100</time>
      </trkpt>
      <trkpt lat="47.25024" lon="4.96773">
        <ele>343.54772949219</ele>
        <time>2020-01-16T10:23:41 0100</time>
      </trkpt>
      <trkpt lat="47.25024" lon="4.96773">
        <ele>343.48226928711</ele>
        <time>2020-01-16T10:23:45 0100</time>
      </trkpt>
      <trkpt lat="47.25024" lon="4.96773">
        <ele>343.42086791992</ele>
        <time>2020-01-16T10:23:49 0100</time>
      </trkpt>
      <trkpt lat="47.25024" lon="4.96773">
        <ele>343.36318969727</ele>
        <time>2020-01-16T10:23:53 0100</time>
      </trkpt>
      <trkpt lat="47.25024" lon="4.96773">
        <ele>343.31140136719</ele>
        <time>2020-01-16T10:23:57 0100</time>
      </trkpt>
      <trkpt lat="47.25024" lon="4.96773">
        <ele>343.25485229492</ele>
        <time>2020-01-16T10:24:01 0100</time>
      </trkpt>
      <trkpt lat="47.25024" lon="4.96773">
        <ele>343.18258666992</ele>
        <time>2020-01-16T10:24:05 0100</time>
      </trkpt>
      <trkpt lat="47.25024" lon="4.96774">
        <ele>343.09149169922</ele>
        <time>2020-01-16T10:24:09 0100</time>
      </trkpt>
      <trkpt lat="47.25024" lon="4.96774">
        <ele>342.99243164062</ele>
        <time>2020-01-16T10:24:13 0100</time>
      </trkpt>
      <trkpt lat="47.25024" lon="4.96775">
        <ele>342.8955078125</ele>
        <time>2020-01-16T10:24:17 0100</time>
      </trkpt>
      <trkpt lat="47.25024" lon="4.96775">
        <ele>342.80535888672</ele>
        <time>2020-01-16T10:24:21 0100</time>
      </trkpt>
      <trkpt lat="47.25024" lon="4.96776">
        <ele>342.72570800781</ele>
        <time>2020-01-16T10:24:25 0100</time>
      </trkpt>
      <trkpt lat="47.25024" lon="4.96776">
        <ele>342.66232299805</ele>
        <time>2020-01-16T10:24:29 0100</time>
      </trkpt>
      <trkpt lat="47.25024" lon="4.96776">
        <ele>342.61099243164</ele>
        <time>2020-01-16T10:24:33 0100</time>
      </trkpt>
      <trkpt lat="47.25024" lon="4.96776">
        <ele>342.56988525391</ele>
        <time>2020-01-16T10:24:37 0100</time>
      </trkpt>
      <trkpt lat="47.25024" lon="4.96776">
        <ele>342.53405761719</ele>
        <time>2020-01-16T10:24:41 0100</time>
      </trkpt>
      <trkpt lat="47.25024" lon="4.96776">
        <ele>342.50021362305</ele>
        <time>2020-01-16T10:24:45 0100</time>
      </trkpt>
      <trkpt lat="47.25023" lon="4.96777">
        <ele>342.44561767578</ele>
        <time>2020-01-16T10:24:49 0100</time>
      </trkpt>
      <trkpt lat="47.25023" lon="4.96777">
        <ele>342.37158203125</ele>
        <time>2020-01-16T10:24:53 0100</time>
      </trkpt>
      <trkpt lat="47.25023" lon="4.96777">
        <ele>342.30966186523</ele>
        <time>2020-01-16T10:24:57 0100</time>
      </trkpt>
      <trkpt lat="47.25023" lon="4.96777">
        <ele>342.25387573242</ele>
        <time>2020-01-16T10:25:01 0100</time>
      </trkpt>
      <trkpt lat="47.25022" lon="4.96777">
        <ele>342.20590209961</ele>
        <time>2020-01-16T10:25:05 0100</time>
      </trkpt>
      <trkpt lat="47.25022" lon="4.96777">
        <ele>342.14611816406</ele>
        <time>2020-01-16T10:25:09 0100</time>
      </trkpt>
      <trkpt lat="47.25022" lon="4.96777">
        <ele>342.09048461914</ele>
        <time>2020-01-16T10:25:13 0100</time>
      </trkpt>
      <trkpt lat="47.25022" lon="4.96777">
        <ele>342.04425048828</ele>
        <time>2020-01-16T10:25:17 0100</time>
      </trkpt>
      <trkpt lat="47.25022" lon="4.96778">
        <ele>342.00161743164</ele>
        <time>2020-01-16T10:25:21 0100</time>
      </trkpt>
      <trkpt lat="47.25022" lon="4.96778">
        <ele>341.95950317383</ele>
        <time>2020-01-16T10:25:25 0100</time>
      </trkpt>
      <trkpt lat="47.25022" lon="4.96778">
        <ele>341.92379760742</ele>
        <time>2020-01-16T10:25:29 0100</time>
      </trkpt>
      <trkpt lat="47.25022" lon="4.96778">
        <ele>341.89202880859</ele>
        <time>2020-01-16T10:25:33 0100</time>
      </trkpt>
      <trkpt lat="47.25022" lon="4.96778">
        <ele>341.85989379883</ele>
        <time>2020-01-16T10:25:37 0100</time>
      </trkpt>
      <trkpt lat="47.25022" lon="4.96778">
        <ele>341.82565307617</ele>
        <time>2020-01-16T10:25:41 0100</time>
      </trkpt>
      <trkpt lat="47.25022" lon="4.96778">
        <ele>341.78854370117</ele>
        <time>2020-01-16T10:25:45 0100</time>
      </trkpt>
      <trkpt lat="47.25022" lon="4.96779">
        <ele>341.75018310547</ele>
        <time>2020-01-16T10:25:49 0100</time>
      </trkpt>
      <trkpt lat="47.25022" lon="4.96779">
        <ele>341.71112060547</ele>
        <time>2020-01-16T10:25:53 0100</time>
      </trkpt>
      <trkpt lat="47.25022" lon="4.96779">
        <ele>341.67504882812</ele>
        <time>2020-01-16T10:25:57 0100</time>
      </trkpt>
      <trkpt lat="47.25023" lon="4.9678">
        <ele>341.65032958984</ele>
        <time>2020-01-16T10:26:00 0100</time>
      </trkpt>
      <trkpt lat="47.25023" lon="4.9678">
        <ele>341.63214111328</ele>
        <time>2020-01-16T10:26:04 0100</time>
      </trkpt>
      <trkpt lat="47.25022" lon="4.96779">
        <ele>341.61480712891</ele>
        <time>2020-01-16T10:26:08 0100</time>
      </trkpt>
      <trkpt lat="47.25022" lon="4.96779">
        <ele>341.60366821289</ele>
        <time>2020-01-16T10:26:12 0100</time>
      </trkpt>
      <trkpt lat="47.25022" lon="4.96779">
        <ele>341.56973266602</ele>
        <time>2020-01-16T10:26:16 0100</time>
      </trkpt>
      <trkpt lat="47.25021" lon="4.96778">
        <ele>341.52416992188</ele>
        <time>2020-01-16T10:26:20 0100</time>
      </trkpt>
      <trkpt lat="47.25021" lon="4.96777">
        <ele>341.34246826172</ele>
        <time>2020-01-16T10:26:24 0100</time>
      </trkpt>
      <trkpt lat="47.25022" lon="4.96777">
        <ele>341.111328125</ele>
        <time>2020-01-16T10:26:28 0100</time>
      </trkpt>
      <trkpt lat="47.25024" lon="4.96777">
        <ele>340.78756713867</ele>
        <time>2020-01-16T10:26:32 0100</time>
      </trkpt>
      <trkpt lat="47.25025" lon="4.96777">
        <ele>340.55520629883</ele>
        <time>2020-01-16T10:26:36 0100</time>
      </trkpt>
      <trkpt lat="47.25027" lon="4.96777">
        <ele>340.25479125977</ele>
        <time>2020-01-16T10:26:40 0100</time>
      </trkpt>
      <trkpt lat="47.25028" lon="4.96777">
        <ele>340.00372314453</ele>
        <time>2020-01-16T10:26:44 0100</time>
      </trkpt>
      <trkpt lat="47.2503" lon="4.96778">
        <ele>339.77130126953</ele>
        <time>2020-01-16T10:26:48 0100</time>
      </trkpt>
      <trkpt lat="47.25033" lon="4.96781">
        <ele>339.67294311523</ele>
        <time>2020-01-16T10:26:52 0100</time>
      </trkpt>
      <trkpt lat="47.25034" lon="4.96782">
        <ele>339.63168334961</ele>
        <time>2020-01-16T10:26:56 0100</time>
      </trkpt>
      <trkpt lat="47.25036" lon="4.96781">
        <ele>339.57315063477</ele>
        <time>2020-01-16T10:27:00 0100</time>
      </trkpt>
      <trkpt lat="47.25037" lon="4.96779">
        <ele>339.42532348633</ele>
        <time>2020-01-16T10:27:04 0100</time>
      </trkpt>
      <trkpt lat="47.25038" lon="4.96776">
        <ele>339.29705810547</ele>
        <time>2020-01-16T10:27:08 0100</time>
      </trkpt>
      <trkpt lat="47.25038" lon="4.96776">
        <ele>339.2763671875</ele>
        <time>2020-01-16T10:27:12 0100</time>
      </trkpt>
      <trkpt lat="47.25041" lon="4.96775">
        <ele>339.14996337891</ele>
        <time>2020-01-16T10:27:16 0100</time>
      </trkpt>
      <trkpt lat="47.25046" lon="4.96775">
        <ele>338.96533203125</ele>
        <time>2020-01-16T10:27:20 0100</time>
      </trkpt>
      <trkpt lat="47.25049" lon="4.96774">
        <ele>338.82330322266</ele>
        <time>2020-01-16T10:27:24 0100</time>
      </trkpt>
      <trkpt lat="47.25051" lon="4.96773">
        <ele>338.78344726562</ele>
        <time>2020-01-16T10:27:28 0100</time>
      </trkpt>
      <trkpt lat="47.25053" lon="4.96771">
        <ele>338.78857421875</ele>
        <time>2020-01-16T10:27:32 0100</time>
      </trkpt>
      <trkpt lat="47.25054" lon="4.96768">
        <ele>338.83032226562</ele>
        <time>2020-01-16T10:27:36 0100</time>
      </trkpt>
      <trkpt lat="47.25058" lon="4.96767">
        <ele>338.92404174805</ele>
        <time>2020-01-16T10:27:40 0100</time>
      </trkpt>
      <trkpt lat="47.25059" lon="4.96766">
        <ele>338.95651245117</ele>
        <time>2020-01-16T10:27:44 0100</time>
      </trkpt>
      <trkpt lat="47.25063" lon="4.96762">
        <ele>339.18673706055</ele>
        <time>2020-01-16T10:27:48 0100</time>
      </trkpt>
      <trkpt lat="47.2507" lon="4.96756">
        <ele>339.54501342773</ele>
        <time>2020-01-16T10:27:52 0100</time>
      </trkpt>
      <trkpt lat="47.25075" lon="4.96754">
        <ele>339.81698608398</ele>
        <time>2020-01-16T10:27:56 0100</time>
      </trkpt>
      <trkpt lat="47.25077" lon="4.9675">
        <ele>340.10885620117</ele>
        <time>2020-01-16T10:28:00 0100</time>
      </trkpt>
      <trkpt lat="47.25081" lon="4.96747">
        <ele>340.69512939453</ele>
        <time>2020-01-16T10:28:04 0100</time>
      </trkpt>
      <trkpt lat="47.25085" lon="4.96747">
        <ele>341.30062866211</ele>
        <time>2020-01-16T10:28:08 0100</time>
      </trkpt>
      <trkpt lat="47.25088" lon="4.96748">
        <ele>341.80322265625</ele>
        <time>2020-01-16T10:28:12 0100</time>
      </trkpt>
      <trkpt lat="47.25094" lon="4.96747">
        <ele>342.24194335938</ele>
        <time>2020-01-16T10:28:16 0100</time>
      </trkpt>
      <trkpt lat="47.25098" lon="4.96744">
        <ele>342.70693969727</ele>
        <time>2020-01-16T10:28:20 0100</time>
      </trkpt>
      <trkpt lat="47.25101" lon="4.96742">
        <ele>343.14108276367</ele>
        <time>2020-01-16T10:28:24 0100</time>
      </trkpt>
      <trkpt lat="47.25104" lon="4.96739">
        <ele>343.55029296875</ele>
        <time>2020-01-16T10:28:28 0100</time>
      </trkpt>
      <trkpt lat="47.25108" lon="4.9674">
        <ele>343.84881591797</ele>
        <time>2020-01-16T10:28:32 0100</time>
      </trkpt>
      <trkpt lat="47.25108" lon="4.9674">
        <ele>343.87924194336</ele>
        <time>2020-01-16T10:28:36 0100</time>
      </trkpt>
      <trkpt lat="47.25108" lon="4.96739">
        <ele>343.94189453125</ele>
        <time>2020-01-16T10:28:40 0100</time>
      </trkpt>
      <trkpt lat="47.25107" lon="4.96739">
        <ele>343.95126342773</ele>
        <time>2020-01-16T10:28:44 0100</time>
      </trkpt>
      <trkpt lat="47.25108" lon="4.96741">
        <ele>343.96276855469</ele>
        <time>2020-01-16T10:28:48 0100</time>
      </trkpt>
      <trkpt lat="47.25115" lon="4.96744">
        <ele>344.01748657227</ele>
        <time>2020-01-16T10:28:52 0100</time>
      </trkpt>
      <trkpt lat="47.25121" lon="4.96743">
        <ele>344.10861206055</ele>
        <time>2020-01-16T10:28:56 0100</time>
      </trkpt>
      <trkpt lat="47.25126" lon="4.96744">
        <ele>344.25518798828</ele>
        <time>2020-01-16T10:29:00 0100</time>
      </trkpt>
      <trkpt lat="47.25128" lon="4.96744">
        <ele>344.42755126953</ele>
        <time>2020-01-16T10:29:04 0100</time>
      </trkpt>
      <trkpt lat="47.2513" lon="4.96745">
        <ele>344.65582275391</ele>
        <time>2020-01-16T10:29:08 0100</time>
      </trkpt>
      <trkpt lat="47.25134" lon="4.96751">
        <ele>344.98733520508</ele>
        <time>2020-01-16T10:29:12 0100</time>
      </trkpt>
      <trkpt lat="47.25135" lon="4.96753">
        <ele>345.20126342773</ele>
        <time>2020-01-16T10:29:16 0100</time>
      </trkpt>
      <trkpt lat="47.25137" lon="4.96757">
        <ele>345.50289916992</ele>
        <time>2020-01-16T10:29:20 0100</time>
      </trkpt>
      <trkpt lat="47.25138" lon="4.96759">
        <ele>345.71075439453</ele>
        <time>2020-01-16T10:29:24 0100</time>
      </trkpt>
      <trkpt lat="47.25143" lon="4.96763">
        <ele>345.91961669922</ele>
        <time>2020-01-16T10:29:28 0100</time>
      </trkpt>
      <trkpt lat="47.25148" lon="4.96768">
        <ele>346.02255249023</ele>
        <time>2020-01-16T10:29:32 0100</time>
      </trkpt>
      <trkpt lat="47.25151" lon="4.96768">
        <ele>346.10333251953</ele>
        <time>2020-01-16T10:29:36 0100</time>
      </trkpt>
      <trkpt lat="47.25155" lon="4.96768">
        <ele>346.13287353516</ele>
        <time>2020-01-16T10:29:40 0100</time>
      </trkpt>
      <trkpt lat="47.25157" lon="4.9677">
        <ele>346.07400512695</ele>
        <time>2020-01-16T10:29:44 0100</time>
      </trkpt>
      <trkpt lat="47.25159" lon="4.96772">
        <ele>346.05627441406</ele>
        <time>2020-01-16T10:29:48 0100</time>
      </trkpt>
      <trkpt lat="47.25164" lon="4.96779">
        <ele>345.94610595703</ele>
        <time>2020-01-16T10:29:52 0100</time>
      </trkpt>
      <trkpt lat="47.25168" lon="4.96787">
        <ele>345.84829711914</ele>
        <time>2020-01-16T10:29:56 0100</time>
      </trkpt>
      <trkpt lat="47.25171" lon="4.96789">
        <ele>345.65316772461</ele>
        <time>2020-01-16T10:30:00 0100</time>
      </trkpt>
      <trkpt lat="47.25173" lon="4.96788">
        <ele>345.41326904297</ele>
        <time>2020-01-16T10:30:04 0100</time>
      </trkpt>
      <trkpt lat="47.25174" lon="4.96784">
        <ele>345.09912109375</ele>
        <time>2020-01-16T10:30:08 0100</time>
      </trkpt>
      <trkpt lat="47.25175" lon="4.96779">
        <ele>344.84359741211</ele>
        <time>2020-01-16T10:30:12 0100</time>
      </trkpt>
      <trkpt lat="47.25175" lon="4.96777">
        <ele>344.62228393555</ele>
        <time>2020-01-16T10:30:16 0100</time>
      </trkpt>
      <trkpt lat="47.25177" lon="4.96771">
        <ele>344.43252563477</ele>
        <time>2020-01-16T10:30:20 0100</time>
      </trkpt>
      <trkpt lat="47.25178" lon="4.96766">
        <ele>344.26803588867</ele>
        <time>2020-01-16T10:30:24 0100</time>
      </trkpt>
      <trkpt lat="47.25178" lon="4.96761">
        <ele>344.12124633789</ele>
        <time>2020-01-16T10:30:28 0100</time>
      </trkpt>
      <trkpt lat="47.25179" lon="4.96757">
        <ele>343.99853515625</ele>
        <time>2020-01-16T10:30:32 0100</time>
      </trkpt>
      <trkpt lat="47.2518" lon="4.96752">
        <ele>343.91299438477</ele>
        <time>2020-01-16T10:30:36 0100</time>
      </trkpt>
      <trkpt lat="47.25182" lon="4.96742">
        <ele>343.94100952148</ele>
        <time>2020-01-16T10:30:40 0100</time>
      </trkpt>
      <trkpt lat="47.25184" lon="4.96735">
        <ele>343.96459960938</ele>
        <time>2020-01-16T10:30:44 0100</time>
      </trkpt>
      <trkpt lat="47.25186" lon="4.96733">
        <ele>344.05392456055</ele>
        <time>2020-01-16T10:30:48 0100</time>
      </trkpt>
      <trkpt lat="47.2519" lon="4.96725">
        <ele>344.1923828125</ele>
        <time>2020-01-16T10:30:52 0100</time>
      </trkpt>
      <trkpt lat="47.25192" lon="4.96718">
        <ele>344.34045410156</ele>
        <time>2020-01-16T10:30:56 0100</time>
      </trkpt>
      <trkpt lat="47.25195" lon="4.96714">
        <ele>344.43096923828</ele>
        <time>2020-01-16T10:31:00 0100</time>
      </trkpt>
      <trkpt lat="47.25198" lon="4.96707">
        <ele>344.31726074219</ele>
        <time>2020-01-16T10:31:04 0100</time>
      </trkpt>
      <trkpt lat="47.25202" lon="4.96702">
        <ele>343.94491577148</ele>
        <time>2020-01-16T10:31:08 0100</time>
      </trkpt>
      <trkpt lat="47.25203" lon="4.96696">
        <ele>343.50018310547</ele>
        <time>2020-01-16T10:31:12 0100</time>
      </trkpt>
      <trkpt lat="47.25206" lon="4.96685">
        <ele>343.03167724609</ele>
        <time>2020-01-16T10:31:16 0100</time>
      </trkpt>
      <trkpt lat="47.25206" lon="4.96686">
        <ele>342.50640869141</ele>
        <time>2020-01-16T10:31:20 0100</time>
      </trkpt>
      <trkpt lat="47.25204" lon="4.96687">
        <ele>341.5654296875</ele>
        <time>2020-01-16T10:31:24 0100</time>
      </trkpt>
      <trkpt lat="47.2521" lon="4.96679">
        <ele>340.60290527344</ele>
        <time>2020-01-16T10:31:28 0100</time>
      </trkpt>
      <trkpt lat="47.25213" lon="4.96674">
        <ele>339.47760009766</ele>
        <time>2020-01-16T10:31:32 0100</time>
      </trkpt>
      <trkpt lat="47.25216" lon="4.96669">
        <ele>338.45007324219</ele>
        <time>2020-01-16T10:31:36 0100</time>
      </trkpt>
      <trkpt lat="47.25218" lon="4.96667">
        <ele>337.92337036133</ele>
        <time>2020-01-16T10:31:40 0100</time>
      </trkpt>
      <trkpt lat="47.2522" lon="4.96662">
        <ele>336.9792175293</ele>
        <time>2020-01-16T10:31:44 0100</time>
      </trkpt>
      <trkpt lat="47.25223" lon="4.96658">
        <ele>336.13327026367</ele>
        <time>2020-01-16T10:31:48 0100</time>
      </trkpt>
      <trkpt lat="47.25225" lon="4.96657">
        <ele>335.47024536133</ele>
        <time>2020-01-16T10:31:52 0100</time>
      </trkpt>
      <trkpt lat="47.25226" lon="4.96654">
        <ele>335.09469604492</ele>
        <time>2020-01-16T10:31:56 0100</time>
      </trkpt>
      <trkpt lat="47.25227" lon="4.96649">
        <ele>334.72717285156</ele>
        <time>2020-01-16T10:32:00 0100</time>
      </trkpt>
      <trkpt lat="47.25228" lon="4.96647">
        <ele>334.56283569336</ele>
        <time>2020-01-16T10:32:04 0100</time>
      </trkpt>
      <trkpt lat="47.25231" lon="4.96639">
        <ele>334.48461914062</ele>
        <time>2020-01-16T10:32:08 0100</time>
      </trkpt>
      <trkpt lat="47.25233" lon="4.96637">
        <ele>334.38009643555</ele>
        <time>2020-01-16T10:32:12 0100</time>
      </trkpt>
      <trkpt lat="47.25233" lon="4.96637">
        <ele>334.4169921875</ele>
        <time>2020-01-16T10:32:16 0100</time>
      </trkpt>
      <trkpt lat="47.25233" lon="4.96633">
        <ele>334.595703125</ele>
        <time>2020-01-16T10:32:20 0100</time>
      </trkpt>
      <trkpt lat="47.25235" lon="4.96626">
        <ele>334.72869873047</ele>
        <time>2020-01-16T10:32:24 0100</time>
      </trkpt>
      <trkpt lat="47.25237" lon="4.96619">
        <ele>334.818359375</ele>
        <time>2020-01-16T10:32:28 0100</time>
      </trkpt>
      <trkpt lat="47.25239" lon="4.96612">
        <ele>334.87280273438</ele>
        <time>2020-01-16T10:32:32 0100</time>
      </trkpt>
      <trkpt lat="47.25239" lon="4.9661">
        <ele>334.95291137695</ele>
        <time>2020-01-16T10:32:36 0100</time>
      </trkpt>
      <trkpt lat="47.25239" lon="4.96609">
        <ele>334.98971557617</ele>
        <time>2020-01-16T10:32:40 0100</time>
      </trkpt>
      <trkpt lat="47.25243" lon="4.96596">
        <ele>334.95913696289</ele>
        <time>2020-01-16T10:32:44 0100</time>
      </trkpt>
      <trkpt lat="47.25246" lon="4.96591">
        <ele>334.95425415039</ele>
        <time>2020-01-16T10:32:48 0100</time>
      </trkpt>
      <trkpt lat="47.25247" lon="4.96589">
        <ele>335.02621459961</ele>
        <time>2020-01-16T10:32:52 0100</time>
      </trkpt>
      <trkpt lat="47.25249" lon="4.96588">
        <ele>335.15365600586</ele>
        <time>2020-01-16T10:32:56 0100</time>
      </trkpt>
      <trkpt lat="47.25251" lon="4.96586">
        <ele>335.49212646484</ele>
        <time>2020-01-16T10:33:00 0100</time>
      </trkpt>
      <trkpt lat="47.25254" lon="4.96579">
        <ele>335.87426757812</ele>
        <time>2020-01-16T10:33:04 0100</time>
      </trkpt>
      <trkpt lat="47.25258" lon="4.96571">
        <ele>336.03921508789</ele>
        <time>2020-01-16T10:33:08 0100</time>
      </trkpt>
      <trkpt lat="47.25258" lon="4.9657">
        <ele>336.41397094727</ele>
        <time>2020-01-16T10:33:12 0100</time>
      </trkpt>
      <trkpt lat="47.25262" lon="4.96561">
        <ele>336.66070556641</ele>
        <time>2020-01-16T10:33:16 0100</time>
      </trkpt>
      <trkpt lat="47.25267" lon="4.96552">
        <ele>336.82278442383</ele>
        <time>2020-01-16T10:33:20 0100</time>
      </trkpt>
      <trkpt lat="47.25269" lon="4.96548">
        <ele>336.8876953125</ele>
        <time>2020-01-16T10:33:24 0100</time>
      </trkpt>
      <trkpt lat="47.25269" lon="4.96543">
        <ele>336.87542724609</ele>
        <time>2020-01-16T10:33:28 0100</time>
      </trkpt>
      <trkpt lat="47.25269" lon="4.96541">
        <ele>336.81918334961</ele>
        <time>2020-01-16T10:33:32 0100</time>
      </trkpt>
      <trkpt lat="47.2527" lon="4.96538">
        <ele>336.52981567383</ele>
        <time>2020-01-16T10:33:36 0100</time>
      </trkpt>
      <trkpt lat="47.25273" lon="4.96533">
        <ele>336.16079711914</ele>
        <time>2020-01-16T10:33:40 0100</time>
      </trkpt>
      <trkpt lat="47.25277" lon="4.96528">
        <ele>335.99841308594</ele>
        <time>2020-01-16T10:33:44 0100</time>
      </trkpt>
      <trkpt lat="47.2528" lon="4.96521">
        <ele>335.90338134766</ele>
        <time>2020-01-16T10:33:48 0100</time>
      </trkpt>
      <trkpt lat="47.2528" lon="4.9652">
        <ele>335.87185668945</ele>
        <time>2020-01-16T10:33:52 0100</time>
      </trkpt>
      <trkpt lat="47.25282" lon="4.96518">
        <ele>335.89343261719</ele>
        <time>2020-01-16T10:33:56 0100</time>
      </trkpt>
      <trkpt lat="47.25285" lon="4.96514">
        <ele>335.90301513672</ele>
        <time>2020-01-16T10:34:00 0100</time>
      </trkpt>
      <trkpt lat="47.25285" lon="4.96513">
        <ele>335.85971069336</ele>
        <time>2020-01-16T10:34:04 0100</time>
      </trkpt>
      <trkpt lat="47.25287" lon="4.96509">
        <ele>335.75469970703</ele>
        <time>2020-01-16T10:34:08 0100</time>
      </trkpt>
      <trkpt lat="47.25294" lon="4.96496">
        <ele>335.47329711914</ele>
        <time>2020-01-16T10:34:12 0100</time>
      </trkpt>
      <trkpt lat="47.25293" lon="4.96496">
        <ele>335.18099975586</ele>
        <time>2020-01-16T10:34:16 0100</time>
      </trkpt>
      <trkpt lat="47.25296" lon="4.96494">
        <ele>334.64840698242</ele>
        <time>2020-01-16T10:34:20 0100</time>
      </trkpt>
      <trkpt lat="47.253" lon="4.96494">
        <ele>334.51330566406</ele>
        <time>2020-01-16T10:34:24 0100</time>
      </trkpt>
      <trkpt lat="47.25308" lon="4.96487">
        <ele>334.7512512207</ele>
        <time>2020-01-16T10:34:28 0100</time>
      </trkpt>
      <trkpt lat="47.25315" lon="4.9648">
        <ele>334.99197387695</ele>
        <time>2020-01-16T10:34:32 0100</time>
      </trkpt>
      <trkpt lat="47.2532" lon="4.96478">
        <ele>335.31185913086</ele>
        <time>2020-01-16T10:34:36 0100</time>
      </trkpt>
      <trkpt lat="47.25323" lon="4.96482">
        <ele>335.57626342773</ele>
        <time>2020-01-16T10:34:40 0100</time>
      </trkpt>
      <trkpt lat="47.25323" lon="4.96483">
        <ele>335.59436035156</ele>
        <time>2020-01-16T10:34:44 0100</time>
      </trkpt>
      <trkpt lat="47.25323" lon="4.96484">
        <ele>335.79971313477</ele>
        <time>2020-01-16T10:34:48 0100</time>
      </trkpt>
      <trkpt lat="47.25325" lon="4.96486">
        <ele>336.60073852539</ele>
        <time>2020-01-16T10:34:52 0100</time>
      </trkpt>
      <trkpt lat="47.2533" lon="4.96494">
        <ele>337.32266235352</ele>
        <time>2020-01-16T10:34:56 0100</time>
      </trkpt>
      <trkpt lat="47.25331" lon="4.96496">
        <ele>337.25601196289</ele>
        <time>2020-01-16T10:35:00 0100</time>
      </trkpt>
      <trkpt lat="47.25333" lon="4.96499">
        <ele>336.89678955078</ele>
        <time>2020-01-16T10:35:04 0100</time>
      </trkpt>
      <trkpt lat="47.25333" lon="4.96499">
        <ele>336.70358276367</ele>
        <time>2020-01-16T10:35:08 0100</time>
      </trkpt>
      <trkpt lat="47.25334" lon="4.96498">
        <ele>336.1643371582</ele>
        <time>2020-01-16T10:35:12 0100</time>
      </trkpt>
      <trkpt lat="47.25339" lon="4.96493">
        <ele>336.01187133789</ele>
        <time>2020-01-16T10:35:16 0100</time>
      </trkpt>
      <trkpt lat="47.25339" lon="4.96493">
        <ele>336.03744506836</ele>
        <time>2020-01-16T10:35:20 0100</time>
      </trkpt>
      <trkpt lat="47.2534" lon="4.96493">
        <ele>336.13040161133</ele>
        <time>2020-01-16T10:35:24 0100</time>
      </trkpt>
      <trkpt lat="47.25341" lon="4.96494">
        <ele>336.17559814453</ele>
        <time>2020-01-16T10:35:28 0100</time>
      </trkpt>
      <trkpt lat="47.25346" lon="4.96495">
        <ele>336.28530883789</ele>
        <time>2020-01-16T10:35:32 0100</time>
      </trkpt>
      <trkpt lat="47.25349" lon="4.96494">
        <ele>336.30947875977</ele>
        <time>2020-01-16T10:35:36 0100</time>
      </trkpt>
      <trkpt lat="47.2535" lon="4.96496">
        <ele>336.36447143555</ele>
        <time>2020-01-16T10:35:40 0100</time>
      </trkpt>
      <trkpt lat="47.25351" lon="4.96494">
        <ele>336.37948608398</ele>
        <time>2020-01-16T10:35:44 0100</time>
      </trkpt>
      <trkpt lat="47.25351" lon="4.96493">
        <ele>336.39193725586</ele>
        <time>2020-01-16T10:35:48 0100</time>
      </trkpt>
      <trkpt lat="47.25352" lon="4.96492">
        <ele>336.45181274414</ele>
        <time>2020-01-16T10:35:52 0100</time>
      </trkpt>
      <trkpt lat="47.25352" lon="4.96491">
        <ele>336.53909301758</ele>
        <time>2020-01-16T10:35:56 0100</time>
      </trkpt>
      <trkpt lat="47.25352" lon="4.96491">
        <ele>336.6194152832</ele>
        <time>2020-01-16T10:36:00 0100</time>
      </trkpt>
      <trkpt lat="47.25352" lon="4.96491">
        <ele>336.69830322266</ele>
        <time>2020-01-16T10:36:04 0100</time>
      </trkpt>
      <trkpt lat="47.25353" lon="4.96492">
        <ele>336.76544189453</ele>
        <time>2020-01-16T10:36:08 0100</time>
      </trkpt>
      <trkpt lat="47.25353" lon="4.96491">
        <ele>336.8349609375</ele>
        <time>2020-01-16T10:36:12 0100</time>
      </trkpt>
      <trkpt lat="47.25353" lon="4.96491">
        <ele>336.90762329102</ele>
        <time>2020-01-16T10:36:16 0100</time>
      </trkpt>
      <trkpt lat="47.25353" lon="4.9649">
        <ele>337.00469970703</ele>
        <time>2020-01-16T10:36:20 0100</time>
      </trkpt>
      <trkpt lat="47.25352" lon="4.96488">
        <ele>337.22900390625</ele>
        <time>2020-01-16T10:36:24 0100</time>
      </trkpt>
      <trkpt lat="47.25353" lon="4.96488">
        <ele>337.7138671875</ele>
        <time>2020-01-16T10:36:28 0100</time>
      </trkpt>
      <trkpt lat="47.25357" lon="4.96489">
        <ele>338.29782104492</ele>
        <time>2020-01-16T10:36:32 0100</time>
      </trkpt>
      <trkpt lat="47.25358" lon="4.9649">
        <ele>338.61108398438</ele>
        <time>2020-01-16T10:36:36 0100</time>
      </trkpt>
      <trkpt lat="47.25358" lon="4.96491">
        <ele>338.67565917969</ele>
        <time>2020-01-16T10:36:40 0100</time>
      </trkpt>
      <trkpt lat="47.25359" lon="4.96492">
        <ele>339.36749267578</ele>
        <time>2020-01-16T10:36:44 0100</time>
      </trkpt>
      <trkpt lat="47.2536" lon="4.96492">
        <ele>339.62182617188</ele>
        <time>2020-01-16T10:36:48 0100</time>
      </trkpt>
      <trkpt lat="47.25359" lon="4.96493">
        <ele>339.92895507812</ele>
        <time>2020-01-16T10:36:52 0100</time>
      </trkpt>
      <trkpt lat="47.2536" lon="4.96493">
        <ele>340.66564941406</ele>
        <time>2020-01-16T10:36:56 0100</time>
      </trkpt>
      <trkpt lat="47.25362" lon="4.96492">
        <ele>341.52685546875</ele>
        <time>2020-01-16T10:37:00 0100</time>
      </trkpt>
      <trkpt lat="47.25365" lon="4.96494">
        <ele>341.63214111328</ele>
        <time>2020-01-16T10:37:04 0100</time>
      </trkpt>
      <trkpt lat="47.25368" lon="4.96499">
        <ele>341.67135620117</ele>
        <time>2020-01-16T10:37:08 0100</time>
      </trkpt>
      <trkpt lat="47.25367" lon="4.965">
        <ele>341.7080078125</ele>
        <time>2020-01-16T10:37:12 0100</time>
      </trkpt>
      <trkpt lat="47.25369" lon="4.96501">
        <ele>342.19976806641</ele>
        <time>2020-01-16T10:37:16 0100</time>
      </trkpt>
      <trkpt lat="47.25368" lon="4.96496">
        <ele>343.01766967773</ele>
        <time>2020-01-16T10:37:20 0100</time>
      </trkpt>
      <trkpt lat="47.25369" lon="4.96495">
        <ele>344.35220336914</ele>
        <time>2020-01-16T10:37:24 0100</time>
      </trkpt>
      <trkpt lat="47.25371" lon="4.96497">
        <ele>345.99645996094</ele>
        <time>2020-01-16T10:37:28 0100</time>
      </trkpt>
      <trkpt lat="47.25373" lon="4.96503">
        <ele>347.39825439453</ele>
        <time>2020-01-16T10:37:32 0100</time>
      </trkpt>
      <trkpt lat="47.25373" lon="4.96505">
        <ele>348.63906860352</ele>
        <time>2020-01-16T10:37:36 0100</time>
      </trkpt>
      <trkpt lat="47.25374" lon="4.96511">
        <ele>349.79266357422</ele>
        <time>2020-01-16T10:37:40 0100</time>
      </trkpt>
      <trkpt lat="47.25377" lon="4.96515">
        <ele>350.7731628418</ele>
        <time>2020-01-16T10:37:44 0100</time>
      </trkpt>
      <trkpt lat="47.25378" lon="4.96516">
        <ele>351.42221069336</ele>
        <time>2020-01-16T10:37:48 0100</time>
      </trkpt>
      <trkpt lat="47.25379" lon="4.96519">
        <ele>352.15142822266</ele>
        <time>2020-01-16T10:37:52 0100</time>
      </trkpt>
      <trkpt lat="47.25381" lon="4.96523">
        <ele>352.78012084961</ele>
        <time>2020-01-16T10:37:56 0100</time>
      </trkpt>
      <trkpt lat="47.2538" lon="4.96527">
        <ele>353.34811401367</ele>
        <time>2020-01-16T10:38:00 0100</time>
      </trkpt>
      <trkpt lat="47.25382" lon="4.96533">
        <ele>353.9482421875</ele>
        <time>2020-01-16T10:38:04 0100</time>
      </trkpt>
      <trkpt lat="47.25386" lon="4.96544">
        <ele>354.28497314453</ele>
        <time>2020-01-16T10:38:08 0100</time>
      </trkpt>
      <trkpt lat="47.25389" lon="4.96547">
        <ele>354.20239257812</ele>
        <time>2020-01-16T10:38:12 0100</time>
      </trkpt>
      <trkpt lat="47.25391" lon="4.96547">
        <ele>354.10504150391</ele>
        <time>2020-01-16T10:38:16 0100</time>
      </trkpt>
      <trkpt lat="47.25392" lon="4.96546">
        <ele>353.78176879883</ele>
        <time>2020-01-16T10:38:20 0100</time>
      </trkpt>
      <trkpt lat="47.25393" lon="4.96545">
        <ele>353.69284057617</ele>
        <time>2020-01-16T10:38:24 0100</time>
      </trkpt>
      <trkpt lat="47.25395" lon="4.96541">
        <ele>353.96875</ele>
        <time>2020-01-16T10:38:28 0100</time>
      </trkpt>
      <trkpt lat="47.25394" lon="4.96539">
        <ele>354.47286987305</ele>
        <time>2020-01-16T10:38:32 0100</time>
      </trkpt>
      <trkpt lat="47.25394" lon="4.96541">
        <ele>354.98693847656</ele>
        <time>2020-01-16T10:38:37 0100</time>
      </trkpt>
      <trkpt lat="47.25395" lon="4.96541">
        <ele>355.52593994141</ele>
        <time>2020-01-16T10:38:41 0100</time>
      </trkpt>
      <trkpt lat="47.25396" lon="4.96542">
        <ele>355.81857299805</ele>
        <time>2020-01-16T10:38:45 0100</time>
      </trkpt>
      <trkpt lat="47.25396" lon="4.96542">
        <ele>355.88110351562</ele>
        <time>2020-01-16T10:38:49 0100</time>
      </trkpt>
      <trkpt lat="47.25396" lon="4.96542">
        <ele>355.9524230957</ele>
        <time>2020-01-16T10:38:53 0100</time>
      </trkpt>
      <trkpt lat="47.25396" lon="4.96542">
        <ele>356.04333496094</ele>
        <time>2020-01-16T10:38:57 0100</time>
      </trkpt>
      <trkpt lat="47.25396" lon="4.96542">
        <ele>356.13519287109</ele>
        <time>2020-01-16T10:39:01 0100</time>
      </trkpt>
      <trkpt lat="47.25396" lon="4.96543">
        <ele>356.22406005859</ele>
        <time>2020-01-16T10:39:05 0100</time>
      </trkpt>
      <trkpt lat="47.25396" lon="4.96543">
        <ele>356.30380249023</ele>
        <time>2020-01-16T10:39:09 0100</time>
      </trkpt>
      <trkpt lat="47.25396" lon="4.96543">
        <ele>356.38119506836</ele>
        <time>2020-01-16T10:39:13 0100</time>
      </trkpt>
      <trkpt lat="47.25396" lon="4.96543">
        <ele>356.45980834961</ele>
        <time>2020-01-16T10:39:17 0100</time>
      </trkpt>
      <trkpt lat="47.25396" lon="4.96543">
        <ele>356.54025268555</ele>
        <time>2020-01-16T10:39:21 0100</time>
      </trkpt>
      <trkpt lat="47.25397" lon="4.96544">
        <ele>356.62460327148</ele>
        <time>2020-01-16T10:39:25 0100</time>
      </trkpt>
      <trkpt lat="47.25398" lon="4.96548">
        <ele>357.49102783203</ele>
        <time>2020-01-16T10:39:29 0100</time>
      </trkpt>
      <trkpt lat="47.254" lon="4.96552">
        <ele>358.32330322266</ele>
        <time>2020-01-16T10:39:33 0100</time>
      </trkpt>
      <trkpt lat="47.254" lon="4.96553">
        <ele>358.92630004883</ele>
        <time>2020-01-16T10:39:37 0100</time>
      </trkpt>
      <trkpt lat="47.25402" lon="4.96555">
        <ele>359.65496826172</ele>
        <time>2020-01-16T10:39:41 0100</time>
      </trkpt>
      <trkpt lat="47.25403" lon="4.96557">
        <ele>360.28729248047</ele>
        <time>2020-01-16T10:39:45 0100</time>
      </trkpt>
      <trkpt lat="47.25404" lon="4.96561">
        <ele>360.8073425293</ele>
        <time>2020-01-16T10:39:49 0100</time>
      </trkpt>
      <trkpt lat="47.25405" lon="4.96564">
        <ele>361.03771972656</ele>
        <time>2020-01-16T10:39:53 0100</time>
      </trkpt>
      <trkpt lat="47.25405" lon="4.96564">
        <ele>361.07464599609</ele>
        <time>2020-01-16T10:39:57 0100</time>
      </trkpt>
      <trkpt lat="47.25407" lon="4.96568">
        <ele>361.27825927734</ele>
        <time>2020-01-16T10:40:01 0100</time>
      </trkpt>
      <trkpt lat="47.25407" lon="4.96568">
        <ele>361.29647827148</ele>
        <time>2020-01-16T10:40:05 0100</time>
      </trkpt>
      <trkpt lat="47.25407" lon="4.96569">
        <ele>361.30349731445</ele>
        <time>2020-01-16T10:40:09 0100</time>
      </trkpt>
      <trkpt lat="47.25407" lon="4.9657">
        <ele>361.30535888672</ele>
        <time>2020-01-16T10:40:13 0100</time>
      </trkpt>
      <trkpt lat="47.25408" lon="4.9657">
        <ele>361.30758666992</ele>
        <time>2020-01-16T10:40:17 0100</time>
      </trkpt>
      <trkpt lat="47.25408" lon="4.9657">
        <ele>361.30682373047</ele>
        <time>2020-01-16T10:40:21 0100</time>
      </trkpt>
      <trkpt lat="47.25408" lon="4.96571">
        <ele>361.3098449707</ele>
        <time>2020-01-16T10:40:25 0100</time>
      </trkpt>
      <trkpt lat="47.25408" lon="4.96571">
        <ele>361.32495117188</ele>
        <time>2020-01-16T10:40:29 0100</time>
      </trkpt>
      <trkpt lat="47.25408" lon="4.96571">
        <ele>361.33337402344</ele>
        <time>2020-01-16T10:40:33 0100</time>
      </trkpt>
      <trkpt lat="47.25408" lon="4.96571">
        <ele>361.33901977539</ele>
        <time>2020-01-16T10:40:37 0100</time>
      </trkpt>
      <trkpt lat="47.25408" lon="4.96572">
        <ele>361.34213256836</ele>
        <time>2020-01-16T10:40:41 0100</time>
      </trkpt>
      <trkpt lat="47.25409" lon="4.96573">
        <ele>361.32656860352</ele>
        <time>2020-01-16T10:40:45 0100</time>
      </trkpt>
      <trkpt lat="47.25409" lon="4.96573">
        <ele>361.29400634766</ele>
        <time>2020-01-16T10:40:49 0100</time>
      </trkpt>
      <trkpt lat="47.2541" lon="4.96574">
        <ele>361.24603271484</ele>
        <time>2020-01-16T10:40:53 0100</time>
      </trkpt>
      <trkpt lat="47.2541" lon="4.96574">
        <ele>361.19338989258</ele>
        <time>2020-01-16T10:40:57 0100</time>
      </trkpt>
      <trkpt lat="47.2541" lon="4.96575">
        <ele>361.14837646484</ele>
        <time>2020-01-16T10:41:01 0100</time>
      </trkpt>
      <trkpt lat="47.25412" lon="4.96579">
        <ele>360.69989013672</ele>
        <time>2020-01-16T10:41:05 0100</time>
      </trkpt>
      <trkpt lat="47.25415" lon="4.96582">
        <ele>360.35592651367</ele>
        <time>2020-01-16T10:41:09 0100</time>
      </trkpt>
      <trkpt lat="47.25417" lon="4.96585">
        <ele>360.11077880859</ele>
        <time>2020-01-16T10:41:13 0100</time>
      </trkpt>
      <trkpt lat="47.25417" lon="4.96588">
        <ele>359.9182434082</ele>
        <time>2020-01-16T10:41:17 0100</time>
      </trkpt>
      <trkpt lat="47.25418" lon="4.96591">
        <ele>359.86975097656</ele>
        <time>2020-01-16T10:41:21 0100</time>
      </trkpt>
      <trkpt lat="47.2542" lon="4.96596">
        <ele>359.90460205078</ele>
        <time>2020-01-16T10:41:25 0100</time>
      </trkpt>
      <trkpt lat="47.2542" lon="4.96598">
        <ele>359.90942382812</ele>
        <time>2020-01-16T10:41:29 0100</time>
      </trkpt>
      <trkpt lat="47.25421" lon="4.966">
        <ele>359.92135620117</ele>
        <time>2020-01-16T10:41:33 0100</time>
      </trkpt>
      <trkpt lat="47.25422" lon="4.96603">
        <ele>359.96301269531</ele>
        <time>2020-01-16T10:41:37 0100</time>
      </trkpt>
      <trkpt lat="47.25423" lon="4.96607">
        <ele>360.11499023438</ele>
        <time>2020-01-16T10:41:41 0100</time>
      </trkpt>
      <trkpt lat="47.25425" lon="4.9661">
        <ele>360.41464233398</ele>
        <time>2020-01-16T10:41:45 0100</time>
      </trkpt>
      <trkpt lat="47.25426" lon="4.96614">
        <ele>360.82070922852</ele>
        <time>2020-01-16T10:41:49 0100</time>
      </trkpt>
      <trkpt lat="47.25428" lon="4.96617">
        <ele>361.26846313477</ele>
        <time>2020-01-16T10:41:53 0100</time>
      </trkpt>
      <trkpt lat="47.2543" lon="4.9662">
        <ele>361.73052978516</ele>
        <time>2020-01-16T10:41:57 0100</time>
      </trkpt>
      <trkpt lat="47.2543" lon="4.96621">
        <ele>361.77203369141</ele>
        <time>2020-01-16T10:42:01 0100</time>
      </trkpt>
      <trkpt lat="47.25433" lon="4.96626">
        <ele>362.10348510742</ele>
        <time>2020-01-16T10:42:05 0100</time>
      </trkpt>
      <trkpt lat="47.25434" lon="4.96628">
        <ele>362.18521118164</ele>
        <time>2020-01-16T10:42:09 0100</time>
      </trkpt>
      <trkpt lat="47.25435" lon="4.96629">
        <ele>362.31915283203</ele>
        <time>2020-01-16T10:42:13 0100</time>
      </trkpt>
      <trkpt lat="47.25437" lon="4.96632">
        <ele>362.59521484375</ele>
        <time>2020-01-16T10:42:17 0100</time>
      </trkpt>
      <trkpt lat="47.25439" lon="4.96635">
        <ele>362.92407226562</ele>
        <time>2020-01-16T10:42:21 0100</time>
      </trkpt>
      <trkpt lat="47.25439" lon="4.96634">
        <ele>363.02108764648</ele>
        <time>2020-01-16T10:42:25 0100</time>
      </trkpt>
      <trkpt lat="47.2544" lon="4.96635">
        <ele>363.10800170898</ele>
        <time>2020-01-16T10:42:29 0100</time>
      </trkpt>
      <trkpt lat="47.2544" lon="4.96635">
        <ele>363.17919921875</ele>
        <time>2020-01-16T10:42:33 0100</time>
      </trkpt>
      <trkpt lat="47.25442" lon="4.96638">
        <ele>363.37689208984</ele>
        <time>2020-01-16T10:42:37 0100</time>
      </trkpt>
      <trkpt lat="47.25443" lon="4.96639">
        <ele>363.59310913086</ele>
        <time>2020-01-16T10:42:41 0100</time>
      </trkpt>
      <trkpt lat="47.25443" lon="4.96639">
        <ele>363.78833007812</ele>
        <time>2020-01-16T10:42:45 0100</time>
      </trkpt>
      <trkpt lat="47.25445" lon="4.96643">
        <ele>363.96041870117</ele>
        <time>2020-01-16T10:42:49 0100</time>
      </trkpt>
      <trkpt lat="47.25447" lon="4.96647">
        <ele>364.12899780273</ele>
        <time>2020-01-16T10:42:53 0100</time>
      </trkpt>
      <trkpt lat="47.25448" lon="4.9665">
        <ele>364.34020996094</ele>
        <time>2020-01-16T10:42:57 0100</time>
      </trkpt>
      <trkpt lat="47.2545" lon="4.96655">
        <ele>364.56210327148</ele>
        <time>2020-01-16T10:43:01 0100</time>
      </trkpt>
      <trkpt lat="47.25453" lon="4.96661">
        <ele>364.80883789062</ele>
        <time>2020-01-16T10:43:05 0100</time>
      </trkpt>
      <trkpt lat="47.25455" lon="4.96665">
        <ele>365.09088134766</ele>
        <time>2020-01-16T10:43:09 0100</time>
      </trkpt>
      <trkpt lat="47.25457" lon="4.96669">
        <ele>365.37261962891</ele>
        <time>2020-01-16T10:43:13 0100</time>
      </trkpt>
      <trkpt lat="47.25458" lon="4.96672">
        <ele>365.60705566406</ele>
        <time>2020-01-16T10:43:17 0100</time>
      </trkpt>
      <trkpt lat="47.25461" lon="4.96677">
        <ele>365.85073852539</ele>
        <time>2020-01-16T10:43:21 0100</time>
      </trkpt>
      <trkpt lat="47.25462" lon="4.96682">
        <ele>366.08920288086</ele>
        <time>2020-01-16T10:43:25 0100</time>
      </trkpt>
      <trkpt lat="47.25463" lon="4.96686">
        <ele>366.33767700195</ele>
        <time>2020-01-16T10:43:29 0100</time>
      </trkpt>
      <trkpt lat="47.25464" lon="4.96689">
        <ele>366.61889648438</ele>
        <time>2020-01-16T10:43:33 0100</time>
      </trkpt>
      <trkpt lat="47.25466" lon="4.96692">
        <ele>366.98480224609</ele>
        <time>2020-01-16T10:43:37 0100</time>
      </trkpt>
      <trkpt lat="47.25468" lon="4.96696">
        <ele>367.44696044922</ele>
        <time>2020-01-16T10:43:41 0100</time>
      </trkpt>
      <trkpt lat="47.25471" lon="4.967">
        <ele>367.97866821289</ele>
        <time>2020-01-16T10:43:45 0100</time>
      </trkpt>
      <trkpt lat="47.25473" lon="4.96705">
        <ele>368.494140625</ele>
        <time>2020-01-16T10:43:49 0100</time>
      </trkpt>
      <trkpt lat="47.25476" lon="4.96709">
        <ele>368.97729492188</ele>
        <time>2020-01-16T10:43:53 0100</time>
      </trkpt>
      <trkpt lat="47.25479" lon="4.96711">
        <ele>369.47235107422</ele>
        <time>2020-01-16T10:43:57 0100</time>
      </trkpt>
      <trkpt lat="47.25482" lon="4.96714">
        <ele>370.03158569336</ele>
        <time>2020-01-16T10:44:01 0100</time>
      </trkpt>
      <trkpt lat="47.25486" lon="4.96718">
        <ele>370.53872680664</ele>
        <time>2020-01-16T10:44:05 0100</time>
      </trkpt>
      <trkpt lat="47.2549" lon="4.96719">
        <ele>370.98461914062</ele>
        <time>2020-01-16T10:44:09 0100</time>
      </trkpt>
      <trkpt lat="47.25493" lon="4.96721">
        <ele>371.43154907227</ele>
        <time>2020-01-16T10:44:13 0100</time>
      </trkpt>
      <trkpt lat="47.25496" lon="4.96722">
        <ele>371.84698486328</ele>
        <time>2020-01-16T10:44:17 0100</time>
      </trkpt>
      <trkpt lat="47.25498" lon="4.96724">
        <ele>372.22988891602</ele>
        <time>2020-01-16T10:44:21 0100</time>
      </trkpt>
      <trkpt lat="47.255" lon="4.96726">
        <ele>372.57150268555</ele>
        <time>2020-01-16T10:44:25 0100</time>
      </trkpt>
      <trkpt lat="47.25504" lon="4.96727">
        <ele>372.88162231445</ele>
        <time>2020-01-16T10:44:29 0100</time>
      </trkpt>
      <trkpt lat="47.25508" lon="4.96728">
        <ele>373.16897583008</ele>
        <time>2020-01-16T10:44:33 0100</time>
      </trkpt>
      <trkpt lat="47.2551" lon="4.96728">
        <ele>373.43255615234</ele>
        <time>2020-01-16T10:44:37 0100</time>
      </trkpt>
      <trkpt lat="47.25514" lon="4.96728">
        <ele>373.67529296875</ele>
        <time>2020-01-16T10:44:41 0100</time>
      </trkpt>
      <trkpt lat="47.25517" lon="4.96727">
        <ele>373.91445922852</ele>
        <time>2020-01-16T10:44:45 0100</time>
      </trkpt>
      <trkpt lat="47.25519" lon="4.96726">
        <ele>374.00082397461</ele>
        <time>2020-01-16T10:44:49 0100</time>
      </trkpt>
      <trkpt lat="47.25519" lon="4.96726">
        <ele>374.0368347168</ele>
        <time>2020-01-16T10:44:53 0100</time>
      </trkpt>
      <trkpt lat="47.25519" lon="4.96726">
        <ele>374.26138305664</ele>
        <time>2020-01-16T10:44:57 0100</time>
      </trkpt>
      <trkpt lat="47.25521" lon="4.96726">
        <ele>374.68783569336</ele>
        <time>2020-01-16T10:45:01 0100</time>
      </trkpt>
      <trkpt lat="47.25523" lon="4.96726">
        <ele>375.0495300293</ele>
        <time>2020-01-16T10:45:05 0100</time>
      </trkpt>
      <trkpt lat="47.25525" lon="4.96727">
        <ele>375.53604125977</ele>
        <time>2020-01-16T10:45:09 0100</time>
      </trkpt>
      <trkpt lat="47.25528" lon="4.96729">
        <ele>376.02114868164</ele>
        <time>2020-01-16T10:45:13 0100</time>
      </trkpt>
      <trkpt lat="47.2553" lon="4.96729">
        <ele>376.4055480957</ele>
        <time>2020-01-16T10:45:17 0100</time>
      </trkpt>
      <trkpt lat="47.25532" lon="4.96729">
        <ele>376.81262207031</ele>
        <time>2020-01-16T10:45:21 0100</time>
      </trkpt>
      <trkpt lat="47.25534" lon="4.9673">
        <ele>377.35977172852</ele>
        <time>2020-01-16T10:45:25 0100</time>
      </trkpt>
      <trkpt lat="47.25537" lon="4.96732">
        <ele>377.9182434082</ele>
        <time>2020-01-16T10:45:29 0100</time>
      </trkpt>
      <trkpt lat="47.2554" lon="4.96733">
        <ele>378.48086547852</ele>
        <time>2020-01-16T10:45:33 0100</time>
      </trkpt>
      <trkpt lat="47.25543" lon="4.96733">
        <ele>379.0485534668</ele>
        <time>2020-01-16T10:45:37 0100</time>
      </trkpt>
      <trkpt lat="47.25547" lon="4.96734">
        <ele>379.60983276367</ele>
        <time>2020-01-16T10:45:41 0100</time>
      </trkpt>
      <trkpt lat="47.2555" lon="4.96734">
        <ele>380.19122314453</ele>
        <time>2020-01-16T10:45:45 0100</time>
      </trkpt>
      <trkpt lat="47.25553" lon="4.96735">
        <ele>380.78784179688</ele>
        <time>2020-01-16T10:45:49 0100</time>
      </trkpt>
      <trkpt lat="47.25556" lon="4.96736">
        <ele>381.35638427734</ele>
        <time>2020-01-16T10:45:53 0100</time>
      </trkpt>
      <trkpt lat="47.25559" lon="4.96737">
        <ele>381.91015625</ele>
        <time>2020-01-16T10:45:57 0100</time>
      </trkpt>
      <trkpt lat="47.25562" lon="4.96738">
        <ele>382.47662353516</ele>
        <time>2020-01-16T10:46:01 0100</time>
      </trkpt>
      <trkpt lat="47.25565" lon="4.96739">
        <ele>383.06265258789</ele>
        <time>2020-01-16T10:46:05 0100</time>
      </trkpt>
      <trkpt lat="47.25567" lon="4.96741">
        <ele>383.64840698242</ele>
        <time>2020-01-16T10:46:09 0100</time>
      </trkpt>
      <trkpt lat="47.25568" lon="4.9674">
        <ele>384.08367919922</ele>
        <time>2020-01-16T10:46:13 0100</time>
      </trkpt>
      <trkpt lat="47.25569" lon="4.9674">
        <ele>384.14706420898</ele>
        <time>2020-01-16T10:46:17 0100</time>
      </trkpt>
      <trkpt lat="47.25569" lon="4.9674">
        <ele>384.21820068359</ele>
        <time>2020-01-16T10:46:21 0100</time>
      </trkpt>
      <trkpt lat="47.25569" lon="4.96741">
        <ele>384.29095458984</ele>
        <time>2020-01-16T10:46:25 0100</time>
      </trkpt>
      <trkpt lat="47.25569" lon="4.96741">
        <ele>384.36389160156</ele>
        <time>2020-01-16T10:46:29 0100</time>
      </trkpt>
      <trkpt lat="47.25569" lon="4.96742">
        <ele>384.44354248047</ele>
        <time>2020-01-16T10:46:33 0100</time>
      </trkpt>
      <trkpt lat="47.2557" lon="4.96742">
        <ele>384.52685546875</ele>
        <time>2020-01-16T10:46:37 0100</time>
      </trkpt>
      <trkpt lat="47.2557" lon="4.96743">
        <ele>384.61431884766</ele>
        <time>2020-01-16T10:46:41 0100</time>
      </trkpt>
      <trkpt lat="47.2557" lon="4.96743">
        <ele>384.67623901367</ele>
        <time>2020-01-16T10:46:45 0100</time>
      </trkpt>
      <trkpt lat="47.25571" lon="4.96743">
        <ele>384.72055053711</ele>
        <time>2020-01-16T10:46:49 0100</time>
      </trkpt>
      <trkpt lat="47.25572" lon="4.96744">
        <ele>384.75494384766</ele>
        <time>2020-01-16T10:46:53 0100</time>
      </trkpt>
      <trkpt lat="47.25574" lon="4.96745">
        <ele>384.87603759766</ele>
        <time>2020-01-16T10:46:57 0100</time>
      </trkpt>
      <trkpt lat="47.25577" lon="4.96746">
        <ele>384.98107910156</ele>
        <time>2020-01-16T10:47:01 0100</time>
      </trkpt>
      <trkpt lat="47.2558" lon="4.96748">
        <ele>385.16018676758</ele>
        <time>2020-01-16T10:47:05 0100</time>
      </trkpt>
      <trkpt lat="47.25582" lon="4.96749">
        <ele>385.39978027344</ele>
        <time>2020-01-16T10:47:09 0100</time>
      </trkpt>
      <trkpt lat="47.25583" lon="4.96749">
        <ele>385.75891113281</ele>
        <time>2020-01-16T10:47:13 0100</time>
      </trkpt>
      <trkpt lat="47.25584" lon="4.96751">
        <ele>386.23443603516</ele>
        <time>2020-01-16T10:47:17 0100</time>
      </trkpt>
      <trkpt lat="47.25586" lon="4.96753">
        <ele>386.68374633789</ele>
        <time>2020-01-16T10:47:21 0100</time>
      </trkpt>
      <trkpt lat="47.25588" lon="4.96757">
        <ele>387.30780029297</ele>
        <time>2020-01-16T10:47:25 0100</time>
      </trkpt>
      <trkpt lat="47.2559" lon="4.9676">
        <ele>387.7809753418</ele>
        <time>2020-01-16T10:47:29 0100</time>
      </trkpt>
      <trkpt lat="47.25593" lon="4.96764">
        <ele>388.20751953125</ele>
        <time>2020-01-16T10:47:33 0100</time>
      </trkpt>
      <trkpt lat="47.25595" lon="4.96765">
        <ele>388.57180786133</ele>
        <time>2020-01-16T10:47:37 0100</time>
      </trkpt>
      <trkpt lat="47.25598" lon="4.96768">
        <ele>388.94525146484</ele>
        <time>2020-01-16T10:47:41 0100</time>
      </trkpt>
      <trkpt lat="47.25599" lon="4.96768">
        <ele>389.09115600586</ele>
        <time>2020-01-16T10:47:45 0100</time>
      </trkpt>
      <trkpt lat="47.25599" lon="4.96767">
        <ele>389.10217285156</ele>
        <time>2020-01-16T10:47:49 0100</time>
      </trkpt>
      <trkpt lat="47.25599" lon="4.96767">
        <ele>389.11090087891</ele>
        <time>2020-01-16T10:47:53 0100</time>
      </trkpt>
      <trkpt lat="47.25599" lon="4.96767">
        <ele>389.16656494141</ele>
        <time>2020-01-16T10:47:57 0100</time>
      </trkpt>
      <trkpt lat="47.256" lon="4.96767">
        <ele>389.22796630859</ele>
        <time>2020-01-16T10:48:01 0100</time>
      </trkpt>
      <trkpt lat="47.256" lon="4.96767">
        <ele>389.24639892578</ele>
        <time>2020-01-16T10:48:05 0100</time>
      </trkpt>
      <trkpt lat="47.256" lon="4.96767">
        <ele>389.25622558594</ele>
        <time>2020-01-16T10:48:09 0100</time>
      </trkpt>
      <trkpt lat="47.256" lon="4.96767">
        <ele>389.2483215332</ele>
        <time>2020-01-16T10:48:13 0100</time>
      </trkpt>
      <trkpt lat="47.256" lon="4.96767">
        <ele>389.23745727539</ele>
        <time>2020-01-16T10:48:17 0100</time>
      </trkpt>
      <trkpt lat="47.256" lon="4.96767">
        <ele>389.24212646484</ele>
        <time>2020-01-16T10:48:21 0100</time>
      </trkpt>
      <trkpt lat="47.256" lon="4.96766">
        <ele>389.25399780273</ele>
        <time>2020-01-16T10:48:25 0100</time>
      </trkpt>
      <trkpt lat="47.256" lon="4.96766">
        <ele>389.28143310547</ele>
        <time>2020-01-16T10:48:29 0100</time>
      </trkpt>
      <trkpt lat="47.256" lon="4.96765">
        <ele>389.3171081543</ele>
        <time>2020-01-16T10:48:33 0100</time>
      </trkpt>
      <trkpt lat="47.256" lon="4.96766">
        <ele>389.33187866211</ele>
        <time>2020-01-16T10:48:37 0100</time>
      </trkpt>
      <trkpt lat="47.25601" lon="4.96765">
        <ele>389.35595703125</ele>
        <time>2020-01-16T10:48:41 0100</time>
      </trkpt>
      <trkpt lat="47.25605" lon="4.96767">
        <ele>389.51287841797</ele>
        <time>2020-01-16T10:48:45 0100</time>
      </trkpt>
      <trkpt lat="47.25608" lon="4.96768">
        <ele>389.48004150391</ele>
        <time>2020-01-16T10:48:49 0100</time>
      </trkpt>
      <trkpt lat="47.25609" lon="4.96769">
        <ele>389.43954467773</ele>
        <time>2020-01-16T10:48:53 0100</time>
      </trkpt>
      <trkpt lat="47.25609" lon="4.9677">
        <ele>389.38592529297</ele>
        <time>2020-01-16T10:48:57 0100</time>
      </trkpt>
      <trkpt lat="47.25609" lon="4.9677">
        <ele>389.31268310547</ele>
        <time>2020-01-16T10:49:01 0100</time>
      </trkpt>
      <trkpt lat="47.25609" lon="4.96771">
        <ele>389.23040771484</ele>
        <time>2020-01-16T10:49:05 0100</time>
      </trkpt>
      <trkpt lat="47.25609" lon="4.96771">
        <ele>389.16015625</ele>
        <time>2020-01-16T10:49:09 0100</time>
      </trkpt>
      <trkpt lat="47.2561" lon="4.96772">
        <ele>388.95370483398</ele>
        <time>2020-01-16T10:49:13 0100</time>
      </trkpt>
      <trkpt lat="47.2561" lon="4.96772">
        <ele>388.90689086914</ele>
        <time>2020-01-16T10:49:17 0100</time>
      </trkpt>
      <trkpt lat="47.2561" lon="4.96771">
        <ele>388.85299682617</ele>
        <time>2020-01-16T10:49:21 0100</time>
      </trkpt>
      <trkpt lat="47.25609" lon="4.96771">
        <ele>388.79440307617</ele>
        <time>2020-01-16T10:49:25 0100</time>
      </trkpt>
      <trkpt lat="47.25608" lon="4.96771">
        <ele>388.53402709961</ele>
        <time>2020-01-16T10:49:29 0100</time>
      </trkpt>
      <trkpt lat="47.25607" lon="4.96772">
        <ele>388.32186889648</ele>
        <time>2020-01-16T10:49:33 0100</time>
      </trkpt>
      <trkpt lat="47.25607" lon="4.96772">
        <ele>388.2829284668</ele>
        <time>2020-01-16T10:49:37 0100</time>
      </trkpt>
      <trkpt lat="47.25606" lon="4.96773">
        <ele>388.15512084961</ele>
        <time>2020-01-16T10:49:41 0100</time>
      </trkpt>
      <trkpt lat="47.25606" lon="4.96773">
        <ele>388.11822509766</ele>
        <time>2020-01-16T10:49:45 0100</time>
      </trkpt>
      <trkpt lat="47.25606" lon="4.96773">
        <ele>388.08389282227</ele>
        <time>2020-01-16T10:49:49 0100</time>
      </trkpt>
      <trkpt lat="47.25607" lon="4.96773">
        <ele>387.96463012695</ele>
        <time>2020-01-16T10:49:53 0100</time>
      </trkpt>
      <trkpt lat="47.25607" lon="4.96773">
        <ele>387.68930053711</ele>
        <time>2020-01-16T10:49:57 0100</time>
      </trkpt>
      <trkpt lat="47.25607" lon="4.96773">
        <ele>387.63717651367</ele>
        <time>2020-01-16T10:50:01 0100</time>
      </trkpt>
      <trkpt lat="47.25607" lon="4.96773">
        <ele>387.58026123047</ele>
        <time>2020-01-16T10:50:05 0100</time>
      </trkpt>
      <trkpt lat="47.25607" lon="4.96773">
        <ele>387.51342773438</ele>
        <time>2020-01-16T10:50:09 0100</time>
      </trkpt>
      <trkpt lat="47.25607" lon="4.96773">
        <ele>387.31817626953</ele>
        <time>2020-01-16T10:50:13 0100</time>
      </trkpt>
      <trkpt lat="47.25607" lon="4.96772">
        <ele>387.26733398438</ele>
        <time>2020-01-16T10:50:17 0100</time>
      </trkpt>
      <trkpt lat="47.25607" lon="4.96771">
        <ele>386.95681762695</ele>
        <time>2020-01-16T10:50:21 0100</time>
      </trkpt>
      <trkpt lat="47.25607" lon="4.9677">
        <ele>386.91864013672</ele>
        <time>2020-01-16T10:50:25 0100</time>
      </trkpt>
      <trkpt lat="47.25607" lon="4.9677">
        <ele>386.93939208984</ele>
        <time>2020-01-16T10:50:29 0100</time>
      </trkpt>
      <trkpt lat="47.25607" lon="4.96771">
        <ele>386.96728515625</ele>
        <time>2020-01-16T10:50:33 0100</time>
      </trkpt>
      <trkpt lat="47.25606" lon="4.96772">
        <ele>386.99981689453</ele>
        <time>2020-01-16T10:50:37 0100</time>
      </trkpt>
      <trkpt lat="47.25606" lon="4.96772">
        <ele>386.9801940918</ele>
        <time>2020-01-16T10:50:41 0100</time>
      </trkpt>
      <trkpt lat="47.25606" lon="4.96772">
        <ele>386.97082519531</ele>
        <time>2020-01-16T10:50:45 0100</time>
      </trkpt>
      <trkpt lat="47.25606" lon="4.96772">
        <ele>386.97573852539</ele>
        <time>2020-01-16T10:50:49 0100</time>
      </trkpt>
      <trkpt lat="47.25606" lon="4.96773">
        <ele>386.98583984375</ele>
        <time>2020-01-16T10:50:52 0100</time>
      </trkpt>
      <trkpt lat="47.25606" lon="4.96773">
        <ele>386.99765014648</ele>
        <time>2020-01-16T10:50:56 0100</time>
      </trkpt>
      <trkpt lat="47.25606" lon="4.96772">
        <ele>387.01226806641</ele>
        <time>2020-01-16T10:51:00 0100</time>
      </trkpt>
      <trkpt lat="47.25607" lon="4.96772">
        <ele>387.048828125</ele>
        <time>2020-01-16T10:51:04 0100</time>
      </trkpt>
      <trkpt lat="47.25606" lon="4.96772">
        <ele>387.09057617188</ele>
        <time>2020-01-16T10:51:08 0100</time>
      </trkpt>
      <trkpt lat="47.25606" lon="4.96772">
        <ele>387.18353271484</ele>
        <time>2020-01-16T10:51:12 0100</time>
      </trkpt>
      <trkpt lat="47.25605" lon="4.96772">
        <ele>387.26440429688</ele>
        <time>2020-01-16T10:51:16 0100</time>
      </trkpt>
      <trkpt lat="47.25605" lon="4.96772">
        <ele>387.42153930664</ele>
        <time>2020-01-16T10:51:20 0100</time>
      </trkpt>
      <trkpt lat="47.25606" lon="4.96772">
        <ele>387.45626831055</ele>
        <time>2020-01-16T10:51:24 0100</time>
      </trkpt>
      <trkpt lat="47.25606" lon="4.96772">
        <ele>387.51107788086</ele>
        <time>2020-01-16T10:51:28 0100</time>
      </trkpt>
      <trkpt lat="47.25606" lon="4.96773">
        <ele>387.62149047852</ele>
        <time>2020-01-16T10:51:32 0100</time>
      </trkpt>
      <trkpt lat="47.25607" lon="4.96773">
        <ele>387.75360107422</ele>
        <time>2020-01-16T10:51:36 0100</time>
      </trkpt>
      <trkpt lat="47.25608" lon="4.96774">
        <ele>387.90853881836</ele>
        <time>2020-01-16T10:51:40 0100</time>
      </trkpt>
      <trkpt lat="47.25608" lon="4.96774">
        <ele>388.06204223633</ele>
        <time>2020-01-16T10:51:44 0100</time>
      </trkpt>
      <trkpt lat="47.25608" lon="4.96775">
        <ele>388.21597290039</ele>
        <time>2020-01-16T10:51:48 0100</time>
      </trkpt>
      <trkpt lat="47.25609" lon="4.96775">
        <ele>388.35980224609</ele>
        <time>2020-01-16T10:51:52 0100</time>
      </trkpt>
      <trkpt lat="47.25609" lon="4.96775">
        <ele>388.4938659668</ele>
        <time>2020-01-16T10:51:56 0100</time>
      </trkpt>
      <trkpt lat="47.25609" lon="4.96775">
        <ele>388.62515258789</ele>
        <time>2020-01-16T10:52:00 0100</time>
      </trkpt>
      <trkpt lat="47.2561" lon="4.96775">
        <ele>388.75350952148</ele>
        <time>2020-01-16T10:52:04 0100</time>
      </trkpt>
      <trkpt lat="47.2561" lon="4.96775">
        <ele>388.88037109375</ele>
        <time>2020-01-16T10:52:08 0100</time>
      </trkpt>
      <trkpt lat="47.25611" lon="4.96775">
        <ele>389.00469970703</ele>
        <time>2020-01-16T10:52:12 0100</time>
      </trkpt>
      <trkpt lat="47.25611" lon="4.96776">
        <ele>389.40533447266</ele>
        <time>2020-01-16T10:52:16 0100</time>
      </trkpt>
      <trkpt lat="47.25609" lon="4.96777">
        <ele>389.82345581055</ele>
        <time>2020-01-16T10:52:20 0100</time>
      </trkpt>
      <trkpt lat="47.25609" lon="4.9678">
        <ele>390.38562011719</ele>
        <time>2020-01-16T10:52:24 0100</time>
      </trkpt>
      <trkpt lat="47.25608" lon="4.96782">
        <ele>390.8557434082</ele>
        <time>2020-01-16T10:52:28 0100</time>
      </trkpt>
      <trkpt lat="47.25606" lon="4.96785">
        <ele>391.17901611328</ele>
        <time>2020-01-16T10:52:32 0100</time>
      </trkpt>
      <trkpt lat="47.25604" lon="4.96788">
        <ele>391.42147827148</ele>
        <time>2020-01-16T10:52:36 0100</time>
      </trkpt>
      <trkpt lat="47.25602" lon="4.96791">
        <ele>391.64733886719</ele>
        <time>2020-01-16T10:52:40 0100</time>
      </trkpt>
      <trkpt lat="47.256" lon="4.96794">
        <ele>391.82971191406</ele>
        <time>2020-01-16T10:52:44 0100</time>
      </trkpt>
      <trkpt lat="47.25598" lon="4.96797">
        <ele>391.82443237305</ele>
        <time>2020-01-16T10:52:48 0100</time>
      </trkpt>
      <trkpt lat="47.25596" lon="4.96801">
        <ele>391.69622802734</ele>
        <time>2020-01-16T10:52:52 0100</time>
      </trkpt>
      <trkpt lat="47.25595" lon="4.96803">
        <ele>391.43258666992</ele>
        <time>2020-01-16T10:52:56 0100</time>
      </trkpt>
      <trkpt lat="47.25594" lon="4.96805">
        <ele>391.03530883789</ele>
        <time>2020-01-16T10:53:00 0100</time>
      </trkpt>
      <trkpt lat="47.25593" lon="4.96809">
        <ele>390.51416015625</ele>
        <time>2020-01-16T10:53:04 0100</time>
      </trkpt>
      <trkpt lat="47.25592" lon="4.96813">
        <ele>389.92910766602</ele>
        <time>2020-01-16T10:53:08 0100</time>
      </trkpt>
      <trkpt lat="47.2559" lon="4.96817">
        <ele>389.21731567383</ele>
        <time>2020-01-16T10:53:12 0100</time>
      </trkpt>
      <trkpt lat="47.25589" lon="4.9682">
        <ele>388.5231628418</ele>
        <time>2020-01-16T10:53:16 0100</time>
      </trkpt>
      <trkpt lat="47.25587" lon="4.96824">
        <ele>387.84777832031</ele>
        <time>2020-01-16T10:53:20 0100</time>
      </trkpt>
      <trkpt lat="47.25586" lon="4.96827">
        <ele>387.08395385742</ele>
        <time>2020-01-16T10:53:24 0100</time>
      </trkpt>
      <trkpt lat="47.25585" lon="4.96831">
        <ele>386.259765625</ele>
        <time>2020-01-16T10:53:28 0100</time>
      </trkpt>
      <trkpt lat="47.25583" lon="4.96834">
        <ele>385.40484619141</ele>
        <time>2020-01-16T10:53:32 0100</time>
      </trkpt>
      <trkpt lat="47.25581" lon="4.96837">
        <ele>384.57260131836</ele>
        <time>2020-01-16T10:53:36 0100</time>
      </trkpt>
      <trkpt lat="47.2558" lon="4.96841">
        <ele>383.71975708008</ele>
        <time>2020-01-16T10:53:40 0100</time>
      </trkpt>
      <trkpt lat="47.25578" lon="4.96845">
        <ele>382.79470825195</ele>
        <time>2020-01-16T10:53:44 0100</time>
      </trkpt>
      <trkpt lat="47.25577" lon="4.96849">
        <ele>381.83010864258</ele>
        <time>2020-01-16T10:53:48 0100</time>
      </trkpt>
      <trkpt lat="47.25575" lon="4.96854">
        <ele>380.83972167969</ele>
        <time>2020-01-16T10:53:52 0100</time>
      </trkpt>
      <trkpt lat="47.25574" lon="4.96858">
        <ele>379.88586425781</ele>
        <time>2020-01-16T10:53:56 0100</time>
      </trkpt>
      <trkpt lat="47.25572" lon="4.96862">
        <ele>378.93658447266</ele>
        <time>2020-01-16T10:54:00 0100</time>
      </trkpt>
      <trkpt lat="47.25571" lon="4.96865">
        <ele>378.07809448242</ele>
        <time>2020-01-16T10:54:04 0100</time>
      </trkpt>
      <trkpt lat="47.25569" lon="4.96868">
        <ele>377.34771728516</ele>
        <time>2020-01-16T10:54:08 0100</time>
      </trkpt>
      <trkpt lat="47.25568" lon="4.96872">
        <ele>376.64208984375</ele>
        <time>2020-01-16T10:54:12 0100</time>
      </trkpt>
      <trkpt lat="47.25566" lon="4.96876">
        <ele>375.95495605469</ele>
        <time>2020-01-16T10:54:16 0100</time>
      </trkpt>
      <trkpt lat="47.25565" lon="4.96879">
        <ele>375.21343994141</ele>
        <time>2020-01-16T10:54:20 0100</time>
      </trkpt>
      <trkpt lat="47.25562" lon="4.96884">
        <ele>374.38223266602</ele>
        <time>2020-01-16T10:54:24 0100</time>
      </trkpt>
      <trkpt lat="47.25561" lon="4.96888">
        <ele>373.47961425781</ele>
        <time>2020-01-16T10:54:28 0100</time>
      </trkpt>
      <trkpt lat="47.25559" lon="4.96892">
        <ele>372.56069946289</ele>
        <time>2020-01-16T10:54:32 0100</time>
      </trkpt>
      <trkpt lat="47.25558" lon="4.96895">
        <ele>371.71301269531</ele>
        <time>2020-01-16T10:54:36 0100</time>
      </trkpt>
      <trkpt lat="47.25556" lon="4.96899">
        <ele>370.80978393555</ele>
        <time>2020-01-16T10:54:40 0100</time>
      </trkpt>
      <trkpt lat="47.25555" lon="4.96903">
        <ele>369.88018798828</ele>
        <time>2020-01-16T10:54:44 0100</time>
      </trkpt>
      <trkpt lat="47.25553" lon="4.96909">
        <ele>368.94573974609</ele>
        <time>2020-01-16T10:54:48 0100</time>
      </trkpt>
      <trkpt lat="47.25551" lon="4.96913">
        <ele>368.04870605469</ele>
        <time>2020-01-16T10:54:52 0100</time>
      </trkpt>
      <trkpt lat="47.25552" lon="4.96917">
        <ele>367.21942138672</ele>
        <time>2020-01-16T10:54:56 0100</time>
      </trkpt>
      <trkpt lat="47.25555" lon="4.96921">
        <ele>366.41137695312</ele>
        <time>2020-01-16T10:55:00 0100</time>
      </trkpt>
      <trkpt lat="47.25559" lon="4.96926">
        <ele>365.67068481445</ele>
        <time>2020-01-16T10:55:04 0100</time>
      </trkpt>
      <trkpt lat="47.25563" lon="4.96928">
        <ele>364.93771362305</ele>
        <time>2020-01-16T10:55:08 0100</time>
      </trkpt>
      <trkpt lat="47.25566" lon="4.96932">
        <ele>364.2893371582</ele>
        <time>2020-01-16T10:55:12 0100</time>
      </trkpt>
      <trkpt lat="47.25569" lon="4.96937">
        <ele>363.68887329102</ele>
        <time>2020-01-16T10:55:16 0100</time>
      </trkpt>
      <trkpt lat="47.25571" lon="4.9694">
        <ele>363.28341674805</ele>
        <time>2020-01-16T10:55:20 0100</time>
      </trkpt>
      <trkpt lat="47.25574" lon="4.96945">
        <ele>363.03848266602</ele>
        <time>2020-01-16T10:55:24 0100</time>
      </trkpt>
      <trkpt lat="47.25576" lon="4.96951">
        <ele>362.67398071289</ele>
        <time>2020-01-16T10:55:28 0100</time>
      </trkpt>
      <trkpt lat="47.25575" lon="4.96955">
        <ele>361.99954223633</ele>
        <time>2020-01-16T10:55:32 0100</time>
      </trkpt>
      <trkpt lat="47.25572" lon="4.96956">
        <ele>361.23635864258</ele>
        <time>2020-01-16T10:55:36 0100</time>
      </trkpt>
      <trkpt lat="47.25569" lon="4.96958">
        <ele>360.50912475586</ele>
        <time>2020-01-16T10:55:40 0100</time>
      </trkpt>
      <trkpt lat="47.25564" lon="4.9696">
        <ele>359.80627441406</ele>
        <time>2020-01-16T10:55:44 0100</time>
      </trkpt>
      <trkpt lat="47.25561" lon="4.96961">
        <ele>359.11486816406</ele>
        <time>2020-01-16T10:55:48 0100</time>
      </trkpt>
      <trkpt lat="47.25556" lon="4.96961">
        <ele>358.42443847656</ele>
        <time>2020-01-16T10:55:52 0100</time>
      </trkpt>
      <trkpt lat="47.25552" lon="4.96962">
        <ele>357.72286987305</ele>
        <time>2020-01-16T10:55:56 0100</time>
      </trkpt>
      <trkpt lat="47.25547" lon="4.96962">
        <ele>357.07083129883</ele>
        <time>2020-01-16T10:56:00 0100</time>
      </trkpt>
      <trkpt lat="47.25544" lon="4.96962">
        <ele>356.44860839844</ele>
        <time>2020-01-16T10:56:04 0100</time>
      </trkpt>
      <trkpt lat="47.2554" lon="4.96961">
        <ele>355.86599731445</ele>
        <time>2020-01-16T10:56:08 0100</time>
      </trkpt>
      <trkpt lat="47.25535" lon="4.96961">
        <ele>355.36779785156</ele>
        <time>2020-01-16T10:56:12 0100</time>
      </trkpt>
      <trkpt lat="47.25531" lon="4.9696">
        <ele>354.90606689453</ele>
        <time>2020-01-16T10:56:16 0100</time>
      </trkpt>
      <trkpt lat="47.25526" lon="4.9696">
        <ele>354.45034790039</ele>
        <time>2020-01-16T10:56:20 0100</time>
      </trkpt>
      <trkpt lat="47.25522" lon="4.96959">
        <ele>353.99795532227</ele>
        <time>2020-01-16T10:56:24 0100</time>
      </trkpt>
      <trkpt lat="47.25518" lon="4.96959">
        <ele>353.50717163086</ele>
        <time>2020-01-16T10:56:28 0100</time>
      </trkpt>
      <trkpt lat="47.25514" lon="4.96958">
        <ele>352.97421264648</ele>
        <time>2020-01-16T10:56:32 0100</time>
      </trkpt>
      <trkpt lat="47.25509" lon="4.96958">
        <ele>352.41091918945</ele>
        <time>2020-01-16T10:56:36 0100</time>
      </trkpt>
      <trkpt lat="47.25505" lon="4.96957">
        <ele>351.86474609375</ele>
        <time>2020-01-16T10:56:40 0100</time>
      </trkpt>
      <trkpt lat="47.255" lon="4.96957">
        <ele>351.25408935547</ele>
        <time>2020-01-16T10:56:44 0100</time>
      </trkpt>
      <trkpt lat="47.25496" lon="4.96958">
        <ele>350.68209838867</ele>
        <time>2020-01-16T10:56:48 0100</time>
      </trkpt>
      <trkpt lat="47.25492" lon="4.96957">
        <ele>350.11938476562</ele>
        <time>2020-01-16T10:56:52 0100</time>
      </trkpt>
      <trkpt lat="47.25487" lon="4.96957">
        <ele>349.6032409668</ele>
        <time>2020-01-16T10:56:56 0100</time>
      </trkpt>
      <trkpt lat="47.25483" lon="4.96959">
        <ele>349.07995605469</ele>
        <time>2020-01-16T10:57:00 0100</time>
      </trkpt>
      <trkpt lat="47.25478" lon="4.9696">
        <ele>348.53945922852</ele>
        <time>2020-01-16T10:57:04 0100</time>
      </trkpt>
      <trkpt lat="47.25475" lon="4.9696">
        <ele>347.98504638672</ele>
        <time>2020-01-16T10:57:08 0100</time>
      </trkpt>
      <trkpt lat="47.25472" lon="4.9696">
        <ele>347.45614624023</ele>
        <time>2020-01-16T10:57:12 0100</time>
      </trkpt>
      <trkpt lat="47.25468" lon="4.96961">
        <ele>346.94201660156</ele>
        <time>2020-01-16T10:57:16 0100</time>
      </trkpt>
      <trkpt lat="47.25463" lon="4.9696">
        <ele>346.4016418457</ele>
        <time>2020-01-16T10:57:20 0100</time>
      </trkpt>
      <trkpt lat="47.25459" lon="4.96959">
        <ele>345.91168212891</ele>
        <time>2020-01-16T10:57:24 0100</time>
      </trkpt>
      <trkpt lat="47.25454" lon="4.96959">
        <ele>345.36285400391</ele>
        <time>2020-01-16T10:57:28 0100</time>
      </trkpt>
      <trkpt lat="47.2545" lon="4.96958">
        <ele>344.76684570312</ele>
        <time>2020-01-16T10:57:32 0100</time>
      </trkpt>
      <trkpt lat="47.25445" lon="4.96959">
        <ele>344.17868041992</ele>
        <time>2020-01-16T10:57:36 0100</time>
      </trkpt>
      <trkpt lat="47.25441" lon="4.96959">
        <ele>343.58242797852</ele>
        <time>2020-01-16T10:57:40 0100</time>
      </trkpt>
      <trkpt lat="47.25437" lon="4.9696">
        <ele>342.982421875</ele>
        <time>2020-01-16T10:57:44 0100</time>
      </trkpt>
      <trkpt lat="47.25434" lon="4.96961">
        <ele>342.46377563477</ele>
        <time>2020-01-16T10:57:48 0100</time>
      </trkpt>
      <trkpt lat="47.2543" lon="4.96964">
        <ele>341.96929931641</ele>
        <time>2020-01-16T10:57:52 0100</time>
      </trkpt>
      <trkpt lat="47.25426" lon="4.96965">
        <ele>341.44976806641</ele>
        <time>2020-01-16T10:57:56 0100</time>
      </trkpt>
      <trkpt lat="47.25421" lon="4.96968">
        <ele>341.00225830078</ele>
        <time>2020-01-16T10:58:00 0100</time>
      </trkpt>
      <trkpt lat="47.25417" lon="4.9697">
        <ele>340.65103149414</ele>
        <time>2020-01-16T10:58:04 0100</time>
      </trkpt>
      <trkpt lat="47.25414" lon="4.96972">
        <ele>340.43090820312</ele>
        <time>2020-01-16T10:58:08 0100</time>
      </trkpt>
      <trkpt lat="47.2541" lon="4.96973">
        <ele>340.27059936523</ele>
        <time>2020-01-16T10:58:12 0100</time>
      </trkpt>
      <trkpt lat="47.25405" lon="4.96972">
        <ele>339.96447753906</ele>
        <time>2020-01-16T10:58:16 0100</time>
      </trkpt>
      <trkpt lat="47.254" lon="4.96973">
        <ele>339.38815307617</ele>
        <time>2020-01-16T10:58:20 0100</time>
      </trkpt>
      <trkpt lat="47.25396" lon="4.96976">
        <ele>338.71160888672</ele>
        <time>2020-01-16T10:58:24 0100</time>
      </trkpt>
      <trkpt lat="47.25393" lon="4.96979">
        <ele>338.05242919922</ele>
        <time>2020-01-16T10:58:28 0100</time>
      </trkpt>
      <trkpt lat="47.2539" lon="4.96983">
        <ele>337.29635620117</ele>
        <time>2020-01-16T10:58:32 0100</time>
      </trkpt>
      <trkpt lat="47.25387" lon="4.96989">
        <ele>336.49264526367</ele>
        <time>2020-01-16T10:58:36 0100</time>
      </trkpt>
      <trkpt lat="47.25386" lon="4.96993">
        <ele>335.75155639648</ele>
        <time>2020-01-16T10:58:40 0100</time>
      </trkpt>
      <trkpt lat="47.25385" lon="4.96998">
        <ele>335.09658813477</ele>
        <time>2020-01-16T10:58:44 0100</time>
      </trkpt>
      <trkpt lat="47.25384" lon="4.97004">
        <ele>334.47216796875</ele>
        <time>2020-01-16T10:58:48 0100</time>
      </trkpt>
      <trkpt lat="47.25382" lon="4.9701">
        <ele>333.88217163086</ele>
        <time>2020-01-16T10:58:52 0100</time>
      </trkpt>
      <trkpt lat="47.25381" lon="4.97016">
        <ele>333.32690429688</ele>
        <time>2020-01-16T10:58:56 0100</time>
      </trkpt>
      <trkpt lat="47.2538" lon="4.9702">
        <ele>332.86364746094</ele>
        <time>2020-01-16T10:59:00 0100</time>
      </trkpt>
      <trkpt lat="47.25379" lon="4.97024">
        <ele>332.32766723633</ele>
        <time>2020-01-16T10:59:04 0100</time>
      </trkpt>
      <trkpt lat="47.25376" lon="4.97029">
        <ele>331.71447753906</ele>
        <time>2020-01-16T10:59:08 0100</time>
      </trkpt>
      <trkpt lat="47.25372" lon="4.97033">
        <ele>331.15118408203</ele>
        <time>2020-01-16T10:59:12 0100</time>
      </trkpt>
      <trkpt lat="47.25369" lon="4.97035">
        <ele>330.57177734375</ele>
        <time>2020-01-16T10:59:16 0100</time>
      </trkpt>
      <trkpt lat="47.25366" lon="4.97037">
        <ele>329.98556518555</ele>
        <time>2020-01-16T10:59:20 0100</time>
      </trkpt>
      <trkpt lat="47.25361" lon="4.97037">
        <ele>329.40310668945</ele>
        <time>2020-01-16T10:59:24 0100</time>
      </trkpt>
      <trkpt lat="47.25355" lon="4.97038">
        <ele>328.80584716797</ele>
        <time>2020-01-16T10:59:28 0100</time>
      </trkpt>
      <trkpt lat="47.25351" lon="4.97037">
        <ele>328.16015625</ele>
        <time>2020-01-16T10:59:32 0100</time>
      </trkpt>
      <trkpt lat="47.25347" lon="4.97034">
        <ele>327.62231445312</ele>
        <time>2020-01-16T10:59:36 0100</time>
      </trkpt>
      <trkpt lat="47.25344" lon="4.97031">
        <ele>327.14093017578</ele>
        <time>2020-01-16T10:59:40 0100</time>
      </trkpt>
      <trkpt lat="47.25341" lon="4.9703">
        <ele>326.775390625</ele>
        <time>2020-01-16T10:59:44 0100</time>
      </trkpt>
      <trkpt lat="47.25336" lon="4.97029">
        <ele>326.41293334961</ele>
        <time>2020-01-16T10:59:48 0100</time>
      </trkpt>
      <trkpt lat="47.25332" lon="4.97028">
        <ele>325.98022460938</ele>
        <time>2020-01-16T10:59:52 0100</time>
      </trkpt>
      <trkpt lat="47.25328" lon="4.97028">
        <ele>325.61376953125</ele>
        <time>2020-01-16T10:59:56 0100</time>
      </trkpt>
      <trkpt lat="47.25324" lon="4.97027">
        <ele>325.30453491211</ele>
        <time>2020-01-16T11:00:00 0100</time>
      </trkpt>
      <trkpt lat="47.25319" lon="4.97027">
        <ele>325.02194213867</ele>
        <time>2020-01-16T11:00:04 0100</time>
      </trkpt>
      <trkpt lat="47.25316" lon="4.97026">
        <ele>324.67184448242</ele>
        <time>2020-01-16T11:00:08 0100</time>
      </trkpt>
      <trkpt lat="47.2531" lon="4.97026">
        <ele>324.2639465332</ele>
        <time>2020-01-16T11:00:12 0100</time>
      </trkpt>
      <trkpt lat="47.25306" lon="4.97025">
        <ele>323.77896118164</ele>
        <time>2020-01-16T11:00:16 0100</time>
      </trkpt>
      <trkpt lat="47.25302" lon="4.97025">
        <ele>323.23132324219</ele>
        <time>2020-01-16T11:00:20 0100</time>
      </trkpt>
      <trkpt lat="47.25298" lon="4.97026">
        <ele>322.69921875</ele>
        <time>2020-01-16T11:00:24 0100</time>
      </trkpt>
      <trkpt lat="47.25294" lon="4.97026">
        <ele>322.18005371094</ele>
        <time>2020-01-16T11:00:28 0100</time>
      </trkpt>
      <trkpt lat="47.2529" lon="4.97028">
        <ele>321.7087097168</ele>
        <time>2020-01-16T11:00:32 0100</time>
      </trkpt>
      <trkpt lat="47.25285" lon="4.97029">
        <ele>321.22027587891</ele>
        <time>2020-01-16T11:00:36 0100</time>
      </trkpt>
      <trkpt lat="47.25281" lon="4.9703">
        <ele>320.74151611328</ele>
        <time>2020-01-16T11:00:40 0100</time>
      </trkpt>
      <trkpt lat="47.25277" lon="4.97031">
        <ele>320.24203491211</ele>
        <time>2020-01-16T11:00:44 0100</time>
      </trkpt>
      <trkpt lat="47.25272" lon="4.97031">
        <ele>319.73098754883</ele>
        <time>2020-01-16T11:00:48 0100</time>
      </trkpt>
      <trkpt lat="47.25267" lon="4.97032">
        <ele>319.24853515625</ele>
        <time>2020-01-16T11:00:52 0100</time>
      </trkpt>
      <trkpt lat="47.25262" lon="4.97032">
        <ele>318.74645996094</ele>
        <time>2020-01-16T11:00:56 0100</time>
      </trkpt>
      <trkpt lat="47.25257" lon="4.97032">
        <ele>318.35653686523</ele>
        <time>2020-01-16T11:01:00 0100</time>
      </trkpt>
      <trkpt lat="47.25253" lon="4.97032">
        <ele>317.9992980957</ele>
        <time>2020-01-16T11:01:04 0100</time>
      </trkpt>
      <trkpt lat="47.25248" lon="4.97032">
        <ele>317.5993347168</ele>
        <time>2020-01-16T11:01:08 0100</time>
      </trkpt>
      <trkpt lat="47.25243" lon="4.9703">
        <ele>317.23114013672</ele>
        <time>2020-01-16T11:01:12 0100</time>
      </trkpt>
      <trkpt lat="47.25237" lon="4.97028">
        <ele>316.93161010742</ele>
        <time>2020-01-16T11:01:16 0100</time>
      </trkpt>
      <trkpt lat="47.25232" lon="4.97027">
        <ele>316.62738037109</ele>
        <time>2020-01-16T11:01:20 0100</time>
      </trkpt>
      <trkpt lat="47.25228" lon="4.97024">
        <ele>316.41714477539</ele>
        <time>2020-01-16T11:01:24 0100</time>
      </trkpt>
      <trkpt lat="47.25225" lon="4.97024">
        <ele>316.23489379883</ele>
        <time>2020-01-16T11:01:28 0100</time>
      </trkpt>
      <trkpt lat="47.2522" lon="4.97023">
        <ele>316.14212036133</ele>
        <time>2020-01-16T11:01:32 0100</time>
      </trkpt>
      <trkpt lat="47.25216" lon="4.97023">
        <ele>315.98672485352</ele>
        <time>2020-01-16T11:01:36 0100</time>
      </trkpt>
      <trkpt lat="47.25212" lon="4.97023">
        <ele>315.80651855469</ele>
        <time>2020-01-16T11:01:40 0100</time>
      </trkpt>
      <trkpt lat="47.25207" lon="4.97023">
        <ele>315.60494995117</ele>
        <time>2020-01-16T11:01:44 0100</time>
      </trkpt>
      <trkpt lat="47.25202" lon="4.97024">
        <ele>315.46075439453</ele>
        <time>2020-01-16T11:01:48 0100</time>
      </trkpt>
      <trkpt lat="47.25198" lon="4.97025">
        <ele>315.29962158203</ele>
        <time>2020-01-16T11:01:52 0100</time>
      </trkpt>
      <trkpt lat="47.25193" lon="4.97027">
        <ele>315.15072631836</ele>
        <time>2020-01-16T11:01:56 0100</time>
      </trkpt>
      <trkpt lat="47.25188" lon="4.9703">
        <ele>315.03405761719</ele>
        <time>2020-01-16T11:02:00 0100</time>
      </trkpt>
      <trkpt lat="47.25184" lon="4.97031">
        <ele>314.98315429688</ele>
        <time>2020-01-16T11:02:04 0100</time>
      </trkpt>
      <trkpt lat="47.2518" lon="4.97033">
        <ele>314.95751953125</ele>
        <time>2020-01-16T11:02:08 0100</time>
      </trkpt>
      <trkpt lat="47.25176" lon="4.97036">
        <ele>314.95462036133</ele>
        <time>2020-01-16T11:02:12 0100</time>
      </trkpt>
      <trkpt lat="47.25172" lon="4.97038">
        <ele>314.91546630859</ele>
        <time>2020-01-16T11:02:16 0100</time>
      </trkpt>
      <trkpt lat="47.25167" lon="4.9704">
        <ele>314.91619873047</ele>
        <time>2020-01-16T11:02:20 0100</time>
      </trkpt>
      <trkpt lat="47.25163" lon="4.97043">
        <ele>314.93685913086</ele>
        <time>2020-01-16T11:02:24 0100</time>
      </trkpt>
      <trkpt lat="47.25159" lon="4.97046">
        <ele>314.97082519531</ele>
        <time>2020-01-16T11:02:28 0100</time>
      </trkpt>
      <trkpt lat="47.25152" lon="4.97049">
        <ele>314.93981933594</ele>
        <time>2020-01-16T11:02:32 0100</time>
      </trkpt>
      <trkpt lat="47.25149" lon="4.97052">
        <ele>314.95083618164</ele>
        <time>2020-01-16T11:02:36 0100</time>
      </trkpt>
      <trkpt lat="47.25145" lon="4.97055">
        <ele>314.97857666016</ele>
        <time>2020-01-16T11:02:40 0100</time>
      </trkpt>
      <trkpt lat="47.25141" lon="4.97058">
        <ele>315.05227661133</ele>
        <time>2020-01-16T11:02:44 0100</time>
      </trkpt>
      <trkpt lat="47.25137" lon="4.97061">
        <ele>315.08163452148</ele>
        <time>2020-01-16T11:02:48 0100</time>
      </trkpt>
      <trkpt lat="47.25132" lon="4.97064">
        <ele>315.15301513672</ele>
        <time>2020-01-16T11:02:52 0100</time>
      </trkpt>
      <trkpt lat="47.25128" lon="4.97067">
        <ele>315.29351806641</ele>
        <time>2020-01-16T11:02:56 0100</time>
      </trkpt>
      <trkpt lat="47.25124" lon="4.9707">
        <ele>315.47158813477</ele>
        <time>2020-01-16T11:03:00 0100</time>
      </trkpt>
      <trkpt lat="47.25121" lon="4.97072">
        <ele>315.54718017578</ele>
        <time>2020-01-16T11:03:04 0100</time>
      </trkpt>
      <trkpt lat="47.25117" lon="4.97075">
        <ele>315.5881652832</ele>
        <time>2020-01-16T11:03:09 0100</time>
      </trkpt>
      <trkpt lat="47.25113" lon="4.97077">
        <ele>315.62020874023</ele>
        <time>2020-01-16T11:03:13 0100</time>
      </trkpt>
      <trkpt lat="47.25107" lon="4.97081">
        <ele>315.67575073242</ele>
        <time>2020-01-16T11:03:17 0100</time>
      </trkpt>
      <trkpt lat="47.25104" lon="4.97083">
        <ele>315.68081665039</ele>
        <time>2020-01-16T11:03:21 0100</time>
      </trkpt>
      <trkpt lat="47.251" lon="4.97086">
        <ele>315.66528320312</ele>
        <time>2020-01-16T11:03:25 0100</time>
      </trkpt>
      <trkpt lat="47.25096" lon="4.9709">
        <ele>315.67416381836</ele>
        <time>2020-01-16T11:03:29 0100</time>
      </trkpt>
      <trkpt lat="47.25092" lon="4.97092">
        <ele>315.75549316406</ele>
        <time>2020-01-16T11:03:33 0100</time>
      </trkpt>
      <trkpt lat="47.25088" lon="4.97094">
        <ele>315.81378173828</ele>
        <time>2020-01-16T11:03:37 0100</time>
      </trkpt>
      <trkpt lat="47.25085" lon="4.97096">
        <ele>315.80459594727</ele>
        <time>2020-01-16T11:03:41 0100</time>
      </trkpt>
      <trkpt lat="47.2508" lon="4.97097">
        <ele>315.8381652832</ele>
        <time>2020-01-16T11:03:45 0100</time>
      </trkpt>
      <trkpt lat="47.25076" lon="4.971">
        <ele>315.85546875</ele>
        <time>2020-01-16T11:03:49 0100</time>
      </trkpt>
      <trkpt lat="47.25073" lon="4.97101">
        <ele>315.86578369141</ele>
        <time>2020-01-16T11:03:53 0100</time>
      </trkpt>
      <trkpt lat="47.25068" lon="4.97104">
        <ele>315.85836791992</ele>
        <time>2020-01-16T11:03:57 0100</time>
      </trkpt>
      <trkpt lat="47.25064" lon="4.97105">
        <ele>315.90032958984</ele>
        <time>2020-01-16T11:04:01 0100</time>
      </trkpt>
      <trkpt lat="47.25059" lon="4.97106">
        <ele>315.89654541016</ele>
        <time>2020-01-16T11:04:05 0100</time>
      </trkpt>
      <trkpt lat="47.25054" lon="4.97107">
        <ele>315.93725585938</ele>
        <time>2020-01-16T11:04:09 0100</time>
      </trkpt>
      <trkpt lat="47.25049" lon="4.97108">
        <ele>316.11093139648</ele>
        <time>2020-01-16T11:04:13 0100</time>
      </trkpt>
      <trkpt lat="47.25045" lon="4.97111">
        <ele>316.13970947266</ele>
        <time>2020-01-16T11:04:17 0100</time>
      </trkpt>
      <trkpt lat="47.2504" lon="4.97112">
        <ele>316.09262084961</ele>
        <time>2020-01-16T11:04:21 0100</time>
      </trkpt>
      <trkpt lat="47.25037" lon="4.97114">
        <ele>315.97546386719</ele>
        <time>2020-01-16T11:04:25 0100</time>
      </trkpt>
      <trkpt lat="47.25033" lon="4.97116">
        <ele>315.88778686523</ele>
        <time>2020-01-16T11:04:29 0100</time>
      </trkpt>
      <trkpt lat="47.25027" lon="4.97117">
        <ele>315.82888793945</ele>
        <time>2020-01-16T11:04:33 0100</time>
      </trkpt>
      <trkpt lat="47.25023" lon="4.97117">
        <ele>315.78326416016</ele>
        <time>2020-01-16T11:04:37 0100</time>
      </trkpt>
      <trkpt lat="47.25017" lon="4.97116">
        <ele>315.73245239258</ele>
        <time>2020-01-16T11:04:41 0100</time>
      </trkpt>
      <trkpt lat="47.25011" lon="4.97111">
        <ele>315.56033325195</ele>
        <time>2020-01-16T11:04:45 0100</time>
      </trkpt>
      <trkpt lat="47.25009" lon="4.97105">
        <ele>315.2571105957</ele>
        <time>2020-01-16T11:04:49 0100</time>
      </trkpt>
      <trkpt lat="47.25008" lon="4.97097">
        <ele>315.03344726562</ele>
        <time>2020-01-16T11:04:53 0100</time>
      </trkpt>
      <trkpt lat="47.25008" lon="4.97092">
        <ele>314.7717590332</ele>
        <time>2020-01-16T11:04:57 0100</time>
      </trkpt>
      <trkpt lat="47.25008" lon="4.97085">
        <ele>314.59603881836</ele>
        <time>2020-01-16T11:05:01 0100</time>
      </trkpt>
      <trkpt lat="47.25008" lon="4.97079">
        <ele>314.46771240234</ele>
        <time>2020-01-16T11:05:05 0100</time>
      </trkpt>
      <trkpt lat="47.25008" lon="4.97072">
        <ele>314.39434814453</ele>
        <time>2020-01-16T11:05:09 0100</time>
      </trkpt>
      <trkpt lat="47.25008" lon="4.97067">
        <ele>314.36929321289</ele>
        <time>2020-01-16T11:05:13 0100</time>
      </trkpt>
      <trkpt lat="47.25007" lon="4.97061">
        <ele>314.43872070312</ele>
        <time>2020-01-16T11:05:17 0100</time>
      </trkpt>
      <trkpt lat="47.25007" lon="4.97054">
        <ele>314.57846069336</ele>
        <time>2020-01-16T11:05:21 0100</time>
      </trkpt>
      <trkpt lat="47.25007" lon="4.97047">
        <ele>314.7109375</ele>
        <time>2020-01-16T11:05:25 0100</time>
      </trkpt>
      <trkpt lat="47.25006" lon="4.97042">
        <ele>314.8952331543</ele>
        <time>2020-01-16T11:05:29 0100</time>
      </trkpt>
      <trkpt lat="47.25003" lon="4.97036">
        <ele>315.02825927734</ele>
        <time>2020-01-16T11:05:33 0100</time>
      </trkpt>
      <trkpt lat="47.24998" lon="4.97034">
        <ele>315.05740356445</ele>
        <time>2020-01-16T11:05:37 0100</time>
      </trkpt>
      <trkpt lat="47.24994" lon="4.97034">
        <ele>315.22885131836</ele>
        <time>2020-01-16T11:05:41 0100</time>
      </trkpt>
      <trkpt lat="47.2499" lon="4.97032">
        <ele>315.63497924805</ele>
        <time>2020-01-16T11:05:45 0100</time>
      </trkpt>
      <trkpt lat="47.24986" lon="4.97032">
        <ele>316.06002807617</ele>
        <time>2020-01-16T11:05:49 0100</time>
      </trkpt>
      <trkpt lat="47.24982" lon="4.97031">
        <ele>316.52529907227</ele>
        <time>2020-01-16T11:05:53 0100</time>
      </trkpt>
      <trkpt lat="47.24978" lon="4.97032">
        <ele>316.86679077148</ele>
        <time>2020-01-16T11:05:57 0100</time>
      </trkpt>
      <trkpt lat="47.24974" lon="4.97032">
        <ele>316.97299194336</ele>
        <time>2020-01-16T11:06:01 0100</time>
      </trkpt>
      <trkpt lat="47.24969" lon="4.97032">
        <ele>316.99551391602</ele>
        <time>2020-01-16T11:06:05 0100</time>
      </trkpt>
      <trkpt lat="47.24966" lon="4.97032">
        <ele>316.95993041992</ele>
        <time>2020-01-16T11:06:09 0100</time>
      </trkpt>
      <trkpt lat="47.24961" lon="4.97031">
        <ele>316.88375854492</ele>
        <time>2020-01-16T11:06:13 0100</time>
      </trkpt>
      <trkpt lat="47.24957" lon="4.97029">
        <ele>316.8102722168</ele>
        <time>2020-01-16T11:06:17 0100</time>
      </trkpt>
      <trkpt lat="47.24953" lon="4.97028">
        <ele>316.74133300781</ele>
        <time>2020-01-16T11:06:21 0100</time>
      </trkpt>
      <trkpt lat="47.24947" lon="4.97025">
        <ele>316.6474609375</ele>
        <time>2020-01-16T11:06:25 0100</time>
      </trkpt>
      <trkpt lat="47.24941" lon="4.97025">
        <ele>316.48580932617</ele>
        <time>2020-01-16T11:06:29 0100</time>
      </trkpt>
      <trkpt lat="47.24936" lon="4.97023">
        <ele>316.22845458984</ele>
        <time>2020-01-16T11:06:33 0100</time>
      </trkpt>
      <trkpt lat="47.24932" lon="4.97021">
        <ele>315.97137451172</ele>
        <time>2020-01-16T11:06:37 0100</time>
      </trkpt>
      <trkpt lat="47.24928" lon="4.97019">
        <ele>315.77694702148</ele>
        <time>2020-01-16T11:06:41 0100</time>
      </trkpt>
      <trkpt lat="47.24923" lon="4.97017">
        <ele>315.65646362305</ele>
        <time>2020-01-16T11:06:45 0100</time>
      </trkpt>
      <trkpt lat="47.24919" lon="4.97015">
        <ele>315.61090087891</ele>
        <time>2020-01-16T11:06:49 0100</time>
      </trkpt>
      <trkpt lat="47.24915" lon="4.97014">
        <ele>315.55590820312</ele>
        <time>2020-01-16T11:06:53 0100</time>
      </trkpt>
      <trkpt lat="47.24911" lon="4.97011">
        <ele>315.51782226562</ele>
        <time>2020-01-16T11:06:57 0100</time>
      </trkpt>
      <trkpt lat="47.24907" lon="4.9701">
        <ele>315.53515625</ele>
        <time>2020-01-16T11:07:01 0100</time>
      </trkpt>
      <trkpt lat="47.24903" lon="4.97008">
        <ele>315.63192749023</ele>
        <time>2020-01-16T11:07:05 0100</time>
      </trkpt>
      <trkpt lat="47.24898" lon="4.97006">
        <ele>315.71423339844</ele>
        <time>2020-01-16T11:07:09 0100</time>
      </trkpt>
      <trkpt lat="47.24894" lon="4.97004">
        <ele>315.83575439453</ele>
        <time>2020-01-16T11:07:13 0100</time>
      </trkpt>
      <trkpt lat="47.2489" lon="4.97002">
        <ele>315.96484375</ele>
        <time>2020-01-16T11:07:17 0100</time>
      </trkpt>
      <trkpt lat="47.24886" lon="4.97">
        <ele>316.12283325195</ele>
        <time>2020-01-16T11:07:21 0100</time>
      </trkpt>
      <trkpt lat="47.24882" lon="4.96999">
        <ele>316.29135131836</ele>
        <time>2020-01-16T11:07:25 0100</time>
      </trkpt>
      <trkpt lat="47.24877" lon="4.96997">
        <ele>316.46832275391</ele>
        <time>2020-01-16T11:07:29 0100</time>
      </trkpt>
      <trkpt lat="47.24872" lon="4.96994">
        <ele>316.64590454102</ele>
        <time>2020-01-16T11:07:33 0100</time>
      </trkpt>
      <trkpt lat="47.24867" lon="4.96991">
        <ele>316.7978515625</ele>
        <time>2020-01-16T11:07:37 0100</time>
      </trkpt>
      <trkpt lat="47.24864" lon="4.96989">
        <ele>316.97415161133</ele>
        <time>2020-01-16T11:07:41 0100</time>
      </trkpt>
      <trkpt lat="47.2486" lon="4.96986">
        <ele>317.19668579102</ele>
        <time>2020-01-16T11:07:45 0100</time>
      </trkpt>
      <trkpt lat="47.24854" lon="4.96982">
        <ele>317.37493896484</ele>
        <time>2020-01-16T11:07:49 0100</time>
      </trkpt>
      <trkpt lat="47.24849" lon="4.96978">
        <ele>317.369140625</ele>
        <time>2020-01-16T11:07:53 0100</time>
      </trkpt>
      <trkpt lat="47.24846" lon="4.96975">
        <ele>317.33795166016</ele>
        <time>2020-01-16T11:07:57 0100</time>
      </trkpt>
      <trkpt lat="47.24842" lon="4.96973">
        <ele>317.33630371094</ele>
        <time>2020-01-16T11:08:01 0100</time>
      </trkpt>
      <trkpt lat="47.24838" lon="4.96971">
        <ele>317.31686401367</ele>
        <time>2020-01-16T11:08:05 0100</time>
      </trkpt>
      <trkpt lat="47.24834" lon="4.96967">
        <ele>317.21606445312</ele>
        <time>2020-01-16T11:08:09 0100</time>
      </trkpt>
      <trkpt lat="47.2483" lon="4.96965">
        <ele>317.12521362305</ele>
        <time>2020-01-16T11:08:13 0100</time>
      </trkpt>
      <trkpt lat="47.24825" lon="4.96962">
        <ele>317.01467895508</ele>
        <time>2020-01-16T11:08:17 0100</time>
      </trkpt>
      <trkpt lat="47.24821" lon="4.96961">
        <ele>316.80807495117</ele>
        <time>2020-01-16T11:08:21 0100</time>
      </trkpt>
      <trkpt lat="47.24818" lon="4.96959">
        <ele>316.67086791992</ele>
        <time>2020-01-16T11:08:25 0100</time>
      </trkpt>
      <trkpt lat="47.24813" lon="4.96957">
        <ele>316.60070800781</ele>
        <time>2020-01-16T11:08:29 0100</time>
      </trkpt>
      <trkpt lat="47.24809" lon="4.96956">
        <ele>316.62414550781</ele>
        <time>2020-01-16T11:08:33 0100</time>
      </trkpt>
      <trkpt lat="47.24804" lon="4.96954">
        <ele>316.63223266602</ele>
        <time>2020-01-16T11:08:37 0100</time>
      </trkpt>
      <trkpt lat="47.24799" lon="4.96952">
        <ele>316.66357421875</ele>
        <time>2020-01-16T11:08:41 0100</time>
      </trkpt>
      <trkpt lat="47.24793" lon="4.96949">
        <ele>316.59066772461</ele>
        <time>2020-01-16T11:08:45 0100</time>
      </trkpt>
      <trkpt lat="47.24789" lon="4.96946">
        <ele>316.34140014648</ele>
        <time>2020-01-16T11:08:49 0100</time>
      </trkpt>
      <trkpt lat="47.24785" lon="4.96944">
        <ele>316.03121948242</ele>
        <time>2020-01-16T11:08:53 0100</time>
      </trkpt>
      <trkpt lat="47.24781" lon="4.96941">
        <ele>315.70120239258</ele>
        <time>2020-01-16T11:08:57 0100</time>
      </trkpt>
      <trkpt lat="47.24778" lon="4.9694">
        <ele>315.42303466797</ele>
        <time>2020-01-16T11:09:01 0100</time>
      </trkpt>
      <trkpt lat="47.24775" lon="4.96939">
        <ele>315.20321655273</ele>
        <time>2020-01-16T11:09:05 0100</time>
      </trkpt>
      <trkpt lat="47.24771" lon="4.96937">
        <ele>314.94116210938</ele>
        <time>2020-01-16T11:09:09 0100</time>
      </trkpt>
      <trkpt lat="47.24767" lon="4.96935">
        <ele>314.70135498047</ele>
        <time>2020-01-16T11:09:13 0100</time>
      </trkpt>
      <trkpt lat="47.24762" lon="4.96932">
        <ele>314.45910644531</ele>
        <time>2020-01-16T11:09:17 0100</time>
      </trkpt>
      <trkpt lat="47.24757" lon="4.96931">
        <ele>314.24670410156</ele>
        <time>2020-01-16T11:09:21 0100</time>
      </trkpt>
      <trkpt lat="47.24753" lon="4.96928">
        <ele>314.03317260742</ele>
        <time>2020-01-16T11:09:25 0100</time>
      </trkpt>
      <trkpt lat="47.24748" lon="4.96927">
        <ele>313.83267211914</ele>
        <time>2020-01-16T11:09:29 0100</time>
      </trkpt>
      <trkpt lat="47.24743" lon="4.96924">
        <ele>313.61770629883</ele>
        <time>2020-01-16T11:09:33 0100</time>
      </trkpt>
      <trkpt lat="47.24738" lon="4.9692">
        <ele>313.39916992188</ele>
        <time>2020-01-16T11:09:37 0100</time>
      </trkpt>
      <trkpt lat="47.24733" lon="4.96917">
        <ele>313.16567993164</ele>
        <time>2020-01-16T11:09:41 0100</time>
      </trkpt>
      <trkpt lat="47.24729" lon="4.96913">
        <ele>312.9367980957</ele>
        <time>2020-01-16T11:09:45 0100</time>
      </trkpt>
      <trkpt lat="47.24725" lon="4.96908">
        <ele>312.66815185547</ele>
        <time>2020-01-16T11:09:49 0100</time>
      </trkpt>
      <trkpt lat="47.24722" lon="4.96905">
        <ele>312.4723815918</ele>
        <time>2020-01-16T11:09:53 0100</time>
      </trkpt>
      <trkpt lat="47.24718" lon="4.969">
        <ele>312.26538085938</ele>
        <time>2020-01-16T11:09:57 0100</time>
      </trkpt>
      <trkpt lat="47.24714" lon="4.96897">
        <ele>312.12893676758</ele>
        <time>2020-01-16T11:10:01 0100</time>
      </trkpt>
      <trkpt lat="47.2471" lon="4.96893">
        <ele>312.00665283203</ele>
        <time>2020-01-16T11:10:05 0100</time>
      </trkpt>
      <trkpt lat="47.24707" lon="4.96889">
        <ele>311.9621887207</ele>
        <time>2020-01-16T11:10:09 0100</time>
      </trkpt>
      <trkpt lat="47.24703" lon="4.96885">
        <ele>311.95562744141</ele>
        <time>2020-01-16T11:10:13 0100</time>
      </trkpt>
      <trkpt lat="47.247" lon="4.96882">
        <ele>311.89962768555</ele>
        <time>2020-01-16T11:10:17 0100</time>
      </trkpt>
      <trkpt lat="47.24697" lon="4.96879">
        <ele>311.8254699707</ele>
        <time>2020-01-16T11:10:21 0100</time>
      </trkpt>
      <trkpt lat="47.24694" lon="4.96875">
        <ele>311.76718139648</ele>
        <time>2020-01-16T11:10:25 0100</time>
      </trkpt>
      <trkpt lat="47.24689" lon="4.96872">
        <ele>311.71383666992</ele>
        <time>2020-01-16T11:10:29 0100</time>
      </trkpt>
      <trkpt lat="47.24686" lon="4.96871">
        <ele>311.70037841797</ele>
        <time>2020-01-16T11:10:33 0100</time>
      </trkpt>
      <trkpt lat="47.24682" lon="4.96869">
        <ele>311.70162963867</ele>
        <time>2020-01-16T11:10:37 0100</time>
      </trkpt>
      <trkpt lat="47.24679" lon="4.96868">
        <ele>311.72576904297</ele>
        <time>2020-01-16T11:10:41 0100</time>
      </trkpt>
      <trkpt lat="47.24675" lon="4.96867">
        <ele>311.8225402832</ele>
        <time>2020-01-16T11:10:45 0100</time>
      </trkpt>
      <trkpt lat="47.24671" lon="4.96868">
        <ele>311.95031738281</ele>
        <time>2020-01-16T11:10:49 0100</time>
      </trkpt>
      <trkpt lat="47.24667" lon="4.96868">
        <ele>312.16082763672</ele>
        <time>2020-01-16T11:10:53 0100</time>
      </trkpt>
      <trkpt lat="47.24663" lon="4.96868">
        <ele>312.3913269043</ele>
        <time>2020-01-16T11:10:57 0100</time>
      </trkpt>
      <trkpt lat="47.24659" lon="4.9687">
        <ele>312.67501831055</ele>
        <time>2020-01-16T11:11:01 0100</time>
      </trkpt>
      <trkpt lat="47.24655" lon="4.96873">
        <ele>313.05490112305</ele>
        <time>2020-01-16T11:11:05 0100</time>
      </trkpt>
      <trkpt lat="47.24652" lon="4.96874">
        <ele>313.41674804688</ele>
        <time>2020-01-16T11:11:09 0100</time>
      </trkpt>
      <trkpt lat="47.24647" lon="4.96877">
        <ele>313.74569702148</ele>
        <time>2020-01-16T11:11:13 0100</time>
      </trkpt>
      <trkpt lat="47.24643" lon="4.96877">
        <ele>314.18405151367</ele>
        <time>2020-01-16T11:11:17 0100</time>
      </trkpt>
      <trkpt lat="47.24639" lon="4.96878">
        <ele>314.64697265625</ele>
        <time>2020-01-16T11:11:21 0100</time>
      </trkpt>
      <trkpt lat="47.24634" lon="4.9688">
        <ele>314.91748046875</ele>
        <time>2020-01-16T11:11:25 0100</time>
      </trkpt>
      <trkpt lat="47.24629" lon="4.96881">
        <ele>315.16741943359</ele>
        <time>2020-01-16T11:11:29 0100</time>
      </trkpt>
      <trkpt lat="47.24625" lon="4.96883">
        <ele>315.3916015625</ele>
        <time>2020-01-16T11:11:33 0100</time>
      </trkpt>
      <trkpt lat="47.24621" lon="4.96885">
        <ele>315.58053588867</ele>
        <time>2020-01-16T11:11:37 0100</time>
      </trkpt>
      <trkpt lat="47.2462" lon="4.96887">
        <ele>315.70526123047</ele>
        <time>2020-01-16T11:11:41 0100</time>
      </trkpt>
      <trkpt lat="47.24617" lon="4.9689">
        <ele>315.77014160156</ele>
        <time>2020-01-16T11:11:45 0100</time>
      </trkpt>
      <trkpt lat="47.24615" lon="4.96895">
        <ele>315.75988769531</ele>
        <time>2020-01-16T11:11:49 0100</time>
      </trkpt>
      <trkpt lat="47.24613" lon="4.96902">
        <ele>315.70538330078</ele>
        <time>2020-01-16T11:11:53 0100</time>
      </trkpt>
      <trkpt lat="47.24611" lon="4.96907">
        <ele>315.67483520508</ele>
        <time>2020-01-16T11:11:57 0100</time>
      </trkpt>
      <trkpt lat="47.2461" lon="4.96912">
        <ele>315.6943359375</ele>
        <time>2020-01-16T11:12:01 0100</time>
      </trkpt>
      <trkpt lat="47.24608" lon="4.96916">
        <ele>315.78469848633</ele>
        <time>2020-01-16T11:12:05 0100</time>
      </trkpt>
      <trkpt lat="47.24607" lon="4.96921">
        <ele>316.01168823242</ele>
        <time>2020-01-16T11:12:09 0100</time>
      </trkpt>
      <trkpt lat="47.24606" lon="4.96925">
        <ele>316.36895751953</ele>
        <time>2020-01-16T11:12:13 0100</time>
      </trkpt>
      <trkpt lat="47.24605" lon="4.96931">
        <ele>316.72131347656</ele>
        <time>2020-01-16T11:12:17 0100</time>
      </trkpt>
      <trkpt lat="47.24604" lon="4.96938">
        <ele>316.98873901367</ele>
        <time>2020-01-16T11:12:21 0100</time>
      </trkpt>
      <trkpt lat="47.24602" lon="4.96945">
        <ele>317.43139648438</ele>
        <time>2020-01-16T11:12:25 0100</time>
      </trkpt>
      <trkpt lat="47.24599" lon="4.96951">
        <ele>317.82080078125</ele>
        <time>2020-01-16T11:12:29 0100</time>
      </trkpt>
      <trkpt lat="47.24597" lon="4.96954">
        <ele>318.2991027832</ele>
        <time>2020-01-16T11:12:33 0100</time>
      </trkpt>
      <trkpt lat="47.24594" lon="4.96962">
        <ele>318.69152832031</ele>
        <time>2020-01-16T11:12:37 0100</time>
      </trkpt>
      <trkpt lat="47.24593" lon="4.96968">
        <ele>318.79666137695</ele>
        <time>2020-01-16T11:12:41 0100</time>
      </trkpt>
      <trkpt lat="47.24591" lon="4.9697">
        <ele>318.8671875</ele>
        <time>2020-01-16T11:12:45 0100</time>
      </trkpt>
      <trkpt lat="47.24588" lon="4.96974">
        <ele>319.08721923828</ele>
        <time>2020-01-16T11:12:49 0100</time>
      </trkpt>
      <trkpt lat="47.24586" lon="4.96978">
        <ele>319.16284179688</ele>
        <time>2020-01-16T11:12:53 0100</time>
      </trkpt>
      <trkpt lat="47.24583" lon="4.96983">
        <ele>319.07159423828</ele>
        <time>2020-01-16T11:12:57 0100</time>
      </trkpt>
      <trkpt lat="47.24581" lon="4.96987">
        <ele>318.88491821289</ele>
        <time>2020-01-16T11:13:01 0100</time>
      </trkpt>
      <trkpt lat="47.24579" lon="4.96989">
        <ele>318.87274169922</ele>
        <time>2020-01-16T11:13:05 0100</time>
      </trkpt>
      <trkpt lat="47.24576" lon="4.96994">
        <ele>319.02764892578</ele>
        <time>2020-01-16T11:13:09 0100</time>
      </trkpt>
      <trkpt lat="47.24573" lon="4.96999">
        <ele>318.77920532227</ele>
        <time>2020-01-16T11:13:13 0100</time>
      </trkpt>
      <trkpt lat="47.2457" lon="4.96997">
        <ele>318.14266967773</ele>
        <time>2020-01-16T11:13:17 0100</time>
      </trkpt>
      <trkpt lat="47.24567" lon="4.96995">
        <ele>317.14709472656</ele>
        <time>2020-01-16T11:13:21 0100</time>
      </trkpt>
      <trkpt lat="47.24562" lon="4.96993">
        <ele>316.44372558594</ele>
        <time>2020-01-16T11:13:25 0100</time>
      </trkpt>
      <trkpt lat="47.24553" lon="4.9699">
        <ele>315.77227783203</ele>
        <time>2020-01-16T11:13:29 0100</time>
      </trkpt>
      <trkpt lat="47.24547" lon="4.96991">
        <ele>314.708984375</ele>
        <time>2020-01-16T11:13:33 0100</time>
      </trkpt>
      <trkpt lat="47.24543" lon="4.9699">
        <ele>313.90277099609</ele>
        <time>2020-01-16T11:13:37 0100</time>
      </trkpt>
      <trkpt lat="47.24538" lon="4.96989">
        <ele>313.19515991211</ele>
        <time>2020-01-16T11:13:41 0100</time>
      </trkpt>
      <trkpt lat="47.24534" lon="4.96988">
        <ele>312.6116027832</ele>
        <time>2020-01-16T11:13:45 0100</time>
      </trkpt>
      <trkpt lat="47.2453" lon="4.96986">
        <ele>312.13143920898</ele>
        <time>2020-01-16T11:13:49 0100</time>
      </trkpt>
      <trkpt lat="47.24527" lon="4.96986">
        <ele>311.76556396484</ele>
        <time>2020-01-16T11:13:53 0100</time>
      </trkpt>
      <trkpt lat="47.24522" lon="4.96984">
        <ele>311.44570922852</ele>
        <time>2020-01-16T11:13:57 0100</time>
      </trkpt>
      <trkpt lat="47.2452" lon="4.96982">
        <ele>311.16986083984</ele>
        <time>2020-01-16T11:14:01 0100</time>
      </trkpt>
      <trkpt lat="47.24516" lon="4.9698">
        <ele>310.95745849609</ele>
        <time>2020-01-16T11:14:05 0100</time>
      </trkpt>
      <trkpt lat="47.24512" lon="4.96978">
        <ele>310.79977416992</ele>
        <time>2020-01-16T11:14:09 0100</time>
      </trkpt>
      <trkpt lat="47.24508" lon="4.96975">
        <ele>310.6904296875</ele>
        <time>2020-01-16T11:14:13 0100</time>
      </trkpt>
      <trkpt lat="47.24505" lon="4.96972">
        <ele>310.55541992188</ele>
        <time>2020-01-16T11:14:17 0100</time>
      </trkpt>
      <trkpt lat="47.24505" lon="4.96972">
        <ele>310.54376220703</ele>
        <time>2020-01-16T11:14:21 0100</time>
      </trkpt>
      <trkpt lat="47.24504" lon="4.96971">
        <ele>310.48849487305</ele>
        <time>2020-01-16T11:14:25 0100</time>
      </trkpt>
      <trkpt lat="47.24502" lon="4.96969">
        <ele>310.38464355469</ele>
        <time>2020-01-16T11:14:29 0100</time>
      </trkpt>
      <trkpt lat="47.24502" lon="4.96969">
        <ele>310.27816772461</ele>
        <time>2020-01-16T11:14:33 0100</time>
      </trkpt>
      <trkpt lat="47.245" lon="4.96968">
        <ele>310.20593261719</ele>
        <time>2020-01-16T11:14:37 0100</time>
      </trkpt>
      <trkpt lat="47.24495" lon="4.96967">
        <ele>310.13491821289</ele>
        <time>2020-01-16T11:14:41 0100</time>
      </trkpt>
      <trkpt lat="47.24491" lon="4.96967">
        <ele>310.05648803711</ele>
        <time>2020-01-16T11:14:45 0100</time>
      </trkpt>
      <trkpt lat="47.24486" lon="4.96967">
        <ele>309.91107177734</ele>
        <time>2020-01-16T11:14:49 0100</time>
      </trkpt>
      <trkpt lat="47.24483" lon="4.96967">
        <ele>309.7209777832</ele>
        <time>2020-01-16T11:14:53 0100</time>
      </trkpt>
      <trkpt lat="47.24478" lon="4.96967">
        <ele>309.50527954102</ele>
        <time>2020-01-16T11:14:57 0100</time>
      </trkpt>
      <trkpt lat="47.24473" lon="4.96969">
        <ele>309.2614440918</ele>
        <time>2020-01-16T11:15:01 0100</time>
      </trkpt>
      <trkpt lat="47.24469" lon="4.96966">
        <ele>309.03411865234</ele>
        <time>2020-01-16T11:15:05 0100</time>
      </trkpt>
      <trkpt lat="47.24466" lon="4.96965">
        <ele>309.21716308594</ele>
        <time>2020-01-16T11:15:09 0100</time>
      </trkpt>
      <trkpt lat="47.2446" lon="4.96968">
        <ele>308.99371337891</ele>
        <time>2020-01-16T11:15:13 0100</time>
      </trkpt>
      <trkpt lat="47.24457" lon="4.96966">
        <ele>308.49740600586</ele>
        <time>2020-01-16T11:15:17 0100</time>
      </trkpt>
      <trkpt lat="47.24455" lon="4.9696">
        <ele>307.84075927734</ele>
        <time>2020-01-16T11:15:21 0100</time>
      </trkpt>
      <trkpt lat="47.24456" lon="4.96954">
        <ele>307.16162109375</ele>
        <time>2020-01-16T11:15:25 0100</time>
      </trkpt>
      <trkpt lat="47.24455" lon="4.96953">
        <ele>306.67266845703</ele>
        <time>2020-01-16T11:15:29 0100</time>
      </trkpt>
      <trkpt lat="47.24455" lon="4.96953">
        <ele>306.61309814453</ele>
        <time>2020-01-16T11:15:33 0100</time>
      </trkpt>
      <trkpt lat="47.24456" lon="4.96953">
        <ele>306.57241821289</ele>
        <time>2020-01-16T11:15:37 0100</time>
      </trkpt>
      <trkpt lat="47.24456" lon="4.96954">
        <ele>306.54541015625</ele>
        <time>2020-01-16T11:15:40 0100</time>
      </trkpt>
      <trkpt lat="47.24456" lon="4.96954">
        <ele>306.50637817383</ele>
        <time>2020-01-16T11:15:44 0100</time>
      </trkpt>
      <trkpt lat="47.24456" lon="4.96955">
        <ele>306.49975585938</ele>
        <time>2020-01-16T11:15:48 0100</time>
      </trkpt>
      <trkpt lat="47.24455" lon="4.96954">
        <ele>306.37619018555</ele>
        <time>2020-01-16T11:15:52 0100</time>
      </trkpt>
      <trkpt lat="47.24454" lon="4.96953">
        <ele>306.26419067383</ele>
        <time>2020-01-16T11:15:56 0100</time>
      </trkpt>
      <trkpt lat="47.24454" lon="4.96953">
        <ele>306.22378540039</ele>
        <time>2020-01-16T11:16:00 0100</time>
      </trkpt>
      <trkpt lat="47.24454" lon="4.96953">
        <ele>306.1813659668</ele>
        <time>2020-01-16T11:16:04 0100</time>
      </trkpt>
      <trkpt lat="47.24454" lon="4.96953">
        <ele>306.03768920898</ele>
        <time>2020-01-16T11:16:08 0100</time>
      </trkpt>
      <trkpt lat="47.24454" lon="4.96954">
        <ele>305.99389648438</ele>
        <time>2020-01-16T11:16:12 0100</time>
      </trkpt>
      <trkpt lat="47.24454" lon="4.96954">
        <ele>305.94799804688</ele>
        <time>2020-01-16T11:16:16 0100</time>
      </trkpt>
      <trkpt lat="47.24454" lon="4.96953">
        <ele>305.9075012207</ele>
        <time>2020-01-16T11:16:20 0100</time>
      </trkpt>
      <trkpt lat="47.24454" lon="4.96953">
        <ele>305.87783813477</ele>
        <time>2020-01-16T11:16:24 0100</time>
      </trkpt>
      <trkpt lat="47.24455" lon="4.96952">
        <ele>305.8249206543</ele>
        <time>2020-01-16T11:16:28 0100</time>
      </trkpt>
      <trkpt lat="47.24454" lon="4.96946">
        <ele>305.66806030273</ele>
        <time>2020-01-16T11:16:32 0100</time>
      </trkpt>
      <trkpt lat="47.24451" lon="4.96943">
        <ele>305.46755981445</ele>
        <time>2020-01-16T11:16:36 0100</time>
      </trkpt>
      <trkpt lat="47.24447" lon="4.96939">
        <ele>305.00985717773</ele>
        <time>2020-01-16T11:16:40 0100</time>
      </trkpt>
      <trkpt lat="47.24442" lon="4.96937">
        <ele>304.50067138672</ele>
        <time>2020-01-16T11:16:44 0100</time>
      </trkpt>
      <trkpt lat="47.24438" lon="4.96935">
        <ele>304.07650756836</ele>
        <time>2020-01-16T11:16:48 0100</time>
      </trkpt>
      <trkpt lat="47.24442" lon="4.96939">
        <ele>304.083984375</ele>
        <time>2020-01-16T11:16:52 0100</time>
      </trkpt>
      <trkpt lat="47.24442" lon="4.96939">
        <ele>304.08068847656</ele>
        <time>2020-01-16T11:16:56 0100</time>
      </trkpt>
      <trkpt lat="47.24442" lon="4.96939">
        <ele>304.07214355469</ele>
        <time>2020-01-16T11:17:00 0100</time>
      </trkpt>
      <trkpt lat="47.24442" lon="4.96938">
        <ele>304.05444335938</ele>
        <time>2020-01-16T11:17:04 0100</time>
      </trkpt>
      <trkpt lat="47.24439" lon="4.96937">
        <ele>303.94253540039</ele>
        <time>2020-01-16T11:17:08 0100</time>
      </trkpt>
      <trkpt lat="47.24437" lon="4.96937">
        <ele>303.90280151367</ele>
        <time>2020-01-16T11:17:12 0100</time>
      </trkpt>
      <trkpt lat="47.24434" lon="4.96937">
        <ele>303.97915649414</ele>
        <time>2020-01-16T11:17:16 0100</time>
      </trkpt>
      <trkpt lat="47.24432" lon="4.96936">
        <ele>303.96853637695</ele>
        <time>2020-01-16T11:17:20 0100</time>
      </trkpt>
      <trkpt lat="47.24432" lon="4.96936">
        <ele>303.94879150391</ele>
        <time>2020-01-16T11:17:24 0100</time>
      </trkpt>
      <trkpt lat="47.24432" lon="4.96936">
        <ele>303.93246459961</ele>
        <time>2020-01-16T11:17:28 0100</time>
      </trkpt>
      <trkpt lat="47.24432" lon="4.96936">
        <ele>303.92324829102</ele>
        <time>2020-01-16T11:17:32 0100</time>
      </trkpt>
      <trkpt lat="47.24432" lon="4.96936">
        <ele>303.9235534668</ele>
        <time>2020-01-16T11:17:36 0100</time>
      </trkpt>
      <trkpt lat="47.24432" lon="4.96936">
        <ele>303.92730712891</ele>
        <time>2020-01-16T11:17:40 0100</time>
      </trkpt>
      <trkpt lat="47.24432" lon="4.96935">
        <ele>303.94616699219</ele>
        <time>2020-01-16T11:17:44 0100</time>
      </trkpt>
      <trkpt lat="47.24431" lon="4.96934">
        <ele>303.97485351562</ele>
        <time>2020-01-16T11:17:48 0100</time>
      </trkpt>
      <trkpt lat="47.24429" lon="4.96935">
        <ele>304.08340454102</ele>
        <time>2020-01-16T11:17:52 0100</time>
      </trkpt>
      <trkpt lat="47.24428" lon="4.96936">
        <ele>304.08410644531</ele>
        <time>2020-01-16T11:17:56 0100</time>
      </trkpt>
      <trkpt lat="47.24424" lon="4.96936">
        <ele>304.08041381836</ele>
        <time>2020-01-16T11:18:00 0100</time>
      </trkpt>
      <trkpt lat="47.24421" lon="4.96937">
        <ele>304.00189208984</ele>
        <time>2020-01-16T11:18:04 0100</time>
      </trkpt>
      <trkpt lat="47.24417" lon="4.96938">
        <ele>303.91235351562</ele>
        <time>2020-01-16T11:18:08 0100</time>
      </trkpt>
      <trkpt lat="47.24412" lon="4.9694">
        <ele>303.90301513672</ele>
        <time>2020-01-16T11:18:12 0100</time>
      </trkpt>
      <trkpt lat="47.2441" lon="4.9694">
        <ele>303.91656494141</ele>
        <time>2020-01-16T11:18:16 0100</time>
      </trkpt>
      <trkpt lat="47.2441" lon="4.9694">
        <ele>303.90158081055</ele>
        <time>2020-01-16T11:18:20 0100</time>
      </trkpt>
      <trkpt lat="47.2441" lon="4.96939">
        <ele>303.87777709961</ele>
        <time>2020-01-16T11:18:24 0100</time>
      </trkpt>
      <trkpt lat="47.2441" lon="4.96939">
        <ele>303.86169433594</ele>
        <time>2020-01-16T11:18:28 0100</time>
      </trkpt>
      <trkpt lat="47.2441" lon="4.96939">
        <ele>303.73156738281</ele>
        <time>2020-01-16T11:18:32 0100</time>
      </trkpt>
      <trkpt lat="47.24409" lon="4.9694">
        <ele>303.53356933594</ele>
        <time>2020-01-16T11:18:36 0100</time>
      </trkpt>
      <trkpt lat="47.24408" lon="4.9694">
        <ele>303.46255493164</ele>
        <time>2020-01-16T11:18:40 0100</time>
      </trkpt>
      <trkpt lat="47.24408" lon="4.9694">
        <ele>303.44857788086</ele>
        <time>2020-01-16T11:18:44 0100</time>
      </trkpt>
      <trkpt lat="47.24408" lon="4.9694">
        <ele>303.42541503906</ele>
        <time>2020-01-16T11:18:48 0100</time>
      </trkpt>
      <trkpt lat="47.24408" lon="4.9694">
        <ele>303.41006469727</ele>
        <time>2020-01-16T11:18:52 0100</time>
      </trkpt>
      <trkpt lat="47.24408" lon="4.9694">
        <ele>303.38705444336</ele>
        <time>2020-01-16T11:18:56 0100</time>
      </trkpt>
      <trkpt lat="47.24408" lon="4.9694">
        <ele>303.29949951172</ele>
        <time>2020-01-16T11:19:00 0100</time>
      </trkpt>
      <trkpt lat="47.24407" lon="4.9694">
        <ele>303.28411865234</ele>
        <time>2020-01-16T11:19:04 0100</time>
      </trkpt>
      <trkpt lat="47.24405" lon="4.96941">
        <ele>303.21005249023</ele>
        <time>2020-01-16T11:19:08 0100</time>
      </trkpt>
      <trkpt lat="47.24404" lon="4.96942">
        <ele>303.18746948242</ele>
        <time>2020-01-16T11:19:12 0100</time>
      </trkpt>
      <trkpt lat="47.24404" lon="4.96942">
        <ele>303.18243408203</ele>
        <time>2020-01-16T11:19:16 0100</time>
      </trkpt>
      <trkpt lat="47.24405" lon="4.96942">
        <ele>303.17526245117</ele>
        <time>2020-01-16T11:19:20 0100</time>
      </trkpt>
      <trkpt lat="47.24406" lon="4.96942">
        <ele>303.1667175293</ele>
        <time>2020-01-16T11:19:24 0100</time>
      </trkpt>
      <trkpt lat="47.24406" lon="4.96942">
        <ele>303.15194702148</ele>
        <time>2020-01-16T11:19:28 0100</time>
      </trkpt>
      <trkpt lat="47.24405" lon="4.96942">
        <ele>302.93228149414</ele>
        <time>2020-01-16T11:19:32 0100</time>
      </trkpt>
      <trkpt lat="47.24402" lon="4.96943">
        <ele>302.64953613281</ele>
        <time>2020-01-16T11:19:36 0100</time>
      </trkpt>
      <trkpt lat="47.24398" lon="4.96945">
        <ele>302.41918945312</ele>
        <time>2020-01-16T11:19:40 0100</time>
      </trkpt>
      <trkpt lat="47.24395" lon="4.96948">
        <ele>302.34954833984</ele>
        <time>2020-01-16T11:19:44 0100</time>
      </trkpt>
      <trkpt lat="47.24392" lon="4.9695">
        <ele>302.25</ele>
        <time>2020-01-16T11:19:48 0100</time>
      </trkpt>
      <trkpt lat="47.24389" lon="4.96952">
        <ele>302.14178466797</ele>
        <time>2020-01-16T11:19:52 0100</time>
      </trkpt>
      <trkpt lat="47.24388" lon="4.96952">
        <ele>302.11553955078</ele>
        <time>2020-01-16T11:19:56 0100</time>
      </trkpt>
      <trkpt lat="47.24387" lon="4.96953">
        <ele>302.11080932617</ele>
        <time>2020-01-16T11:20:00 0100</time>
      </trkpt>
      <trkpt lat="47.24387" lon="4.96953">
        <ele>302.12976074219</ele>
        <time>2020-01-16T11:20:04 0100</time>
      </trkpt>
      <trkpt lat="47.24386" lon="4.96955">
        <ele>302.23648071289</ele>
        <time>2020-01-16T11:20:08 0100</time>
      </trkpt>
      <trkpt lat="47.24383" lon="4.96958">
        <ele>302.42868041992</ele>
        <time>2020-01-16T11:20:12 0100</time>
      </trkpt>
      <trkpt lat="47.2438" lon="4.96961">
        <ele>302.58096313477</ele>
        <time>2020-01-16T11:20:16 0100</time>
      </trkpt>
      <trkpt lat="47.24377" lon="4.96965">
        <ele>302.80783081055</ele>
        <time>2020-01-16T11:20:20 0100</time>
      </trkpt>
      <trkpt lat="47.24374" lon="4.96968">
        <ele>303.05825805664</ele>
        <time>2020-01-16T11:20:24 0100</time>
      </trkpt>
      <trkpt lat="47.24371" lon="4.96972">
        <ele>303.30606079102</ele>
        <time>2020-01-16T11:20:28 0100</time>
      </trkpt>
      <trkpt lat="47.2437" lon="4.96973">
        <ele>303.49014282227</ele>
        <time>2020-01-16T11:20:32 0100</time>
      </trkpt>
      <trkpt lat="47.24367" lon="4.96976">
        <ele>303.47589111328</ele>
        <time>2020-01-16T11:20:36 0100</time>
      </trkpt>
      <trkpt lat="47.24364" lon="4.96979">
        <ele>303.50564575195</ele>
        <time>2020-01-16T11:20:40 0100</time>
      </trkpt>
      <trkpt lat="47.2436" lon="4.96983">
        <ele>303.6423034668</ele>
        <time>2020-01-16T11:20:44 0100</time>
      </trkpt>
      <trkpt lat="47.24356" lon="4.96984">
        <ele>303.8171081543</ele>
        <time>2020-01-16T11:20:48 0100</time>
      </trkpt>
      <trkpt lat="47.2435" lon="4.96987">
        <ele>304.08602905273</ele>
        <time>2020-01-16T11:20:52 0100</time>
      </trkpt>
      <trkpt lat="47.24346" lon="4.96989">
        <ele>304.39147949219</ele>
        <time>2020-01-16T11:20:56 0100</time>
      </trkpt>
      <trkpt lat="47.24342" lon="4.9699">
        <ele>304.62713623047</ele>
        <time>2020-01-16T11:21:00 0100</time>
      </trkpt>
      <trkpt lat="47.24338" lon="4.96992">
        <ele>304.83190917969</ele>
        <time>2020-01-16T11:21:04 0100</time>
      </trkpt>
      <trkpt lat="47.24335" lon="4.96994">
        <ele>305.01879882812</ele>
        <time>2020-01-16T11:21:08 0100</time>
      </trkpt>
      <trkpt lat="47.24332" lon="4.96995">
        <ele>305.22958374023</ele>
        <time>2020-01-16T11:21:12 0100</time>
      </trkpt>
      <trkpt lat="47.24328" lon="4.96995">
        <ele>305.43338012695</ele>
        <time>2020-01-16T11:21:16 0100</time>
      </trkpt>
      <trkpt lat="47.24324" lon="4.96994">
        <ele>305.62237548828</ele>
        <time>2020-01-16T11:21:20 0100</time>
      </trkpt>
      <trkpt lat="47.2432" lon="4.96994">
        <ele>305.79360961914</ele>
        <time>2020-01-16T11:21:24 0100</time>
      </trkpt>
      <trkpt lat="47.24316" lon="4.96993">
        <ele>305.9817199707</ele>
        <time>2020-01-16T11:21:28 0100</time>
      </trkpt>
      <trkpt lat="47.24312" lon="4.96991">
        <ele>306.16561889648</ele>
        <time>2020-01-16T11:21:32 0100</time>
      </trkpt>
      <trkpt lat="47.24309" lon="4.96989">
        <ele>306.28863525391</ele>
        <time>2020-01-16T11:21:36 0100</time>
      </trkpt>
      <trkpt lat="47.24306" lon="4.96988">
        <ele>306.22274780273</ele>
        <time>2020-01-16T11:21:40 0100</time>
      </trkpt>
      <trkpt lat="47.24302" lon="4.96986">
        <ele>306.08355712891</ele>
        <time>2020-01-16T11:21:44 0100</time>
      </trkpt>
      <trkpt lat="47.24297" lon="4.96984">
        <ele>305.96398925781</ele>
        <time>2020-01-16T11:21:48 0100</time>
      </trkpt>
      <trkpt lat="47.24293" lon="4.96983">
        <ele>305.82678222656</ele>
        <time>2020-01-16T11:21:52 0100</time>
      </trkpt>
      <trkpt lat="47.24289" lon="4.96982">
        <ele>305.75930786133</ele>
        <time>2020-01-16T11:21:56 0100</time>
      </trkpt>
      <trkpt lat="47.24284" lon="4.96982">
        <ele>305.81927490234</ele>
        <time>2020-01-16T11:22:00 0100</time>
      </trkpt>
      <trkpt lat="47.24279" lon="4.96982">
        <ele>306.01412963867</ele>
        <time>2020-01-16T11:22:04 0100</time>
      </trkpt>
      <trkpt lat="47.24275" lon="4.9698">
        <ele>306.15536499023</ele>
        <time>2020-01-16T11:22:08 0100</time>
      </trkpt>
      <trkpt lat="47.24272" lon="4.96981">
        <ele>306.130859375</ele>
        <time>2020-01-16T11:22:12 0100</time>
      </trkpt>
      <trkpt lat="47.24269" lon="4.9698">
        <ele>306.12496948242</ele>
        <time>2020-01-16T11:22:16 0100</time>
      </trkpt>
      <trkpt lat="47.24264" lon="4.9698">
        <ele>306.01693725586</ele>
        <time>2020-01-16T11:22:20 0100</time>
      </trkpt>
      <trkpt lat="47.2426" lon="4.96979">
        <ele>305.94003295898</ele>
        <time>2020-01-16T11:22:24 0100</time>
      </trkpt>
      <trkpt lat="47.24254" lon="4.96978">
        <ele>305.93460083008</ele>
        <time>2020-01-16T11:22:28 0100</time>
      </trkpt>
      <trkpt lat="47.24252" lon="4.96977">
        <ele>305.9489440918</ele>
        <time>2020-01-16T11:22:32 0100</time>
      </trkpt>
      <trkpt lat="47.24249" lon="4.96975">
        <ele>305.87435913086</ele>
        <time>2020-01-16T11:22:36 0100</time>
      </trkpt>
      <trkpt lat="47.24245" lon="4.96974">
        <ele>305.76519775391</ele>
        <time>2020-01-16T11:22:40 0100</time>
      </trkpt>
      <trkpt lat="47.24241" lon="4.96973">
        <ele>305.88421630859</ele>
        <time>2020-01-16T11:22:44 0100</time>
      </trkpt>
      <trkpt lat="47.24237" lon="4.96971">
        <ele>306.08737182617</ele>
        <time>2020-01-16T11:22:48 0100</time>
      </trkpt>
      <trkpt lat="47.24233" lon="4.96971">
        <ele>306.28994750977</ele>
        <time>2020-01-16T11:22:52 0100</time>
      </trkpt>
      <trkpt lat="47.24228" lon="4.96969">
        <ele>306.47207641602</ele>
        <time>2020-01-16T11:22:56 0100</time>
      </trkpt>
      <trkpt lat="47.24223" lon="4.96966">
        <ele>306.56332397461</ele>
        <time>2020-01-16T11:23:00 0100</time>
      </trkpt>
      <trkpt lat="47.2422" lon="4.96966">
        <ele>306.56695556641</ele>
        <time>2020-01-16T11:23:04 0100</time>
      </trkpt>
      <trkpt lat="47.24217" lon="4.96966">
        <ele>306.61047363281</ele>
        <time>2020-01-16T11:23:08 0100</time>
      </trkpt>
      <trkpt lat="47.24214" lon="4.96964">
        <ele>306.67462158203</ele>
        <time>2020-01-16T11:23:12 0100</time>
      </trkpt>
      <trkpt lat="47.24209" lon="4.96963">
        <ele>306.71899414062</ele>
        <time>2020-01-16T11:23:16 0100</time>
      </trkpt>
      <trkpt lat="47.24206" lon="4.9696">
        <ele>306.71499633789</ele>
        <time>2020-01-16T11:23:20 0100</time>
      </trkpt>
      <trkpt lat="47.24201" lon="4.96959">
        <ele>306.64294433594</ele>
        <time>2020-01-16T11:23:24 0100</time>
      </trkpt>
      <trkpt lat="47.24198" lon="4.96958">
        <ele>306.56823730469</ele>
        <time>2020-01-16T11:23:28 0100</time>
      </trkpt>
      <trkpt lat="47.24194" lon="4.96956">
        <ele>306.46499633789</ele>
        <time>2020-01-16T11:23:32 0100</time>
      </trkpt>
      <trkpt lat="47.2419" lon="4.96954">
        <ele>306.38003540039</ele>
        <time>2020-01-16T11:23:36 0100</time>
      </trkpt>
      <trkpt lat="47.24188" lon="4.96953">
        <ele>306.29898071289</ele>
        <time>2020-01-16T11:23:40 0100</time>
      </trkpt>
      <trkpt lat="47.24185" lon="4.96952">
        <ele>306.19149780273</ele>
        <time>2020-01-16T11:23:44 0100</time>
      </trkpt>
      <trkpt lat="47.24181" lon="4.9695">
        <ele>306.025390625</ele>
        <time>2020-01-16T11:23:48 0100</time>
      </trkpt>
      <trkpt lat="47.24177" lon="4.96948">
        <ele>305.7883605957</ele>
        <time>2020-01-16T11:23:52 0100</time>
      </trkpt>
      <trkpt lat="47.24173" lon="4.96946">
        <ele>305.54205322266</ele>
        <time>2020-01-16T11:23:56 0100</time>
      </trkpt>
      <trkpt lat="47.24169" lon="4.96945">
        <ele>305.2878112793</ele>
        <time>2020-01-16T11:24:00 0100</time>
      </trkpt>
      <trkpt lat="47.24163" lon="4.96944">
        <ele>304.99560546875</ele>
        <time>2020-01-16T11:24:04 0100</time>
      </trkpt>
      <trkpt lat="47.24159" lon="4.96943">
        <ele>304.69610595703</ele>
        <time>2020-01-16T11:24:08 0100</time>
      </trkpt>
      <trkpt lat="47.24155" lon="4.96941">
        <ele>304.39956665039</ele>
        <time>2020-01-16T11:24:12 0100</time>
      </trkpt>
      <trkpt lat="47.24152" lon="4.9694">
        <ele>304.1530456543</ele>
        <time>2020-01-16T11:24:16 0100</time>
      </trkpt>
      <trkpt lat="47.24149" lon="4.96938">
        <ele>303.96823120117</ele>
        <time>2020-01-16T11:24:20 0100</time>
      </trkpt>
      <trkpt lat="47.24145" lon="4.96936">
        <ele>303.78314208984</ele>
        <time>2020-01-16T11:24:24 0100</time>
      </trkpt>
      <trkpt lat="47.24142" lon="4.96935">
        <ele>303.52288818359</ele>
        <time>2020-01-16T11:24:28 0100</time>
      </trkpt>
      <trkpt lat="47.24138" lon="4.96934">
        <ele>303.29223632812</ele>
        <time>2020-01-16T11:24:32 0100</time>
      </trkpt>
      <trkpt lat="47.24135" lon="4.96934">
        <ele>303.12664794922</ele>
        <time>2020-01-16T11:24:36 0100</time>
      </trkpt>
      <trkpt lat="47.24132" lon="4.96934">
        <ele>303.06072998047</ele>
        <time>2020-01-16T11:24:40 0100</time>
      </trkpt>
      <trkpt lat="47.24129" lon="4.96933">
        <ele>303.07049560547</ele>
        <time>2020-01-16T11:24:44 0100</time>
      </trkpt>
      <trkpt lat="47.24125" lon="4.96932">
        <ele>303.13552856445</ele>
        <time>2020-01-16T11:24:48 0100</time>
      </trkpt>
      <trkpt lat="47.2412" lon="4.96931">
        <ele>303.24526977539</ele>
        <time>2020-01-16T11:24:52 0100</time>
      </trkpt>
      <trkpt lat="47.24116" lon="4.9693">
        <ele>303.39498901367</ele>
        <time>2020-01-16T11:24:56 0100</time>
      </trkpt>
      <trkpt lat="47.24111" lon="4.96929">
        <ele>303.55813598633</ele>
        <time>2020-01-16T11:25:00 0100</time>
      </trkpt>
      <trkpt lat="47.24105" lon="4.96927">
        <ele>303.59579467773</ele>
        <time>2020-01-16T11:25:04 0100</time>
      </trkpt>
      <trkpt lat="47.24101" lon="4.96927">
        <ele>303.61889648438</ele>
        <time>2020-01-16T11:25:08 0100</time>
      </trkpt>
      <trkpt lat="47.24097" lon="4.96926">
        <ele>303.64791870117</ele>
        <time>2020-01-16T11:25:12 0100</time>
      </trkpt>
      <trkpt lat="47.24094" lon="4.96927">
        <ele>303.67132568359</ele>
        <time>2020-01-16T11:25:16 0100</time>
      </trkpt>
      <trkpt lat="47.24091" lon="4.96927">
        <ele>303.78451538086</ele>
        <time>2020-01-16T11:25:20 0100</time>
      </trkpt>
      <trkpt lat="47.24087" lon="4.96926">
        <ele>303.9091796875</ele>
        <time>2020-01-16T11:25:24 0100</time>
      </trkpt>
      <trkpt lat="47.24083" lon="4.96926">
        <ele>304.00827026367</ele>
        <time>2020-01-16T11:25:28 0100</time>
      </trkpt>
      <trkpt lat="47.24077" lon="4.96925">
        <ele>304.06353759766</ele>
        <time>2020-01-16T11:25:32 0100</time>
      </trkpt>
      <trkpt lat="47.24074" lon="4.96925">
        <ele>304.08227539062</ele>
        <time>2020-01-16T11:25:36 0100</time>
      </trkpt>
      <trkpt lat="47.2407" lon="4.96925">
        <ele>304.07769775391</ele>
        <time>2020-01-16T11:25:40 0100</time>
      </trkpt>
      <trkpt lat="47.24066" lon="4.96924">
        <ele>304.03012084961</ele>
        <time>2020-01-16T11:25:44 0100</time>
      </trkpt>
      <trkpt lat="47.24062" lon="4.96924">
        <ele>304.0100402832</ele>
        <time>2020-01-16T11:25:48 0100</time>
      </trkpt>
      <trkpt lat="47.24059" lon="4.96924">
        <ele>304.02206420898</ele>
        <time>2020-01-16T11:25:52 0100</time>
      </trkpt>
      <trkpt lat="47.24057" lon="4.96924">
        <ele>304.03863525391</ele>
        <time>2020-01-16T11:25:56 0100</time>
      </trkpt>
      <trkpt lat="47.24057" lon="4.96924">
        <ele>304.04498291016</ele>
        <time>2020-01-16T11:26:00 0100</time>
      </trkpt>
      <trkpt lat="47.24057" lon="4.96924">
        <ele>304.04409790039</ele>
        <time>2020-01-16T11:26:04 0100</time>
      </trkpt>
      <trkpt lat="47.24057" lon="4.96924">
        <ele>304.05249023438</ele>
        <time>2020-01-16T11:26:08 0100</time>
      </trkpt>
      <trkpt lat="47.24056" lon="4.96923">
        <ele>304.05841064453</ele>
        <time>2020-01-16T11:26:12 0100</time>
      </trkpt>
      <trkpt lat="47.24056" lon="4.96924">
        <ele>304.0617980957</ele>
        <time>2020-01-16T11:26:16 0100</time>
      </trkpt>
      <trkpt lat="47.24056" lon="4.96924">
        <ele>304.05935668945</ele>
        <time>2020-01-16T11:26:20 0100</time>
      </trkpt>
      <trkpt lat="47.24056" lon="4.96924">
        <ele>304.06497192383</ele>
        <time>2020-01-16T11:26:24 0100</time>
      </trkpt>
      <trkpt lat="47.24056" lon="4.96924">
        <ele>304.06649780273</ele>
        <time>2020-01-16T11:26:28 0100</time>
      </trkpt>
      <trkpt lat="47.24053" lon="4.96926">
        <ele>304.10073852539</ele>
        <time>2020-01-16T11:26:32 0100</time>
      </trkpt>
      <trkpt lat="47.24051" lon="4.96927">
        <ele>304.11419677734</ele>
        <time>2020-01-16T11:26:36 0100</time>
      </trkpt>
      <trkpt lat="47.24049" lon="4.96926">
        <ele>304.09439086914</ele>
        <time>2020-01-16T11:26:40 0100</time>
      </trkpt>
      <trkpt lat="47.24049" lon="4.96927">
        <ele>304.11715698242</ele>
        <time>2020-01-16T11:26:44 0100</time>
      </trkpt>
      <trkpt lat="47.24045" lon="4.96925">
        <ele>304.18460083008</ele>
        <time>2020-01-16T11:26:48 0100</time>
      </trkpt>
      <trkpt lat="47.24041" lon="4.96924">
        <ele>304.23028564453</ele>
        <time>2020-01-16T11:26:52 0100</time>
      </trkpt>
      <trkpt lat="47.24038" lon="4.96923">
        <ele>304.26052856445</ele>
        <time>2020-01-16T11:26:56 0100</time>
      </trkpt>
      <trkpt lat="47.24035" lon="4.96921">
        <ele>304.28158569336</ele>
        <time>2020-01-16T11:27:00 0100</time>
      </trkpt>
      <trkpt lat="47.24031" lon="4.9692">
        <ele>304.30941772461</ele>
        <time>2020-01-16T11:27:04 0100</time>
      </trkpt>
      <trkpt lat="47.24027" lon="4.96919">
        <ele>304.33486938477</ele>
        <time>2020-01-16T11:27:08 0100</time>
      </trkpt>
      <trkpt lat="47.24023" lon="4.96917">
        <ele>304.3359375</ele>
        <time>2020-01-16T11:27:12 0100</time>
      </trkpt>
      <trkpt lat="47.24019" lon="4.96915">
        <ele>304.31225585938</ele>
        <time>2020-01-16T11:27:16 0100</time>
      </trkpt>
      <trkpt lat="47.24015" lon="4.96914">
        <ele>304.27447509766</ele>
        <time>2020-01-16T11:27:20 0100</time>
      </trkpt>
      <trkpt lat="47.24016" lon="4.96914">
        <ele>304.30017089844</ele>
        <time>2020-01-16T11:27:24 0100</time>
      </trkpt>
      <trkpt lat="47.24016" lon="4.96914">
        <ele>304.30999755859</ele>
        <time>2020-01-16T11:27:28 0100</time>
      </trkpt>
      <trkpt lat="47.24014" lon="4.96913">
        <ele>304.40747070312</ele>
        <time>2020-01-16T11:27:32 0100</time>
      </trkpt>
      <trkpt lat="47.24009" lon="4.96911">
        <ele>304.43197631836</ele>
        <time>2020-01-16T11:27:36 0100</time>
      </trkpt>
      <trkpt lat="47.24004" lon="4.9691">
        <ele>304.39733886719</ele>
        <time>2020-01-16T11:27:40 0100</time>
      </trkpt>
      <trkpt lat="47.24001" lon="4.96908">
        <ele>304.35595703125</ele>
        <time>2020-01-16T11:27:44 0100</time>
      </trkpt>
      <trkpt lat="47.23997" lon="4.96907">
        <ele>304.26541137695</ele>
        <time>2020-01-16T11:27:48 0100</time>
      </trkpt>
      <trkpt lat="47.23992" lon="4.96906">
        <ele>304.20346069336</ele>
        <time>2020-01-16T11:27:52 0100</time>
      </trkpt>
      <trkpt lat="47.23988" lon="4.96905">
        <ele>304.25155639648</ele>
        <time>2020-01-16T11:27:56 0100</time>
      </trkpt>
      <trkpt lat="47.23985" lon="4.96905">
        <ele>304.42529296875</ele>
        <time>2020-01-16T11:28:00 0100</time>
      </trkpt>
      <trkpt lat="47.23983" lon="4.96903">
        <ele>304.67828369141</ele>
        <time>2020-01-16T11:28:04 0100</time>
      </trkpt>
      <trkpt lat="47.23979" lon="4.96901">
        <ele>304.95513916016</ele>
        <time>2020-01-16T11:28:08 0100</time>
      </trkpt>
      <trkpt lat="47.23975" lon="4.96899">
        <ele>305.22604370117</ele>
        <time>2020-01-16T11:28:12 0100</time>
      </trkpt>
      <trkpt lat="47.23971" lon="4.96897">
        <ele>305.50247192383</ele>
        <time>2020-01-16T11:28:16 0100</time>
      </trkpt>
      <trkpt lat="47.23967" lon="4.96894">
        <ele>305.86822509766</ele>
        <time>2020-01-16T11:28:20 0100</time>
      </trkpt>
      <trkpt lat="47.23964" lon="4.96892">
        <ele>306.30065917969</ele>
        <time>2020-01-16T11:28:25 0100</time>
      </trkpt>
      <trkpt lat="47.23959" lon="4.96891">
        <ele>306.69821166992</ele>
        <time>2020-01-16T11:28:29 0100</time>
      </trkpt>
      <trkpt lat="47.23955" lon="4.9689">
        <ele>307.05627441406</ele>
        <time>2020-01-16T11:28:33 0100</time>
      </trkpt>
      <trkpt lat="47.23951" lon="4.96888">
        <ele>307.27450561523</ele>
        <time>2020-01-16T11:28:37 0100</time>
      </trkpt>
      <trkpt lat="47.23948" lon="4.96886">
        <ele>307.75842285156</ele>
        <time>2020-01-16T11:28:41 0100</time>
      </trkpt>
      <trkpt lat="47.23944" lon="4.96884">
        <ele>308.35266113281</ele>
        <time>2020-01-16T11:28:45 0100</time>
      </trkpt>
      <trkpt lat="47.2394" lon="4.96883">
        <ele>308.99624633789</ele>
        <time>2020-01-16T11:28:49 0100</time>
      </trkpt>
      <trkpt lat="47.23935" lon="4.96882">
        <ele>309.53405761719</ele>
        <time>2020-01-16T11:28:53 0100</time>
      </trkpt>
      <trkpt lat="47.2393" lon="4.96881">
        <ele>309.82992553711</ele>
        <time>2020-01-16T11:28:57 0100</time>
      </trkpt>
      <trkpt lat="47.23926" lon="4.96877">
        <ele>309.92855834961</ele>
        <time>2020-01-16T11:29:01 0100</time>
      </trkpt>
      <trkpt lat="47.23924" lon="4.96876">
        <ele>309.90084838867</ele>
        <time>2020-01-16T11:29:05 0100</time>
      </trkpt>
      <trkpt lat="47.23923" lon="4.96874">
        <ele>310.08682250977</ele>
        <time>2020-01-16T11:29:09 0100</time>
      </trkpt>
      <trkpt lat="47.23923" lon="4.96873">
        <ele>310.45135498047</ele>
        <time>2020-01-16T11:29:13 0100</time>
      </trkpt>
      <trkpt lat="47.2392" lon="4.96872">
        <ele>310.70327758789</ele>
        <time>2020-01-16T11:29:17 0100</time>
      </trkpt>
      <trkpt lat="47.23917" lon="4.96869">
        <ele>310.32086181641</ele>
        <time>2020-01-16T11:29:21 0100</time>
      </trkpt>
      <trkpt lat="47.23918" lon="4.9686">
        <ele>309.76187133789</ele>
        <time>2020-01-16T11:29:25 0100</time>
      </trkpt>
      <trkpt lat="47.2392" lon="4.96855">
        <ele>309.17358398438</ele>
        <time>2020-01-16T11:29:29 0100</time>
      </trkpt>
      <trkpt lat="47.23921" lon="4.9685">
        <ele>308.71691894531</ele>
        <time>2020-01-16T11:29:33 0100</time>
      </trkpt>
      <trkpt lat="47.23922" lon="4.96844">
        <ele>308.32098388672</ele>
        <time>2020-01-16T11:29:37 0100</time>
      </trkpt>
      <trkpt lat="47.23922" lon="4.96837">
        <ele>307.86596679688</ele>
        <time>2020-01-16T11:29:41 0100</time>
      </trkpt>
      <trkpt lat="47.23922" lon="4.96834">
        <ele>307.44869995117</ele>
        <time>2020-01-16T11:29:45 0100</time>
      </trkpt>
      <trkpt lat="47.23923" lon="4.96829">
        <ele>307.07363891602</ele>
        <time>2020-01-16T11:29:49 0100</time>
      </trkpt>
      <trkpt lat="47.23923" lon="4.96822">
        <ele>306.66506958008</ele>
        <time>2020-01-16T11:29:53 0100</time>
      </trkpt>
      <trkpt lat="47.23924" lon="4.96815">
        <ele>306.16329956055</ele>
        <time>2020-01-16T11:29:57 0100</time>
      </trkpt>
      <trkpt lat="47.23924" lon="4.96809">
        <ele>305.57745361328</ele>
        <time>2020-01-16T11:30:01 0100</time>
      </trkpt>
      <trkpt lat="47.23924" lon="4.96803">
        <ele>304.98916625977</ele>
        <time>2020-01-16T11:30:05 0100</time>
      </trkpt>
      <trkpt lat="47.23923" lon="4.96797">
        <ele>304.43600463867</ele>
        <time>2020-01-16T11:30:09 0100</time>
      </trkpt>
      <trkpt lat="47.23924" lon="4.96795">
        <ele>304.02972412109</ele>
        <time>2020-01-16T11:30:13 0100</time>
      </trkpt>
      <trkpt lat="47.23927" lon="4.96793">
        <ele>304.19247436523</ele>
        <time>2020-01-16T11:30:17 0100</time>
      </trkpt>
      <trkpt lat="47.23927" lon="4.96787">
        <ele>304.35470581055</ele>
        <time>2020-01-16T11:30:21 0100</time>
      </trkpt>
      <trkpt lat="47.23929" lon="4.96781">
        <ele>304.59252929688</ele>
        <time>2020-01-16T11:30:25 0100</time>
      </trkpt>
      <trkpt lat="47.23931" lon="4.96777">
        <ele>305.02197265625</ele>
        <time>2020-01-16T11:30:29 0100</time>
      </trkpt>
      <trkpt lat="47.23933" lon="4.96771">
        <ele>305.49295043945</ele>
        <time>2020-01-16T11:30:33 0100</time>
      </trkpt>
      <trkpt lat="47.23935" lon="4.96766">
        <ele>305.99053955078</ele>
        <time>2020-01-16T11:30:37 0100</time>
      </trkpt>
      <trkpt lat="47.23936" lon="4.9676">
        <ele>306.49813842773</ele>
        <time>2020-01-16T11:30:41 0100</time>
      </trkpt>
      <trkpt lat="47.23937" lon="4.96755">
        <ele>307.00048828125</ele>
        <time>2020-01-16T11:30:45 0100</time>
      </trkpt>
      <trkpt lat="47.23939" lon="4.96748">
        <ele>307.48648071289</ele>
        <time>2020-01-16T11:30:49 0100</time>
      </trkpt>
      <trkpt lat="47.2394" lon="4.96742">
        <ele>307.92190551758</ele>
        <time>2020-01-16T11:30:53 0100</time>
      </trkpt>
      <trkpt lat="47.23942" lon="4.96736">
        <ele>308.30627441406</ele>
        <time>2020-01-16T11:30:57 0100</time>
      </trkpt>
      <trkpt lat="47.23944" lon="4.96732">
        <ele>308.66519165039</ele>
        <time>2020-01-16T11:31:01 0100</time>
      </trkpt>
      <trkpt lat="47.23945" lon="4.96728">
        <ele>308.93792724609</ele>
        <time>2020-01-16T11:31:05 0100</time>
      </trkpt>
      <trkpt lat="47.23946" lon="4.96726">
        <ele>309.21420288086</ele>
        <time>2020-01-16T11:31:09 0100</time>
      </trkpt>
      <trkpt lat="47.23946" lon="4.96726">
        <ele>309.33401489258</ele>
        <time>2020-01-16T11:31:13 0100</time>
      </trkpt>
      <trkpt lat="47.23947" lon="4.96724">
        <ele>309.7451171875</ele>
        <time>2020-01-16T11:31:17 0100</time>
      </trkpt>
      <trkpt lat="47.23948" lon="4.96721">
        <ele>310.08059692383</ele>
        <time>2020-01-16T11:31:21 0100</time>
      </trkpt>
      <trkpt lat="47.23948" lon="4.9672">
        <ele>310.31973266602</ele>
        <time>2020-01-16T11:31:25 0100</time>
      </trkpt>
      <trkpt lat="47.23948" lon="4.96717">
        <ele>310.70095825195</ele>
        <time>2020-01-16T11:31:29 0100</time>
      </trkpt>
      <trkpt lat="47.23949" lon="4.96713">
        <ele>310.80654907227</ele>
        <time>2020-01-16T11:31:33 0100</time>
      </trkpt>
      <trkpt lat="47.23951" lon="4.96709">
        <ele>310.82305908203</ele>
        <time>2020-01-16T11:31:37 0100</time>
      </trkpt>
      <trkpt lat="47.23953" lon="4.96705">
        <ele>310.83532714844</ele>
        <time>2020-01-16T11:31:41 0100</time>
      </trkpt>
      <trkpt lat="47.23953" lon="4.96699">
        <ele>310.96127319336</ele>
        <time>2020-01-16T11:31:45 0100</time>
      </trkpt>
      <trkpt lat="47.23955" lon="4.96694">
        <ele>311.22326660156</ele>
        <time>2020-01-16T11:31:49 0100</time>
      </trkpt>
      <trkpt lat="47.23957" lon="4.96689">
        <ele>311.45095825195</ele>
        <time>2020-01-16T11:31:53 0100</time>
      </trkpt>
      <trkpt lat="47.23959" lon="4.96684">
        <ele>311.66979980469</ele>
        <time>2020-01-16T11:31:57 0100</time>
      </trkpt>
      <trkpt lat="47.23962" lon="4.96679">
        <ele>311.89562988281</ele>
        <time>2020-01-16T11:32:01 0100</time>
      </trkpt>
      <trkpt lat="47.23965" lon="4.96675">
        <ele>312.1325378418</ele>
        <time>2020-01-16T11:32:05 0100</time>
      </trkpt>
      <trkpt lat="47.23968" lon="4.96672">
        <ele>312.37042236328</ele>
        <time>2020-01-16T11:32:09 0100</time>
      </trkpt>
      <trkpt lat="47.23971" lon="4.96667">
        <ele>312.60089111328</ele>
        <time>2020-01-16T11:32:13 0100</time>
      </trkpt>
      <trkpt lat="47.23974" lon="4.96663">
        <ele>312.82919311523</ele>
        <time>2020-01-16T11:32:17 0100</time>
      </trkpt>
      <trkpt lat="47.23976" lon="4.96658">
        <ele>313.06915283203</ele>
        <time>2020-01-16T11:32:21 0100</time>
      </trkpt>
      <trkpt lat="47.23979" lon="4.96655">
        <ele>313.30218505859</ele>
        <time>2020-01-16T11:32:25 0100</time>
      </trkpt>
      <trkpt lat="47.23982" lon="4.96651">
        <ele>313.53421020508</ele>
        <time>2020-01-16T11:32:29 0100</time>
      </trkpt>
      <trkpt lat="47.23984" lon="4.96649">
        <ele>313.78210449219</ele>
        <time>2020-01-16T11:32:33 0100</time>
      </trkpt>
      <trkpt lat="47.23986" lon="4.96647">
        <ele>314.05841064453</ele>
        <time>2020-01-16T11:32:37 0100</time>
      </trkpt>
      <trkpt lat="47.23989" lon="4.96644">
        <ele>314.33163452148</ele>
        <time>2020-01-16T11:32:41 0100</time>
      </trkpt>
      <trkpt lat="47.23993" lon="4.96641">
        <ele>314.59600830078</ele>
        <time>2020-01-16T11:32:45 0100</time>
      </trkpt>
      <trkpt lat="47.23997" lon="4.96639">
        <ele>314.84664916992</ele>
        <time>2020-01-16T11:32:49 0100</time>
      </trkpt>
      <trkpt lat="47.24" lon="4.96636">
        <ele>315.10256958008</ele>
        <time>2020-01-16T11:32:53 0100</time>
      </trkpt>
      <trkpt lat="47.24003" lon="4.96634">
        <ele>315.37780761719</ele>
        <time>2020-01-16T11:32:57 0100</time>
      </trkpt>
      <trkpt lat="47.24007" lon="4.96631">
        <ele>315.64385986328</ele>
        <time>2020-01-16T11:33:01 0100</time>
      </trkpt>
      <trkpt lat="47.2401" lon="4.96627">
        <ele>315.890625</ele>
        <time>2020-01-16T11:33:05 0100</time>
      </trkpt>
      <trkpt lat="47.24013" lon="4.96623">
        <ele>316.11981201172</ele>
        <time>2020-01-16T11:33:09 0100</time>
      </trkpt>
      <trkpt lat="47.24016" lon="4.9662">
        <ele>316.32699584961</ele>
        <time>2020-01-16T11:33:13 0100</time>
      </trkpt>
      <trkpt lat="47.24019" lon="4.96616">
        <ele>316.53305053711</ele>
        <time>2020-01-16T11:33:17 0100</time>
      </trkpt>
      <trkpt lat="47.24022" lon="4.96613">
        <ele>316.74221801758</ele>
        <time>2020-01-16T11:33:21 0100</time>
      </trkpt>
      <trkpt lat="47.24023" lon="4.96613">
        <ele>316.90579223633</ele>
        <time>2020-01-16T11:33:25 0100</time>
      </trkpt>
      <trkpt lat="47.24026" lon="4.96611">
        <ele>317.05722045898</ele>
        <time>2020-01-16T11:33:29 0100</time>
      </trkpt>
      <trkpt lat="47.24028" lon="4.96609">
        <ele>317.20129394531</ele>
        <time>2020-01-16T11:33:33 0100</time>
      </trkpt>
      <trkpt lat="47.24028" lon="4.96609">
        <ele>317.22244262695</ele>
        <time>2020-01-16T11:33:37 0100</time>
      </trkpt>
      <trkpt lat="47.24031" lon="4.96608">
        <ele>317.4489440918</ele>
        <time>2020-01-16T11:33:41 0100</time>
      </trkpt>
      <trkpt lat="47.24034" lon="4.96604">
        <ele>317.62469482422</ele>
        <time>2020-01-16T11:33:45 0100</time>
      </trkpt>
      <trkpt lat="47.24037" lon="4.96602">
        <ele>317.74642944336</ele>
        <time>2020-01-16T11:33:49 0100</time>
      </trkpt>
      <trkpt lat="47.24041" lon="4.96598">
        <ele>317.82202148438</ele>
        <time>2020-01-16T11:33:53 0100</time>
      </trkpt>
      <trkpt lat="47.24044" lon="4.96597">
        <ele>317.89498901367</ele>
        <time>2020-01-16T11:33:57 0100</time>
      </trkpt>
      <trkpt lat="47.24046" lon="4.96595">
        <ele>318.0498046875</ele>
        <time>2020-01-16T11:34:01 0100</time>
      </trkpt>
      <trkpt lat="47.24049" lon="4.96593">
        <ele>318.24450683594</ele>
        <time>2020-01-16T11:34:05 0100</time>
      </trkpt>
      <trkpt lat="47.24053" lon="4.96591">
        <ele>318.43942260742</ele>
        <time>2020-01-16T11:34:09 0100</time>
      </trkpt>
      <trkpt lat="47.24057" lon="4.96592">
        <ele>318.65713500977</ele>
        <time>2020-01-16T11:34:13 0100</time>
      </trkpt>
      <trkpt lat="47.24061" lon="4.96592">
        <ele>318.86566162109</ele>
        <time>2020-01-16T11:34:17 0100</time>
      </trkpt>
      <trkpt lat="47.24063" lon="4.9659">
        <ele>316</ele>
      </trkpt>
      <trkpt lat="47.24064" lon="4.96583">
        <ele>318.2</ele>
      </trkpt>
      <trkpt lat="47.2406" lon="4.96575">
        <ele>318.5</ele>
      </trkpt>
      <trkpt lat="47.2406" lon="4.96565">
        <ele>318.7</ele>
      </trkpt>
    </trkseg>
  </trk>
</gpx>